     2              OBSERVATION DATA    GPS                 RINEX VERSION / TYPE
teqc 2000Feb29 simon 20000628 00:32:26UTC                   PGM / RUN BY / DATE
                                                            COMMENT
L2: 1 -> 1; 150 -> 5; 250 -> 9                              COMMENT
L2: 1 -> 1; 150 -> 5; 250 -> 9                              COMMENT
L2: 1 -> 1; 150 -> 5; 250 -> 9                              COMMENT
L2: 1 -> 1; 150 -> 5; 250 -> 9                              COMMENT
L2: 1 -> 1; 150 -> 5; 250 -> 9                              COMMENT
Original Marker Name: GS49                                  COMMENT
Campaign Name: China Lake April 2000                        COMMENT
4-Character Station Name: GS49                              COMMENT
6-Character Antenna Code: ASHGD3                            COMMENT
Vertical Measurement Point: TGP                             COMMENT
Vertical Offset to Rinex Ref. Point: 0.0640                 COMMENT
Radial Measurement Point: OOH                               COMMENT
Radial Offset to Rinex Ref. Point: 0.1737                   COMMENT
Antenna Height from Field Measurement: 1.3050 m             COMMENT
Additional Antenna Identification Info.:                    COMMENT
The Whopper (700718AB)                                      COMMENT
Original XYZ: -2394812.6600 -4608466.3100 3691204.4700      COMMENT
New XYZ position is based on association with SCEC monument COMMENT
E1F4B7S3+0011. Position of that monument is believed to be  COMMENT
valid to within 1 m horizontally; vertical accuracy         COMMENT
should be no worse than 3-times this value.                 COMMENT
                                                            COMMENT
Revised Rinex header created by UCSD GPS archive for        COMMENT
GSAC on 14-Sep-2001 (2001:257) 20:06:14 GMT                 COMMENT
For assistance contact dagnew@ucsd.edu                      COMMENT
or anderson@python.ucsd.edu                                 COMMENT
                                                            COMMENT
NONE                                                        MARKER NAME
gs49                                                        MARKER NUMBER
HEM US NATIONAL IMAGERY MAPPING AGENCY                      OBSERVER / AGENCY
496 ASHTECH Z-XII3 4J30                                     REC # / TYPE / VERS
965 ASHTECH GEODETIC III                                    ANT # / TYPE
 -2377249.5749 -4633040.4122  3672477.2136                  APPROX POSITION XYZ
        1.2294        0.0000        0.0000                  ANTENNA: DELTA H/E/N
     1     1     0                                          WAVELENGTH FACT L1/2
     7    L1    L2    C1    P1    P2    S1    S2            # / TYPES OF OBSERV
    30                                                      INTERVAL
  2000     5     8    15    29    0.000000                  TIME OF FIRST OBS
  2000     5     8    21    29   60.000000                  TIME OF LAST OBS
                                                            END OF HEADER
 00  5  8 15 29  0.0000000  0  6G 2G26G 4G24G 7G 9
     33896.42859     21166.31657  19832886.380    19832885.702    19832893.543
       238.000         201.000
     61732.18349     40316.39146  22116660.117    22116660.400    22116670.035
       222.000         163.000
    -53382.41559    -30657.58057  19113483.501    19113482.933    19113490.550
       241.000         202.000
    -81948.08855                  21420614.541
       219.000         160.000
     37317.53759     23490.54457  19004674.762    19004673.730    19004680.737
       244.000         210.000
    -45375.61749    -26183.83547  19770975.083    19770973.844    19770981.173
       240.000         203.000
 00  5  8 15 29 59.9990000  0  6G 2G26G 4G24G 7G 9
     85644.65749     61489.45947  21641488.778    21641487.804    21641495.792
       237.000         201.000
    181940.30049    133984.80746  23938290.674    23938290.502    23938301.139
       222.000         163.000
   -222380.94559   -162344.71547  20880078.506    20880078.167    20880085.871
       240.000         201.000
   -370002.17959   -271727.73456  23173024.520    23173024.296    23173035.221
       218.000         163.000
     94586.68649     68115.76847  20814327.606    20814326.511    20814333.632
       243.000         212.000
   -189566.31649   -138540.19847  21542290.511    21542289.856    21542297.409
       238.000         202.000
 00  5  8 15 30 29.9990000  0  8G 2G26G 4G 5G24G 7G 8G 9
    111964.82549     81998.60947  21646497.402    21646496.399    21646504.514
       237.000         201.000
    242289.43049    181010.06346  23949775.012    23949774.800    23949785.047
       224.000         164.000
   -306134.01049   -227606.82847  20864140.816    20864140.497    20864148.218
       240.000         202.000
   -233790.45959   -159945.84155  24415623.172    24415621.450    24415634.224
       212.000         136.000
   -491565.91549   -366452.66546  23149891.876    23149891.451    23149902.239
       217.000         164.000
    123624.85649     90742.86447  20819853.410    20819852.291    20819859.552
       242.000         211.000
    209925.35355                  24822738.406                    24822752.213
       199.000         134.000
   -260926.05149   -194145.16547  21528711.102    21528710.467    21528718.096
       239.000         202.000
 00  5  8 15 30 59.9990000  0  8G 2G26G 4G 5G24G 7G 8G 9
    138567.25549    102727.70047  21651559.740    21651558.708    21651566.894
       238.000         201.000
    302779.58249    228145.07146  23961285.861    23961285.593    23961296.286
       222.000         166.000
   -389393.61149   -292484.43047  20848296.983    20848296.706    20848304.506
       241.000         202.000
   -333337.56159   -237514.83045  24396680.487    24396681.072    24396693.001
       205.000         146.000
   -612989.22249   -461068.17046  23126785.706    23126785.391    23126796.179
       219.000         163.000
    152914.08549    113565.58747  20825426.897    20825425.815    20825433.179
       242.000         211.000
    392287.51649    288866.77545  24842016.762    24842016.290    24842028.874
       208.000         138.000
   -331800.97849   -249372.36947  21515224.030    21515223.406    21515231.024
       239.000         202.000
 00  5  8 15 31 29.9990000  0  8G 2G26G 4G 5G24G 7G 8G 9
    165453.35849    123677.82547  21656676.101    21656675.025    21656683.196
       238.000         200.000
    363408.55549    275388.38945  23972823.549    23972823.203    23972833.353
       224.000         158.000
   -472156.20749   -356974.76447  20832547.809    20832547.524    20832555.386
       241.000         202.000
   -432885.00149   -315084.37546  24377737.304    24377737.063    24377748.417
       211.000         163.000
   -734268.35149   -555571.32146  23103707.082    23103706.730    23103717.511
       221.000         164.000
    182453.67449    136583.40147  20831048.103    20831047.009    20831054.405
       242.000         211.000
    493642.27259    367844.26754  24861304.284    24861304.115    24861315.406
       202.000         128.000
   -402188.21849   -304219.54947  21501829.713    21501829.134    21501836.761
       239.000         202.000
 00  5  8 15 31 59.9990000  0  7G 2G26G 4G 5G24G 7G 9
    192630.83449    144855.00347  21661847.891    21661846.781    21661854.910
       238.000         199.000
    424180.72849    322743.18946  23984388.037    23984387.731    23984398.163
       223.000         167.000
   -554412.35149   -421070.46647  20816895.047    20816894.747    20816902.623
       241.000         203.000
   -532424.90049   -392647.72444  24358795.582    24358794.988
       222.000         128.000
   -855393.48349   -649954.49246  23080657.955    23080657.417    23080668.175
       220.000         166.000
    212249.19149    159800.63947  20836718.007    20836716.911    20836724.337
       242.000         211.000
   -472078.64749   -358679.60447  21488530.011    21488529.417    21488537.037
       239.000         203.000
 00  5  8 15 32 29.9990000  0  7G 2G26G 4G 5G24G 7G 9
    220111.34949    166268.31947  21667077.309    21667076.193    21667084.287
       238.000         199.000
    485104.14149    370215.86045  23995981.741    23995981.250    23995991.711
       221.000         162.000
   -636148.39349   -484760.89947  20801341.299    20801340.957    20801348.810
       242.000         203.000
   -631945.52559   -470196.09356  24339857.436    24339856.700    24339868.523
       224.000         164.000
   -976350.61949   -744206.73846  23057640.600    23057640.050    23057650.838
       220.000         165.000
    242310.32349    183224.83947  20842438.467    20842437.375    20842444.824
       242.000         210.000
   -541459.05949   -412742.24447  21475327.316    21475326.774    21475334.376
       240.000         203.000
 00  5  8 15 32 59.9990000  0  7G 2G26G 4G 5G24G 7G 9
    247893.18849    187916.43247  21672364.075    21672362.940    21672371.030
       237.000         199.000
    546173.91249    417802.66245  24007602.735    24007602.327    24007612.800
       220.000         162.000
   -717364.03849   -548045.82847  20785886.540    20785886.170    20785894.027
       241.000         203.000
   -731448.55849   -547731.14245  24320922.673    24320921.941    24320933.739
       211.000         147.000
  -1097139.19949   -838327.67246  23034655.338    23034654.765    23034665.553
       221.000         167.000
    272633.45849    206853.19747  20848208.851    20848207.715    20848215.172
       242.000         210.000
   -610329.50749   -466407.51547  21462221.790    21462221.182    21462228.764
       240.000         203.000
 00  5  8 15 33 29.9990000  0  7G 2G26G 4G 5G24G 7G 9
    275978.45449    209800.97947  21677708.644    21677707.453    21677715.516
       238.000         199.000
    607388.62649    465502.30746  24019251.863    24019251.304    24019262.008
       223.000         170.000
   -798055.34549   -610922.17247  20770531.567    20770531.167    20770539.004
       242.000         202.000
   -830931.98549   -625250.67045  24301991.936    24301991.052    24302002.854
       200.000         143.000
  -1217754.78749   -932313.77846  23011702.979    23011702.357    23011713.255
       221.000         167.000
    303218.52349    230685.66547  20854029.069    20854027.896    20854035.363
       243.000         210.000
   -678686.83149   -519672.94947  21449213.923    21449213.242    21449220.779
       240.000         203.000
 00  5  8 15 33 59.9990000  0  7G 2G26G 4G 5G24G 7G 9
    304355.83649    231913.14447  21683108.759    21683107.559    21683115.625
       237.000         199.000
    668733.49249    513303.41945  24030925.101    24030924.766    24030935.389
       220.000         152.000
   -878231.59949   -673397.17247  20755274.526    20755274.155    20755281.950
       241.000         202.000
   -930407.02649   -702763.66745  24283062.556    24283061.539    24283073.245
       215.000         162.000
  -1338206.45749  -1026172.18446  22988781.784    22988781.150    22988792.109
       223.000         168.000
    334052.34049    254711.97047  20859896.625    20859895.435    20859902.890
       243.000         210.000
   -746540.83849   -572546.19047  21436301.700    21436301.061    21436308.581
       240.000         203.000
 00  5  8 15 34 29.9990000  0  7G 2G26G 4G 5G24G 7G 9
    333029.67849    254256.31347  21688565.263    21688564.055    21688572.154
       237.000         199.000
    730209.45149    561206.72546  24042623.977    24042623.447    24042633.987
       220.000         169.000
   -957886.79749   -735466.16947  20740116.603    20740116.279    20740124.042
       241.000         202.000
  -1029869.18049   -780266.71745  24264135.515    24264134.487    24264146.036
       221.000         155.000
  -1458487.64949  -1119897.74446  22965892.985    22965892.378    22965903.350
       221.000         168.000
    365137.09449    278933.80547  20865811.891    20865810.704    20865818.176
       242.000         210.000
   -813885.46649   -625022.51747  21423486.502    21423485.829    21423493.331
       240.000         204.000
 00  5  8 15 34 59.9990000  0  7G 2G26G 4G 5G24G 7G 9
    361994.40849    276826.15347  21694077.118    21694075.921    21694084.022
       237.000         199.000
    791807.68149    609205.15145  24054345.710    24054345.171    24054355.916
       220.000         162.000
  -1037024.28949   -797131.76447  20725057.304    20725056.957    20725064.671
       241.000         202.000
  -1129323.87349   -857763.81445  24245209.973    24245208.909    24245220.508
       220.000         151.000
  -1578601.51649  -1213492.92046  22943035.940    22943035.410    22943046.453
       222.000         169.000
    396465.44749    303345.45247  20871773.537    20871772.329    20871779.816
       243.000         210.000
   -880724.80749   -677105.11447  21410767.414    21410766.718    21410774.215
       239.000         204.000
 00  5  8 15 35 29.9990000  0  7G 2G26G 4G 5G24G 7G 9
    391247.10949    299620.38247  21699643.776    21699642.570    21699650.654
       236.000         198.000
    853521.68949    657294.02246  24066089.826    24066089.153    24066099.443
       222.000         164.000
  -1115645.26549   -858394.88247  20710096.317    20710095.933    20710103.622
       242.000         203.000
  -1228773.96849   -935257.46045  24226285.319    24226284.206    24226295.582
       212.000         155.000
  -1698548.50949  -1306958.07446  22920210.687    22920210.262    22920221.281
       222.000         168.000
    428032.30949    327942.95047  20877780.574    20877779.365    20877786.823
       244.000         210.000
   -947060.69349   -728795.41747  21398144.092    21398143.409    21398150.899
       240.000         204.000
 00  5  8 15 35 59.9990000  0  7G 2G26G 4G 5G24G 7G 9
    420774.37949    322628.56747  21705262.680    21705261.490    21705269.566
       237.000         199.000
    915335.02149    705460.04446  24077852.311    24077851.778    24077862.470
       219.000         167.000
  -1193761.13349   -919264.40647  20695231.409    20695231.019    20695238.713
       242.000         204.000
  -1328232.79349  -1012757.83245  24207358.763    24207357.742    24207369.175
       210.000         149.000
  -1818339.81849  -1400301.92046  22897415.196    22897414.688    22897425.738
       222.000         169.000
    459822.63249    352714.58047  20883830.206    20883828.948    20883836.358
       244.000         210.000
  -1012904.77649   -780102.50247  21385614.406    21385613.724    21385621.181
       241.000         204.000
 00  5  8 15 36 29.9990000  0  7G 2G26G 4G 5G24G 7G 9
    450595.49349    345865.72847  21710937.530    21710936.320    21710944.419
       236.000         198.000
    977263.41549    753715.90445  24089637.029    24089636.490    24089647.118
       223.000         161.000
  -1271350.94049   -979724.01447  20680466.617    20680466.217    20680473.921
       241.000         204.000
  -1427680.93649  -1090249.80745  24188434.419    24188433.380    24188444.934
       210.000         148.000
  -1937953.79049  -1493507.56946  22874653.448    22874652.889    22874663.921
       222.000         169.000
    491853.57349    377673.70647  20889925.607    20889924.313    20889931.672
       244.000         210.000
  -1078236.57249   -831010.40347  21373182.194    21373181.514    21373188.949
       241.000         204.000
 00  5  8 15 36 59.9990000  0  7G 2G26G 4G 5G24G 7G 9
    480700.40549    369324.01647  21716666.392    21716665.161    21716673.285
       237.000         198.000
   1039293.32349    802050.81846  24101441.098    24101440.487    24101451.179
       221.000         167.000
  -1348422.91149  -1039780.10547  20665800.278    20665799.936    20665807.638
       241.000         203.000
  -1527128.44949  -1167741.30945  24169510.241    24169509.181    24169520.696
       210.000         150.000
  -2057398.44249  -1586581.28946  22851923.903    22851923.312    22851934.341
       223.000         170.000
    524113.10449    402810.94847  20896064.457    20896063.176    20896070.507
       244.000         210.000
  -1143064.92749   -881526.00947  21360845.796    21360845.096    21360852.556
       241.000         205.000
 00  5  8 15 37 29.9990000  0  7G 2G26G 4G 5G24G 7G 9
    511090.00749    393004.15747  21722449.418    21722448.176    21722456.323
       237.000         198.000
   1101422.26949    850462.86546  24113263.835    24113263.290    24113274.245
       222.000         163.000
  -1424974.44349  -1099430.64947  20651233.017    20651232.646    20651240.352
       241.000         203.000
  -1626574.29649  -1245231.53245  24150586.194    24150585.204    24150596.838
       216.000         156.000
  -2176670.49549  -1679520.49046  22829227.211    22829226.578    22829237.557
       225.000         169.000
    556599.91149    428125.29347  20902246.584    20902245.278    20902252.628
       245.000         210.000
  -1207387.37249   -931647.39147  21348605.638    21348604.965    21348612.463
       242.000         205.000
 00  5  8 15 37 59.9990000  0  7G 2G26G 4G 5G24G 7G 9
    541776.26449    416915.45047  21728288.903    21728287.645    21728295.816
       236.000         198.000
   1163659.05149    898959.02445  24125107.110    24125106.604    24125117.328
       220.000         157.000
  -1500991.61149  -1158664.79647  20636767.383    20636767.064    20636774.773
       240.000         204.000
  -1726006.35549  -1322711.00745  24131664.817    24131663.837    24131675.511
       214.000         153.000
  -2295755.45349  -1772313.91946  22806566.038    22806565.452    22806576.383
       224.000         170.000
    589324.42949    453624.86347  20908473.953    20908472.622    20908479.962
       244.000         210.000
  -1271190.39149   -981364.03447  21336464.386    21336463.683    21336471.173
       241.000         205.000
 00  5  8 15 38 29.9990000  0  7G 2G26G 4G 5G24G 7G 9
    572752.20449    441052.47247  21734183.497    21734182.241    21734190.420
       237.000         198.000
   1225993.22949    947531.04846  24136969.056    24136968.479    24136979.168
       221.000         165.000
  -1576479.51249  -1217486.52947  20622402.505    20622402.218    20622409.950
       241.000         206.000
  -1825431.27149  -1400184.91245  24112744.913    24112743.919    24112755.629
       210.000         153.000
  -2414658.03749  -1864965.22246  22783939.620    22783939.057    22783949.879
       225.000         170.000
    622277.55749    479302.57347  20914744.795    20914743.457    20914750.762
       243.000         209.000
  -1334479.39649  -1030680.15047  21324420.934    21324420.214    21324427.685
       241.000         204.000
 00  5  8 15 38 59.9990000  0  7G 2G26G 4G 5G24G 7G 9
    604025.96549    465421.55547  21740134.938    21740133.571    21740141.712
       237.000         198.000
   1288429.50249    996182.58545  24148850.461    24148849.826    24148860.626
       221.000         162.000
  -1651428.42149  -1275888.26547  20608140.285    20608139.936    20608147.761
       241.000         207.000
  -1924840.83849  -1477646.87145  24093827.877    24093826.869    24093838.613
       215.000         155.000
  -2533367.67149  -1957466.15746  22761349.920    22761349.338    22761360.147
       224.000         170.000
    655465.52649    505163.28547  20921060.321    20921058.985    20921066.256
       243.000         209.000
  -1397245.13449  -1079588.51747  21312477.056    21312476.334    21312483.776
       241.000         205.000
 00  5  8 15 39 29.9990000  0  7G 2G26G 4G 5G24G 7G 9
    635590.50149    490017.22147  21746141.542    21746140.197    21746148.323
       237.000         197.000
   1350957.88849   1044905.96846  24160749.266    24160748.629    24160759.387
       221.000         163.000
  -1725843.40549  -1333873.96347  20593979.600    20593979.263    20593987.168
       241.000         207.000
  -2024241.89449  -1555102.18545  24074912.475    24074911.492    24074923.208
       218.000         157.000
  -2651889.18449  -2049820.51646  22738795.900    22738795.416    22738806.215
       223.000         171.000
    688879.56549    531200.16247  20927418.837    20927417.523    20927424.748
       244.000         209.000
  -1459493.29049  -1128093.57547  21300631.731    21300630.947    21300638.349
       242.000         205.000
 00  5  8 15 39 59.9990000  0  7G 2G26G 4G 5G24G 7G 9
    667422.94649    514821.64047  21752199.084    21752197.771    21752205.922
       236.000         197.000
   1413551.82049   1093680.38646  24172660.613    24172659.958    24172670.756
       220.000         166.000
  -1799745.66249  -1391460.12847  20579916.496    20579916.161    20579924.128
       241.000         208.000
  -2123657.07649  -1632568.50545  24055994.339    24055993.362    24056005.097
       214.000         151.000
  -2770243.04649  -2142044.22046  22716273.768    22716273.336    22716284.189
       221.000         171.000
    722494.90449    557393.89447  20933815.679    20933814.359    20933821.550
       244.000         208.000
  -1521245.17449  -1176211.92247  21288880.781    21288880.003    21288887.351
       241.000         204.000
 00  5  8 15 40 29.9990000  0  7G 2G26G 4G 5G24G 7G 9
    699549.20749    539855.00047  21758312.539    21758311.252    21758319.444
       236.000         197.000
   1476234.10449   1142523.62045  24184588.631    24184587.983    24184598.865
       217.000         161.000
  -1873107.69449  -1448625.33847  20565956.203    20565955.853    20565963.878
       241.000         208.000
  -2223060.18849  -1710025.45845  24037078.682    24037077.618    24037089.174
       212.000         148.000
  -2888401.08149  -2234115.34346  22693788.977    22693788.584    22693799.428
       223.000         172.000
    756335.39949    583763.06047  20940255.321    20940254.039    20940261.187
       244.000         208.000
  -1582473.77649  -1223922.51947  21277229.357    21277228.579    21277235.936
       241.000         204.000
 00  5  8 15 40 59.9990000  0  7G 2G26G 4G 5G24G 7G 9
    731957.69149    565108.27047  21764479.725    21764478.443    21764486.676
       235.000         197.000
   1538989.92149   1191424.21146  24196530.752    24196530.075    24196540.961
       222.000         165.000
  -1945939.00349  -1505376.98647  20552096.879    20552096.527    20552104.620
       241.000         208.000
  -2322462.61649  -1787481.81145  24018162.987    24018161.891    24018173.474
       215.000         154.000
  -3006372.34449  -2326040.91546  22671339.798    22671339.373    22671350.210
       224.000         172.000
    790387.78549    610297.34347  20946735.318    20946734.041    20946741.144
       243.000         208.000
  -1643189.22949  -1271233.26247  21265675.573    21265674.831    21265682.154
       241.000         204.000
 00  5  8 15 41 29.9990000  0  7G 2G26G 4G 5G24G 7G 9
    764619.58149    590558.98947  21770695.055    21770693.834    21770702.151
       234.000         197.000
   1601787.00049   1240356.90345  24208480.707    24208480.043    24208491.062
       220.000         162.000
  -2018266.88349  -1561736.34747  20538333.288    20538332.990    20538341.145
       241.000         208.000
  -2421893.09949  -1864960.04245  23999241.919    23999240.874    23999252.436
       218.000         156.000
  -3124183.36149  -2417841.62346  22648921.138    22648920.631    22648931.458
       224.000         171.000
    824621.30449    636972.77047  20953249.797    20953248.530    20953255.606
       244.000         208.000
  -1703418.88049  -1318165.45047  21254214.263    21254213.514    21254220.834
       242.000         205.000
 00  5  8 15 41 59.9990000  0  7G 2G26G 4G 5G24G 7G 9
    797589.62849    616249.83647  21776969.096    21776967.882    21776976.264
       235.000         197.000
   1664676.98849   1289362.03545  24220448.228    24220447.603    24220458.589
       219.000         160.000
  -2090034.81349  -1617659.38247  20524676.286    20524676.023    20524684.209
       242.000         208.000
  -2521296.37149  -1942417.02345  23980326.035    23980325.073    23980336.654
       220.000         158.000
  -3241776.84349  -2509472.81746  22626543.873    22626543.334    22626554.099
       225.000         172.000
    859088.94849    663830.63047  20959808.824    20959807.556    20959814.636
       244.000         209.000
  -1763106.78449  -1364675.49947  21242856.025    21242855.285    21242862.599
       241.000         205.000
 00  5  8 15 42 29.9990000  0  7G 2G26G 4G 5G24G 7G 9
    830896.56849    642203.20847  21783307.316    21783306.053    21783314.490
       235.000         196.000
   1727684.98549   1338459.10046  24232438.548    24232437.814    24232448.751
       220.000         163.000
  -2161212.64149  -1673122.60547  20511131.638    20511131.364    20511139.526
       242.000         208.000
  -2620643.74049  -2019830.47845  23961420.820    23961419.850    23961431.420
       218.000         156.000
  -3359122.19449  -2600910.65946  22604213.810    22604213.229    22604223.959
       224.000         172.000
    893817.30649    690891.64847  20966417.459    20966416.191    20966423.309
       244.000         209.000
  -1822223.16849  -1410740.20947  21231606.528    21231605.840    21231613.137
       242.000         205.000
 00  5  8 15 42 59.9990000  0  7G 2G26G 4G 5G24G 7G 9
    864494.11749    668383.01747  21789700.781    21789699.531    21789707.990
       235.000         196.000
   1790761.66849   1387609.66845  24244441.432    24244440.852    24244451.884
       218.000         158.000
  -2231844.80849  -1728160.62647  20497690.852    20497690.531    20497698.684
       242.000         207.000
  -2719981.02449  -2097236.09345  23942517.604    23942516.588    23942528.105
       220.000         157.000
  -3476263.01349  -2692189.12846  22581922.569    22581922.032    22581932.715
       224.000         172.000
    928758.44249    718118.46847  20973066.616    20973065.333    20973072.460
       244.000         209.000
  -1880812.91549  -1456394.55347  21220457.263    21220456.596    21220463.907
       242.000         206.000
 00  5  8 15 43 29.9990000  0  7G 2G26G 4G 5G24G 7G 9
    898397.78449    694801.35047  21796152.571    21796151.264    21796159.727
       235.000         196.000
   1853919.22749   1436823.30246  24256460.263    24256459.531    24256470.540
       218.000         164.000
  -2301914.01649  -1782759.96847  20484357.151    20484356.837    20484364.954
       242.000         207.000
  -2819292.43049  -2174621.51445  23923619.215    23923618.247    23923629.725
       221.000         156.000
  -3593181.14949  -2783294.09246  22559673.705    22559673.198    22559683.865
       226.000         174.000
    963926.16649    745521.85947  20979758.903    20979757.612    20979764.702
       244.000         209.000
  -1938858.91149  -1501625.19047  21209411.523    21209410.833    21209418.166
       243.000         207.000
 00  5  8 15 43 59.9990000  0  7G 2G26G 4G 5G24G 7G 9
    932627.35249    721473.62847  21802666.373    21802665.057    21802673.480
       235.000         196.000
   1917174.57749   1486113.06545  24268497.206    24268496.597    24268507.625
       217.000         152.000
  -2371398.95649  -1836904.04147  20471134.580    20471134.284    20471142.391
       241.000         206.000
  -2918557.86549  -2251971.14045  23904729.681    23904728.687    23904740.100
       223.000         158.000
  -3709854.75749  -2874208.51346  22537471.410    22537470.919    22537481.506
       224.000         173.000
    999338.39549    773115.77147  20986497.706    20986496.401    20986503.465
       245.000         209.000
  -1996340.35449  -1546415.92847  21198473.233    21198472.507    21198479.828
       242.000         207.000
 00  5  8 15 44 29.9990000  0  7G 2G26G 4G 5G24G 7G 9
    967157.70049    748380.28547  21809237.380    21809236.071    21809244.498
       236.000         196.000
   1980498.81849   1535456.64045  24280547.536    24280546.908    24280557.783
       219.000         159.000
  -2440323.05849  -1890611.08947  20458018.741    20458018.445    20458026.544
       241.000         206.000
  -3017802.25049  -2329304.32545  23885844.109    23885843.104    23885854.428
       222.000         156.000
  -3826306.54049  -2964950.09146  22515311.309    22515310.834    22515321.356
       226.000         173.000
   1034968.10249    800879.14747  20993277.888    20993276.571    20993283.627
       243.000         209.000
  -2053281.31249  -1590785.50047  21187637.781    21187637.040    21187644.347
       243.000         208.000
 00  5  8 15 44 59.9990000  0  7G 2G26G 4G 5G24G 7G 9
   1001958.74549    775497.87247  21815859.945    21815858.584    21815867.023
       235.000         196.000
   2043858.87549   1584827.99445  24292604.470    24292603.919    24292615.109
       215.000         161.000
  -2508714.94249  -1943903.42047  20445004.141    20445003.866    20445011.996
       240.000         205.000
  -3117055.27949  -2406644.27045  23866956.945    23866955.881    23866967.136
       220.000         155.000
  -3942564.05649  -3055540.29746  22493188.168    22493187.711    22493198.205
       227.000         173.000
   1070783.58449    828787.27547  21000093.404    21000092.095    21000099.162
       243.000         209.000
  -2109710.25549  -1634756.09247  21176899.725    21176899.008    21176906.310
       243.000         208.000
 00  5  8 15 45 29.9980000  0  7G 2G26G 4G 5G24G 7G 9
   1037115.70049    802892.80147  21822550.202    21822548.836    21822557.261
       235.000         196.000
   2107336.04749   1634290.63145  24304683.665    24304683.200    24304694.464
       217.000         149.000
  -2576484.01149  -1996710.44247  20432108.092    20432107.818    20432115.947
       241.000         205.000
  -3216226.60749  -2483920.56445  23848085.246    23848084.164    23848095.314
       217.000         154.000
  -4058534.65049  -3145906.92846  22471119.736    22471119.214    22471129.642
       227.000         175.000
   1106868.25349    856905.15947  21006960.127    21006958.820    21006965.935
       243.000         209.000
  -2165537.64849  -1678257.94447  21166276.142    21166275.424    21166282.731
       243.000         208.000
 00  5  8 15 45 59.9980000  0  7G 2G26G 4G 5G24G 7G 9
   1072587.01549    830532.67047  21829300.286    21829298.905    21829307.344
       236.000         196.000
   2170887.38849   1683811.21445  24316777.309    24316776.705    24316787.806
       212.000         158.000
  -2643677.27449  -2049068.78847  20419321.597    20419321.334    20419329.450
       241.000         206.000
  -3315366.57249  -2561172.41145  23829219.416    23829218.369    23829229.460
       220.000         156.000
  -4174267.39949  -3236088.23146  22449096.508    22449095.970    22449106.353
       228.000         175.000
   1143179.08049    885199.26947  21013869.876    21013868.584    21013875.730
       243.000         209.000
  -2220809.64149  -1721327.01747  21155758.230    21155757.522    21155764.848
       243.000         209.000
 00  5  8 15 46 29.9980000  0  7G 2G26G 4G 5G24G 7G 9
   1108357.90649    858405.98247  21836107.348    21836105.971    21836114.426
       234.000         195.000
   2234494.10549   1733374.72546  24328881.445    24328880.767    24328892.127
       217.000         166.000
  -2710304.41749  -2100985.99647  20406642.859    20406642.615    20406650.680
       241.000         205.000
  -3414485.25849  -2638407.67445  23810357.667    23810356.680    23810367.749
       219.000         156.000
  -4289769.71349  -3326089.99446  22427117.048    22427116.574    22427126.942
       227.000         175.000
   1179699.30649    913656.55547  21020819.470    21020818.183    21020825.372
       242.000         209.000
  -2275536.99349  -1763971.69447  21145343.936    21145343.265    21145350.606
       243.000         209.000
 00  5  8 15 46 59.9980000  0  7G 2G26G 4G 5G24G 7G 9
   1144446.34349    886526.74447  21842974.800    21842973.457    21842981.943
       235.000         195.000
   2298170.71949   1782992.88845  24340998.562    24340997.931    24341009.312
       213.000         140.000
  -2776345.76649  -2152446.75347  20394075.650    20394075.374    20394083.363
       242.000         206.000
  -3513564.18549  -2715611.95445  23791503.494    23791502.544    23791513.641
       219.000         156.000
  -4405021.39649  -3415896.46546  22405185.354    22405184.848    22405195.234
       227.000         175.000
   1216445.08749    942289.59347  21027811.955    21027810.705    21027817.943
       243.000         209.000
  -2329700.79549  -1806177.24647  21135036.940    21135036.272    21135043.578
       244.000         209.000
 00  5  8 15 47 29.9980000  0  7G 2G26G 4G 5G24G 7G 9
   1180838.06049    914883.82147  21849900.005    21849898.679    21849907.169
       233.000         195.000
   2361899.95449   1832651.97646  24353125.924    24353125.294    24353136.833
       216.000         165.000
  -2841814.43349  -2203461.26747  20381617.373    20381617.089    20381625.016
       241.000         206.000
  -3612616.97449  -2792795.89245  23772654.325    23772653.395    23772664.452
       218.000         155.000
  -4520034.21649  -3505516.81746  22383299.072    22383298.587    22383309.002
       228.000         176.000
   1253400.57749    971086.03447  21034844.375    21034843.131    21034850.416
       242.000         209.000
  -2383314.02549  -1847953.77847  21124834.688    21124834.005    21124841.323
       244.000         209.000
 00  5  8 15 47 59.9980000  0  7G 2G26G 4G 5G24G 7G 9
   1217538.16249    943481.19847  21856883.932    21856882.572    21856891.074
       235.000         195.000
   2425683.67449   1882353.36745  24365263.437    24365262.866    24365274.635
       213.000         149.000
  -2906703.65549  -2254024.25347  20369269.317    20369269.078    20369276.937
       242.000         206.000
  -3711638.40849  -2869955.36145  23753811.031    23753810.115    23753821.242
       215.000         156.000
  -4634800.57249  -3594945.12946  22361459.673    22361459.247    22361469.677
       228.000         177.000
   1290569.16549   1000048.53147  21041917.369    21041916.126    21041923.423
       242.000         208.000
  -2436370.11649  -1889296.17447  21114738.513    21114737.805    21114745.072
       243.000         209.000
 00  5  8 15 48 29.9980000  0  7G 2G26G 4G 5G24G 7G 9
   1254540.36549    972313.97047  21863925.252    21863923.934    21863932.453
       233.000         195.000
   2489512.10349   1932089.95445  24377410.029    24377409.307    24377420.676
       214.000         157.000
  -2971018.22449  -2304139.45747  20357030.680    20357030.404    20357038.252
       242.000         207.000
  -3810634.26649  -2947094.89045  23734972.629    23734971.739    23734982.927
       220.000         158.000
  -4749324.53349  -3684184.55846  22339666.466    22339666.028    22339676.484
       228.000         178.000
   1327942.69149   1029170.72347  21049029.370    21049028.110    21049035.386
       243.000         208.000
  -2488874.26049  -1930208.48747  21104747.328    21104746.616    21104753.840
       244.000         209.000
 00  5  8 15 48 59.9980000  0  7G 2G26G 4G 5G24G 7G 9
   1291870.62949   1001402.37747  21871029.067    21871027.712    21871036.286
       233.000         195.000
   2553408.74649   1981879.34745  24389568.952    24389568.386    24389580.000
       214.000         158.000
  -3034730.59049  -2353785.42247  20344906.582    20344906.327    20344914.178
       242.000         207.000
  -3909577.85849  -3024193.70445  23716144.253    23716143.375    23716154.561
       219.000         159.000
  -4863577.43549  -3773212.77546  22317924.902    22317924.416    22317934.909
       228.000         178.000
   1365545.52449   1058471.59947  21056184.972    21056183.732    21056190.999
       242.000         208.000
  -2540799.42449  -1970669.64547  21094866.266    21094865.588    21094872.828
       244.000         209.000
 00  5  8 15 49 29.9980000  0  7G 2G26G 4G 5G24G 7G 9
   1329480.56549   1030708.71447  21878186.004    21878184.717    21878193.366
       234.000         194.000
   2617321.79049   2031681.76045  24401731.501    24401730.849    24401742.097
       217.000         150.000
  -3097887.52249  -2402998.57947  20332888.235    20332887.964    20332895.816
       243.000         207.000
  -4008517.06049  -3101289.13045  23697316.661    23697315.823    23697326.984
       216.000         156.000
  -4977605.02449  -3862065.42646  22296226.318    22296225.686    22296236.172
       230.000         178.000
   1403327.86549   1087912.35447  21063374.765    21063373.517    21063380.763
       242.000         208.000
  -2592192.67149  -2010716.32347  21085086.465    21085085.777    21085093.029
       244.000         209.000
 00  5  8 15 49 59.9980000  0  7G 2G26G 4G 5G24G 7G 9
   1367407.38749   1060261.97647  21885403.476    21885402.074    21885410.721
       234.000         195.000
   2681285.23749   2081523.31545  24413903.166    24413902.609    24413913.967
       216.000         160.000
  -3160450.61849  -2451749.01847  20320982.900    20320982.607    20320990.447
       243.000         208.000
  -4107414.54549  -3178351.99645  23678496.973    23678496.192    23678507.421
       218.000         158.000
  -5091368.20349  -3950712.05346  22274577.942    22274577.258    22274587.767
       229.000         179.000
   1441324.83149   1117520.34547  21070605.374    21070604.146    21070611.397
       242.000         208.000
  -2643015.71749  -2050318.69247  21075415.120    21075414.459    21075421.732
       244.000         208.000
 00  5  8 15 50 29.9980000  0  7G 2G26G 4G 5G24G 7G 9
   1405638.16749   1090052.09847  21892678.615    21892677.236    21892685.890
       234.000         194.000
   2745283.18349   2131391.82545  24426081.643    24426081.115    24426092.479
       214.000         151.000
  -3222431.19649  -2500045.55047  20309188.410    20309188.118    20309195.906
       242.000         208.000
  -4206282.61149  -3255391.97945  23659682.955    23659682.138    23659693.395
       219.000         160.000
  -5204877.11749  -4039160.53546  22252977.789    22252977.230    22252987.742
       228.000         179.000
   1479522.18349   1147284.47847  21077874.070    21077872.870    21077880.170
       242.000         208.000
  -2693280.37349  -2089485.95347  21065850.053    21065849.402    21065856.703
       243.000         208.000
 00  5  8 15 50 59.9980000  0  7G 2G26G 4G 5G24G 7G 9
   1444168.32049   1120075.48947  21900010.788    21900009.386    21900018.009
       234.000         193.000
   2809308.01349   2181281.26845  24438265.111    24438264.616    24438276.091
       212.000         158.000
  -3283832.32349  -2547890.56947  20297504.148    20297503.867    20297511.621
       242.000         207.000
  -4305125.33049  -3332412.22545  23640873.697    23640872.898    23640884.197
       218.000         158.000
  -5318133.98049  -4127412.62946  22231425.644    22231425.141    22231435.689
       230.000         180.000
   1517913.60949   1177199.83047  21085179.696    21085178.520    21085185.889
       241.000         207.000
  -2742989.95849  -2128220.69847  21056390.625    21056389.991    21056397.306
       243.000         208.000
 00  5  8 15 51 29.9980000  0  8G 2G26G 4G 5G24G 7G 9G16
   1483004.07549   1150337.03147  21907400.990    21907399.668    21907408.284
       233.000         194.000
   2873362.95949   2231194.12545  24450454.521    24450453.997    24450465.546
       215.000         158.000
  -3344646.22649  -2595277.99947  20285931.631    20285931.340    20285939.064
       242.000         207.000
  -4403935.74049  -3409407.28045  23622070.651    23622069.815    23622081.124
       218.000         158.000
  -5431129.90449  -4215461.38246  22209923.176    22209922.703    22209933.305
       229.000         181.000
   1556503.88049   1207270.13947  21092523.177    21092522.026    21092529.462
       241.000         208.000
  -2792137.06249  -2166517.13847  21047038.233    21047037.584    21047044.920
       243.000         208.000
  -2755954.31559  -2121444.12155  24699833.419    24699832.255    24699846.932
       209.000         133.000
 00  5  8 15 51 59.9980000  0  8G 2G26G 4G 5G24G 7G 9G16
   1522166.52649   1180853.13847  21914853.462    21914852.116    21914860.745
       234.000         194.000
   2937465.86249   2281144.46045  24462653.071    24462652.492    24462663.883
       217.000         152.000
  -3404850.57149  -2642190.46347  20274475.061    20274474.797    20274482.528
       241.000         207.000
  -4502692.28349  -3486360.35945  23603277.850    23603277.034    23603288.338
       215.000         159.000
  -5543841.54049  -4303288.62246  22188474.807    22188474.361    22188485.041
       229.000         180.000
   1595312.28349   1237510.40847  21099908.220    21099907.053    21099914.521
       242.000         207.000
  -2840699.50749  -2204358.01147  21037797.086    21037796.441    21037803.780
       243.000         208.000
  -2823971.75149  -2174444.61745  24686889.556    24686888.628    24686903.388
       203.000         148.000
 00  5  8 15 52 29.9980000  0  8G 2G26G 4G 5G24G 7G 9G16
   1561642.26249   1211613.36447  21922365.522    21922364.195    21922372.898
       233.000         193.000
   3001600.54749   2331119.48645  24474857.587    24474856.978    24474868.514
       211.000         154.000
  -3464457.13949  -2688637.12647  20263132.192    20263132.006    20263139.746
       241.000         207.000
  -4601407.69949  -3563281.36445  23584492.790    23584492.048    23584503.389
       214.000         158.000
  -5656279.64749  -4390902.70446  22167078.519    22167078.088    22167088.823
       228.000         182.000
   1634323.94249   1267909.06447  21107331.937    21107330.757    21107338.247
       241.000         207.000
  -2888689.64249  -2241752.93147  21028664.905    21028664.248    21028671.549
       243.000         209.000
  -2891681.79249  -2227205.47546  24674004.784    24674003.835    24674019.047
       216.000         164.000
 00  5  8 15 52 59.9980000  0  8G 2G26G 4G 5G24G 7G 9G16
   1601439.34549   1242623.98647  21929938.851    21929937.431    21929946.181
       235.000         193.000
   3065771.94049   2381123.10445  24487068.864    24487068.382    24487079.965
       213.000         150.000
  -3523456.65749  -2734610.76347  20251904.900    20251904.748    20251912.490
       241.000         207.000
  -4700073.32349  -3640163.59245  23565717.320    23565716.476    23565727.897
       219.000         160.000
  -5768433.62449  -4478295.38946  22145736.315    22145735.872    22145746.626
       228.000         182.000
   1673545.49349   1298471.27347  21114795.587    21114794.400    21114801.889
       241.000         207.000
  -2936098.29349  -2278694.73947  21019643.303    21019642.690    21019649.985
       243.000         209.000
  -2959073.79349  -2279718.55345  24661180.522    24661179.598    24661195.090
       212.000         150.000
 00  5  8 15 53 29.9980000  0  8G 2G26G 4G 5G24G 7G 9G16
   1641568.38049   1273893.27147  21937575.124    21937573.792    21937582.614
       233.000         192.000
   3129987.61349   2431161.23945  24499288.659    24499288.193    24499299.956
       211.000         156.000
  -3581837.10949  -2780102.01247  20240795.433    20240795.282    20240803.033
       241.000         207.000
  -4798678.19049  -3716998.46145  23546953.409    23546952.591    23546963.979
       221.000         161.000
  -5880290.60149  -4565456.64646  22124450.653    22124450.173    22124460.932
       229.000         182.000
   1712985.85849   1329203.98847  21122300.832    21122299.676    21122307.178
       241.000         207.000
  -2982913.74349  -2315174.31547  21010734.654    21010734.024    21010741.345
       244.000         210.000
  -3026134.48549  -2331973.74145  24648419.305    24648418.373    24648433.230
       209.000         132.000
 00  5  8 15 53 59.9980000  0  8G 2G26G 4G 5G24G 7G 9G16
   1681996.87249   1305395.89847  21945268.485    21945267.153    21945276.011
       233.000         192.000
   3194212.12549   2481206.28045  24511510.289    24511509.802    24511521.480
       215.000         153.000
  -3639629.53949  -2825135.05347  20229797.916    20229797.727    20229805.517
       242.000         207.000
  -4897253.76749  -3793810.51345  23528195.145    23528194.267    23528205.598
       220.000         162.000
  -5991880.52049  -4652409.78946  22103215.820    22103215.341    22103226.064
       229.000         183.000
   1752610.86749   1360080.57547  21129841.255    21129840.083    21129847.634
       240.000         207.000
  -3029167.29949  -2351216.05747  21001932.901    21001932.278    21001939.622
       243.000         210.000
  -3092893.76449  -2383993.89045  24635715.156    24635714.422    24635729.285
       204.000         149.000
 00  5  8 15 54 29.9980000  0  8G 2G26G 4G 5G24G 7G 9G16
   1722730.24049   1337136.08547  21953019.768    21953018.500    21953027.415
       231.000         191.000
   3258447.79349   2531260.03245  24523734.133    24523733.577    24523745.210
       209.000         151.000
  -3696827.36249  -2869704.76147  20218913.544    20218913.332    20218921.135
       241.000         207.000
  -4995794.20149  -3870595.19745  23509443.524    23509442.612    23509453.895
       221.000         162.000
  -6103195.64549  -4739148.81146  22082033.220    22082032.770    22082043.460
       230.000         184.000
   1792424.53749   1391104.17047  21137417.578    21137416.399    21137423.988
       241.000         207.000
  -3074852.77649  -2386815.13947  20993239.296    20993238.638    20993245.980
       244.000         210.000
  -3159343.79149  -2435772.87245  24623069.787    24623069.045    24623084.510
       208.000         150.000
 00  5  8 15 54 59.9980000  0  8G 2G26G 4G 5G24G 7G 9G16
   1763756.78649   1369104.71847  21960826.904    21960825.651    21960834.614
       232.000         191.000
   3322679.79349   2581310.81445  24535957.093    24535956.504    24535968.403
       215.000         162.000
  -3753440.91449  -2913819.19747  20208140.304    20208140.110    20208147.932
       240.000         207.000
  -5094310.54649  -3947361.09645  23490696.355    23490695.542    23490706.744
       219.000         160.000
  -6214245.08049  -4825680.78846  22060901.316    22060900.802    22060911.377
       231.000         184.000
   1832413.56349   1422264.40447  21145027.225    21145026.072    21145033.708
       240.000         207.000
  -3119980.76549  -2421979.81647  20984651.770    20984651.080    20984658.430
       244.000         210.000
  -3225493.52849  -2487318.01345  24610482.186    24610481.356    24610496.704
       220.000         161.000
 00  5  8 15 55 29.9980000  0  8G 2G26G 4G 5G24G 7G 9G16
   1805080.71649   1401305.08747  21968690.607    21968689.374    21968698.400
       231.000         191.000
   3386909.43049   2631359.85545  24548179.702    24548179.055    24548190.915
       213.000         140.000
  -3809464.92249  -2957474.24747  20197479.211    20197479.033    20197486.899
       241.000         207.000
  -5192798.27449  -4024104.70245  23471954.758    23471953.900    23471965.006
       221.000         161.000
  -6325022.31949  -4912000.66046  22039821.161    22039820.597    22039831.078
       230.000         184.000
   1872580.48249   1453563.25647  21152670.754    21152669.606    21152677.257
       240.000         207.000
  -3164546.29449  -2456706.21047  20976171.227    20976170.532    20976177.908
       244.000         210.000
  -3291336.29749  -2538624.09145  24597953.112    24597952.098    24597966.979
       212.000         147.000
 00  5  8 15 55 59.9980000  0  8G 2G26G 4G 5G24G 7G 9G16
   1846720.75649   1433751.77947  21976614.538    21976613.281    21976622.318
       232.000         191.000
   3451152.34249   2681419.22245  24560404.714    24560404.079    24560415.780
       218.000         153.000
  -3864879.32449  -3000654.27147  20186934.227    20186934.013    20186941.844
       241.000         207.000
  -5291237.61349  -4100810.60745  23453222.361    23453221.496    23453232.505
       220.000         162.000
  -6435506.13449  -4998091.88246  22018796.894    22018796.250    22018806.601
       231.000         185.000
   1912942.61649   1485014.23247  21160351.454    21160350.292    21160357.938
       240.000         206.000
  -3208529.30949  -2490978.69347  20967801.503    20967800.840    20967808.256
       244.000         210.000
  -3356850.97249  -2589674.32845  24585485.514    24585484.819    24585499.695
       201.000         144.000
 00  5  8 15 56 29.9980000  0  8G 2G26G 4G 5G24G 7G 9G16
   1888703.43049   1466465.44647  21984603.701    21984602.421    21984611.490
       232.000         192.000
   3515432.31049   2731507.42745  24572636.797    24572636.235    24572647.922
       207.000         148.000
  -3919656.06249  -3043337.41147  20176510.519    20176510.330    20176518.131
       240.000         207.000
  -5389601.37949  -4177457.64046  23434504.383    23434503.488    23434514.414
       221.000         164.000
  -6545667.28149  -5083931.68146  21997833.998    21997833.286    21997843.533
       231.000         185.000
   1953525.16149   1516636.95647  21168074.115    21168072.938    21168080.568
       241.000         206.000
  -3251902.06349  -2524775.65447  20959547.947    20959547.302    20959554.716
       244.000         210.000
  -3422007.68649  -2640445.73745  24573086.554    24573085.753    24573100.536
       217.000         149.000
 00  5  8 15 56 59.9980000  0  8G 2G26G 4G 5G24G 7G 9G16
   1930993.73549   1499418.83347  21992651.397    21992650.078    21992659.164
       232.000         191.000
   3579711.44349   2781595.00945  24584868.669    24584868.137    24584879.833
       217.000         151.000
  -3973828.79649  -3085549.89747  20166201.803    20166201.589    20166209.380
       241.000         207.000
  -5487924.11649  -4254072.67745  23415794.181    23415793.259    23415804.186
       219.000         162.000
  -6655538.51149  -5169545.54946  21976926.220    21976925.486    21976935.655
       231.000         185.000
   1994291.60949   1548402.97347  21175831.749    21175830.573    21175838.204
       240.000         206.000
  -3294698.77049  -2558123.74947  20951404.013    20951403.368    20951410.786
       244.000         210.000
  -3486839.15449  -2690963.78545  24560749.851    24560748.930    24560763.414
       215.000         161.000
 00  5  8 15 57 29.9980000  0  8G 2G26G 4G 5G24G 7G 9G16
   1973569.10449   1532594.35147  22000753.270    22000751.963    22000761.041
       231.000         190.000
   3643964.42649   2831662.20645  24597095.673    24597095.129    24597106.767
       210.000         147.000
  -4027419.02949  -3127308.49347  20156003.862    20156003.665    20156011.509
       240.000         207.000
  -5586227.60149  -4330672.74845  23397087.524    23397086.656    23397097.551
       219.000         161.000
  -6765139.53449  -5254948.87146  21956069.801    21956069.093    21956079.213
       232.000         185.000
   2035217.96649   1580293.60147  21183619.821    21183618.626    21183626.261
       240.000         206.000
  -3336940.90349  -2591039.69847  20943365.550    20943364.941    20943372.383
       244.000         210.000
  -3551365.26549  -2741243.72145  24548471.175    24548470.127    24548484.774
       208.000         158.000
 00  5  8 15 57 59.9980000  0  8G 2G26G 4G 5G24G 7G 9G16
   2016476.53949   1566028.61247  22008918.354    22008917.056    22008926.109
       231.000         189.000
   3708235.26649   2881743.29945  24609325.990    24609325.442    24609336.998
       214.000         147.000
  -4080378.38249  -3168575.50247  20145926.041    20145925.833    20145933.687
       241.000         208.000
  -5684463.65449  -4407220.23145  23378393.742    23378392.911    23378403.825
       220.000         160.000
  -6874420.86849  -5340103.08146  21935274.196    21935273.539    21935283.626
       232.000         186.000
   2076350.00849   1612344.49647  21191447.025    21191445.824    21191453.496
       240.000         206.000
  -3378580.31949  -2623486.00747  20935441.873    20935441.251    20935448.668
       244.000         210.000
  -3615536.11348  -2791246.80745  24536259.291    24536258.525    24536273.466
       194.000         135.000
 00  5  8 15 58 29.9980000  0  8G 2G26G 4G 5G24G 7G 9G16
   2059682.87149   1599695.77147  22017140.270    22017139.021    22017148.081
       231.000         191.000
   3772487.94649   2931810.32845  24621552.939    24621552.346    24621563.701
       213.000         146.000
  -4132738.89149  -3209375.87047  20135962.232    20135961.980    20135969.810
       241.000         208.000
  -5782664.97349  -4483740.69245  23359706.593    23359705.750    23359716.627
       220.000         162.000
  -6983413.39549  -5425032.24246  21914533.565    21914532.936    21914543.013
       231.000         186.000
   2117652.91949   1644528.53047  21199306.740    21199305.534    21199313.245
       240.000         206.000
  -3419649.50749  -2655487.97847  20927626.696    20927626.045    20927633.469
       244.000         210.000
  -3679382.54849  -2840997.38544  24524109.442    24524108.771    24524123.131
       216.000         131.000
 00  5  8 15 58 59.9980000  0  8G 2G26G 4G 5G24G 7G 9G16
   2103176.54949   1633586.83047  22025416.954    22025415.676    22025424.769
       232.000         191.000
   3836707.98449   2981851.77745  24633773.704    24633773.088    24633784.601
       216.000         155.000
  -4184510.69749  -3249717.49947  20126110.403    20126110.136    20126117.923
       242.000         208.000
  -5880842.23149  -4560242.35846  23341024.037    23341023.195    23341034.094
       222.000         164.000
  -7092126.06349  -5509743.33546  21893846.196    21893845.576    21893855.631
       232.000         187.000
   2159113.86649   1676835.71547  21207196.558    21207195.351    21207203.072
       240.000         206.000
  -3460159.09849  -2687053.89347  20919918.003    20919917.351    20919924.770
       244.000         210.000
  -3742913.18249  -2890501.80145  24512020.295    24512019.456    24512033.445
       211.000         151.000
 00  5  8 15 59 29.9980000  0  8G 2G26G 4G 5G24G 7G 9G16
   2146938.05749   1667686.60247  22033744.676    22033743.326    22033752.451
       231.000         191.000
   3900873.12049   3031850.58645  24645984.126    24645983.452    24645994.879
       214.000         142.000
  -4235712.26749  -3289614.78647  20116367.071    20116366.796    20116374.559
       241.000         208.000
  -5979014.09949  -4636739.84446  23322342.553    23322341.694    23322352.544
       221.000         163.000
  -7200575.80349  -5594249.54146  21873208.836    21873208.237    21873218.300
       233.000         186.000
   2200711.91749   1709249.73947  21215112.496    21215111.258    21215118.982
       241.000         206.000
  -3500127.38649  -2718198.01447  20912312.317    20912311.655    20912319.032
       245.000         210.000
  -3806145.08249  -2939773.36545  24499987.593    24499986.703    24500001.071
       211.000         154.000
 00  5  8 15 59 59.9980000  0  8G 2G26G 4G 5G24G 7G 9G16
   2190991.92949   1702014.17847  22042127.923    22042126.565    22042135.808
       231.000         191.000
   3965005.08849   3081823.51045  24658187.964    24658187.391    24658198.828
       210.000         144.000
  -4286317.97549  -3329047.77847  20106737.124    20106736.867    20106744.623
       242.000         208.000
  -6077155.00449  -4713213.20945  23303666.839    23303666.038    23303676.874
       221.000         161.000
  -7308735.56349  -5678529.79246  21852626.655    21852626.080    21852636.134
       233.000         186.000
   2242470.06849   1741788.50647  21223058.828    21223057.614    21223065.337
       241.000         205.000
  -3539529.07349  -2748900.63647  20904814.466    20904813.799    20904821.129
       245.000         210.000
  -3869051.18549  -2988791.02045  24488016.673    24488015.902    24488030.660
       206.000         146.000
 00  5  8 16  0 29.9980000  0  8G 2G26G 4G 5G24G 7G 9G16
   2235356.98549   1736584.23947  22050570.317    22050569.009    22050578.404
       231.000         191.000
   4029119.53749   3131782.75845  24670388.582    24670388.061    24670399.531
       217.000         157.000
  -4336307.95849  -3368000.98447  20097224.413    20097224.115    20097231.839
       242.000         208.000
  -6175245.79049  -4789647.50945  23285000.655    23284999.911    23285010.702
       219.000         161.000
  -7416584.33649  -5762567.71546  21832103.593    21832103.090    21832113.158
       232.000         186.000
   2284405.86149   1774465.69447  21231039.016    21231037.773    21231045.499
       240.000         205.000
  -3578344.70349  -2779146.58447  20897428.108    20897427.440    20897434.759
       245.000         210.000
  -3931610.09149  -3037538.15845  24476112.113    24476111.281    24476126.160
       210.000         148.000
 00  5  8 16  0 59.9980000  0  8G 2G26G 4G 5G24G 7G 9G16
   2280028.41449   1771393.03047  22059071.045    22059069.764    22059079.271
       231.000         191.000
   4093209.07149   3181722.54845  24682584.493    24682583.963    24682595.462
       210.000         140.000
  -4385685.81149  -3406477.22047  20087828.109    20087827.823    20087835.523
       241.000         207.000
  -6273290.33249  -4866045.77746  23266343.340    23266342.543    23266353.382
       222.000         164.000
  -7524124.21849  -5846364.95046  21811639.359    21811638.865    21811648.943
       232.000         185.000
   2326513.26449   1807276.60047  21239051.864    21239050.601    21239058.311
       240.000         205.000
  -3616577.98549  -2808938.76247  20890152.554    20890151.900    20890159.212
       245.000         210.000
  -3993823.70549  -3086016.37545  24464273.544    24464272.553    24464286.947
       213.000         138.000
 00  5  8 16  1 29.9980000  0  8G 2G26G 4G 5G24G 7G 9G16
   2325042.01049   1806468.43447  22067636.959    22067635.656    22067645.203
       231.000         190.000
   4157306.69949   3231668.79845  24694781.967    24694781.418    24694792.878
       216.000         156.000
  -4434414.61249  -3444447.69147  20078555.302    20078555.036    20078562.675
       241.000         206.000
  -6371251.61149  -4942379.15246  23247701.840    23247701.102    23247711.864
       220.000         163.000
  -7631316.87649  -5929891.62146  21791241.232    21791240.732    21791250.825
       233.000         187.000
   2368826.67949   1840248.04147  21247103.843    21247102.625    21247110.331
       240.000         205.000
  -3654192.03549  -2838248.41547  20882994.867    20882994.207    20883001.503
       245.000         210.000
  -4055653.41749  -3134195.49945  24452507.796    24452506.779    24452520.562
       213.000         147.000
 00  5  8 16  1 59.9980000  0  8G 2G26G 4G 5G24G 7G 9G16
   2370336.71949   1841762.87947  22076256.376    22076255.044    22076264.588
       232.000         190.000
   4221348.47349   3281571.34545  24706968.786    24706968.194    24706979.875
       209.000         155.000
  -4482554.34849  -3481959.14947  20069394.592    20069394.318    20069401.913
       241.000         206.000
  -6469190.21949  -5018694.86946  23229064.671    23229063.950    23229074.678
       222.000         163.000
  -7738220.79149  -6013193.29546  21770898.103    21770897.556    21770907.648
       232.000         186.000
   2411283.48449   1873331.21247  21255183.148    21255181.919    21255189.619
       241.000         204.000
  -3691247.23849  -2867122.60347  20875943.505    20875942.842    20875950.132
       246.000         210.000
  -4117158.02649  -3182121.08945  24440803.719    24440802.749    24440816.936
       212.000         155.000
 00  5  8 16  2 29.9980000  0  8G 2G26G 4G 5G24G 7G 9G16
   2415916.44149   1877279.41547  22084930.059    22084928.702    22084938.201
       231.000         189.000
   4285335.57649   3331431.34445  24719145.207    24719144.559    24719156.263
       213.000         143.000
  -4530100.01349  -3519007.68747  20060346.971    20060346.700    20060354.248
       241.000         207.000
  -6567101.29249  -5094989.12245  23210432.761    23210432.069    23210442.722
       222.000         162.000
  -7844829.70449  -6096265.10346  21750611.076    21750610.528    21750620.605
       233.000         187.000
   2453886.55849   1906528.35647  21263290.288    21263289.057    21263296.745
       240.000         204.000
  -3727738.84249  -2895557.62847  20868999.454    20868998.762    20869005.994
       246.000         210.000
  -4178330.89049  -3229788.21045  24429162.944    24429161.956    24429176.426
       209.000         153.000
 00  5  8 16  2 59.9980000  0  8G 2G26G 4G 5G24G 7G 9G16
   2461800.88749   1913033.41147  22093661.676    22093660.304    22093669.827
       231.000         189.000
   4349284.99649   3381262.12345  24731314.304    24731313.745    24731325.451
       202.000         147.000
  -4577030.96449  -3555577.23347  20051416.341    20051416.051    20051423.578
       241.000         208.000
  -6664963.98349  -5171245.70746  23191810.111    23191809.389    23191819.983
       221.000         163.000
  -7951121.33949  -6179089.67747  21730384.360    21730383.860    21730393.905
       233.000         188.000
   2496654.19749   1939853.72747  21271428.726    21271427.514    21271435.186
       240.000         204.000
  -3763646.12349  -2923537.32847  20862166.544    20862165.853    20862173.075
       245.000         210.000
  -4239149.93249  -3277179.73045  24417589.220    24417588.344    24417602.672
       205.000         134.000
 00  5  8 16  3 29.9980000  0  8G 2G26G 4G 5G24G 7G 9G16
   2508020.50949   1949048.59147  22102457.110    22102455.723    22102465.233
       231.000         189.000
   4413224.66849   3431085.02845  24743481.689    24743481.126    24743492.935
       213.000         156.000
  -4623315.43849  -3591643.02947  20042608.708    20042608.399    20042615.919
       242.000         207.000
  -6762746.73649  -5247439.97745  23173202.593    23173201.888    23173212.488
       222.000         162.000
  -8057062.43949  -6261641.11047  21710224.394    21710223.890    21710233.888
       234.000         188.000
   2539615.96649   1973330.36347  21279604.175    21279602.920    21279610.553
       241.000         204.000
  -3798937.70749  -2951037.26847  20855450.785    20855450.106    20855457.274
       245.000         210.000
  -4299581.43249  -3324269.28345  24406089.582    24406088.620    24406102.617
       215.000         151.000
 00  5  8 16  3 59.9980000  0  8G 2G26G 4G 5G24G 7G 9G16
   2554538.59549   1985296.34347  22111309.307    22111307.939    22111317.468
       231.000         189.000
   4477115.00749   3480869.85845  24755639.853    24755639.157    24755650.646
       214.000         142.000
  -4668988.97549  -3627232.77947  20033917.283    20033916.997    20033924.502
       241.000         207.000
  -6860485.41949  -5323599.91946  23154603.545    23154602.751    23154613.333
       222.000         164.000
  -8162687.34049  -6343946.16647  21690124.633    21690124.123    21690134.005
       235.000         189.000
   2582733.75549   2006928.57247  21287809.318    21287808.032    21287815.622
       240.000         203.000
  -3833649.50249  -2978085.42947  20848845.382    20848844.694    20848851.822
       246.000         210.000
  -4359659.70049  -3371083.55545  24394657.602    24394656.369    24394670.260
       215.000         157.000
 00  5  8 16  4 29.9980000  0  8G 2G26G 4G 5G24G 7G 9G16
   2601367.31349   2021786.15147  22120220.641    22120219.260    22120228.799
       231.000         189.000
   4540965.39849   3530623.24545  24767790.252    24767789.618    24767801.211
       210.000         157.000
  -4714038.77249  -3662336.48847  20025344.515    20025344.271    20025351.784
       241.000         207.000
  -6958167.01249  -5399715.34946  23136015.311    23136014.523    23136025.053
       223.000         164.000
  -8267981.39249  -6425993.40547  21670087.952    21670087.340    21670097.093
       236.000         190.000
   2626018.25349   2040656.69447  21296046.144    21296044.874    21296052.416
       241.000         204.000
  -3867768.68549  -3004671.80547  20842352.713    20842352.044    20842359.159
       245.000         210.000
  -4419369.95149  -3417611.00645  24383294.881    24383293.874    24383307.665
       206.000         140.000
 00  5  8 16  4 59.9980000  0  8G 2G26G 4G 5G24G 7G 9G16
   2648516.31349   2058525.53347  22129192.884    22129191.515    22129201.087
       230.000         188.000
   4604782.83749   3580351.00845  24779934.362    24779933.802    24779945.441
       216.000         153.000
  -4758454.22749  -3696945.91447  20016892.493    20016892.275    20016899.759
       240.000         207.000
  -7055780.83149  -5475777.98346  23117439.937    23117439.151    23117449.675
       223.000         164.000
  -8372932.55349  -6507773.46247  21650116.427    21650115.771    21650125.448
       236.000         191.000
   2669477.96149   2074521.34147  21304316.359    21304315.048    21304322.576
       241.000         203.000
  -3901284.73049  -3030788.20747  20835974.816    20835974.148    20835981.281
       245.000         210.000
  -4478700.07549  -3463842.28745  24372004.640    24372003.468    24372017.421
       204.000         149.000
 00  5  8 16  5 29.9980000  0  8G 2G26G 4G 5G24G 7G 9G16
   2695974.55449   2095505.87847  22138223.999    22138222.617    22138232.193
       230.000         188.000
   4668553.67349   3630042.58145  24792069.427    24792068.932    24792080.524
       214.000         149.000
  -4802245.04849  -3731068.61947  20008559.336    20008559.137    20008566.626
       241.000         207.000
  -7153337.01649  -5551795.69146  23098875.555    23098874.759    23098885.246
       224.000         166.000
  -8477549.07349  -6589292.75847  21630208.521    21630207.879    21630217.520
       236.000         191.000
   2713100.61449   2108512.96247  21312617.480    21312616.208    21312623.733
       240.000         203.000
  -3934207.88949  -3056442.62147  20829709.789    20829709.104    20829716.240
       245.000         210.000
  -4537658.36949  -3509783.77245  24360785.126    24360784.062    24360798.303
       210.000         152.000
 00  5  8 16  5 59.9980000  0  8G 2G26G 4G 5G24G 7G 9G16
   2743745.25749   2132729.70046  22147314.510    22147313.158    22147322.766
       230.000         187.000
   4732278.37549   3679698.14545  24804196.008    24804195.442    24804207.110
       211.000         155.000
  -4845407.22349  -3764701.46147  20000345.861    20000345.642    20000353.128
       241.000         207.000
  -7250831.38349  -5627765.24646  23080322.982    23080322.149    23080332.629
       224.000         166.000
  -8581825.26849  -6670546.86847  21610365.354    21610364.742    21610374.344
       236.000         192.000
   2756888.38149   2142633.23447  21320950.001    21320948.770    21320956.348
       239.000         203.000
  -3966534.21649  -3081631.97147  20823558.270    20823557.604    20823564.778
       245.000         210.000
  -4596238.86949  -3555430.96145  24349637.792    24349636.641    24349650.752
       211.000         146.000
 00  5  8 16  6 29.9980000  0  8G 2G26G 4G 5G24G 7G 9G16
   2791828.97249   2170197.42247  22156464.651    22156463.286    22156472.901
       231.000         188.000
   4795955.13849   3729316.24445  24816313.213    24816312.758    24816324.609
       210.000         147.000
  -4887939.31249  -3797843.33247  19992252.326    19992252.052    19992259.499
       242.000         208.000
  -7348262.13149  -5703685.24246  23061782.501    23061781.692    23061792.116
       224.000         167.000
  -8685758.11649  -6751533.44447  21590587.500    21590586.934    21590596.529
       236.000         192.000
   2800840.59449   2176881.64247  21329313.853    21329312.625    21329320.260
       241.000         203.000
  -3998262.47349  -3106355.30247  20817520.637    20817519.941    20817527.109
       245.000         210.000
  -4654438.54549  -3600781.40645  24338562.656    24338561.524    24338575.596
       201.000         142.000
 00  5  8 16  6 59.9980000  0  8G 2G26G 4G 5G24G 7G 9G16
   2840231.13649   2207913.28346  22165675.350    22165673.985    22165683.649
       230.000         187.000
   4859586.23749   3778898.93245  24828422.089    24828421.524    24828433.177
       209.000         148.000
  -4929835.00249  -3830489.31047  19984279.835    19984279.567    19984286.979
       241.000         208.000
  -7445622.92449  -5779550.70446  23043255.313    23043254.478    23043264.954
       223.000         166.000
  -8789339.64949  -6832246.25247  21570876.545    21570875.990    21570885.576
       236.000         192.000
   2844961.39249   2211261.42047  21337709.781    21337708.571    21337716.278
       240.000         204.000
  -4029386.44149  -3130607.74947  20811597.894    20811597.226    20811604.392
       245.000         210.000
  -4712249.33849  -3645828.70245  24327561.014    24327560.143    24327574.581
       205.000         143.000
 00  5  8 16  7 29.9980000  0  8G 2G26G 4G 5G24G 7G 9G16
   2888952.39849   2245877.78946  22174946.659    22174945.365    22174955.101
       230.000         186.000
   4923170.21749   3828444.79845  24840521.924    24840521.274    24840532.869
       208.000         147.000
  -4971092.52649  -3862638.01747  19976428.776    19976428.507    19976435.922
       241.000         208.000
  -7542911.98049  -5855360.27646  23024741.763    23024740.920    23024751.408
       223.000         168.000
  -8892566.65549  -6912682.81247  21551233.054    21551232.507    21551242.060
       236.000         192.000
   2889250.46649   2245772.32247  21346137.766    21346136.552    21346144.291
       241.000         204.000
  -4059904.63149  -3154388.16147  20805790.407    20805789.798    20805796.988
       245.000         210.000
  -4769667.85749  -3690570.28945  24316634.695    24316633.727    24316648.443
       212.000         155.000
 00  5  8 16  7 59.9980000  0  8G 2G26G 4G 5G24G 7G 9G16
   2937961.82349   2284066.82846  22184272.911    22184271.615    22184281.362
       228.000         186.000
   4986673.23949   3877927.55545  24852606.100    24852605.490    24852616.998
       209.000         140.000
  -5011742.02649  -3894312.94447  19968693.401    19968693.162    19968700.570
       241.000         208.000
  -7640159.28949  -5931137.31546  23006236.067    23006235.286    23006245.823
       223.000         169.000
  -8995467.58549  -6992865.28647  21531651.552    21531651.061    21531660.603
       236.000         192.000
   2933675.68949   2280389.31847  21354591.670    21354590.441    21354598.204
       240.000         204.000
  -4089847.37949  -3177720.17947  20800092.424    20800091.848    20800099.108
       244.000         211.000
  -4826722.53749  -3735028.51245  24305777.962    24305776.830    24305791.157
       216.000         152.000
 00  5  8 16  8 29.9980000  0  8G 2G26G 4G 5G24G 7G 9G16
   2987288.48849   2322503.07146  22193659.598    22193658.285    22193667.990
       230.000         185.000
   5050121.97049   3927368.19945  24864679.985    24864679.436    24864690.685
       205.000         143.000
  -5051753.55449  -3925490.73947  19961079.444    19961079.194    19961086.629
       241.000         208.000
  -7737334.43249  -6006858.11446  22987744.239    22987743.421    22987754.007
       225.000         169.000
  -9098010.69949  -7072768.94047  21512138.195    21512137.708    21512147.221
       235.000         192.000
   2978264.97249   2315134.16047  21363076.809    21363075.564    21363083.340
       240.000         204.000
  -4119184.82049  -3200580.52747  20794509.707    20794509.131    20794516.421
       244.000         211.000
  -4883381.58949  -3779178.34845  24294996.424    24294995.177    24295009.250
       207.000         152.000
 00  5  8 16  8 59.9980000  0  8G 2G26G 4G 5G24G 7G 9G16
   3036917.59349   2361174.96846  22203103.848    22203102.500    22203112.199
       231.000         186.000
   5113499.38549   3976753.04945  24876740.040    24876739.595    24876751.100
       207.000         143.000
  -5091140.81649  -3956182.08247  19953584.291    19953584.036    19953591.478
       241.000         208.000
  -7834450.78049  -6082533.11346  22969263.529    22969262.744    22969273.322
       225.000         170.000
  -9200208.04849  -7152403.17747  21492690.623    21492690.153    21492699.639
       235.000         192.000
   3023002.81649   2349994.75947  21371590.213    21371588.959    21371596.759
       240.000         204.000
  -4147930.74649  -3222979.95747  20789039.525    20789038.950    20789046.289
       244.000         211.000
  -4939657.12349  -3823029.23545  24284287.055    24284285.994    24284300.564
       208.000         151.000
 00  5  8 16  9 29.9980000  0  8G 2G26G 4G 5G24G 7G 9G16
   3086852.31149   2400085.01346  22212606.273    22212604.866    22212614.548
       231.000         186.000
   5176805.55649   4026082.49445  24888786.816    24888786.414    24888798.022
       211.000         147.000
  -5129900.22849  -3986384.18947  19946208.587    19946208.362    19946215.820
       242.000         208.000
  -7931504.37649  -6158159.20046  22950794.797    22950794.011    22950804.545
       225.000         170.000
  -9302054.19149  -7231763.74047  21473309.869    21473309.404    21473318.886
       237.000         192.000
   3067890.76449   2384972.33047  21380132.153    21380130.907    21380138.731
       241.000         204.000
  -4176081.71249  -3244915.78347  20783682.559    20783681.997    20783689.343
       245.000         210.000
  -4995543.47749  -3866576.89745  24273652.281    24273651.218    24273665.871
       215.000         151.000
 00  5  8 16  9 59.9980000  0  8G 2G26G 4G 5G24G 7G 9G16
   3137122.58949   2439256.54346  22222172.479    22222171.070    22222180.787
       230.000         185.000
   5240068.09149   4075377.99345  24900825.400    24900824.964    24900836.557
       204.000         146.000
  -5168000.73049  -4016072.86847  19938958.261    19938958.058    19938965.535
       242.000         209.000
  -8028464.03949  -6233712.08546  22932343.905    22932343.157    22932353.673
       225.000         170.000
  -9403516.60849  -7310825.30347  21454002.129    21454001.684    21454011.179
       235.000         192.000
   3112958.05249   2420089.64647  21388708.186    21388706.970    21388714.816
       240.000         203.000
  -4203606.90749  -3266363.99947  20778444.695    20778444.118    20778451.454
       245.000         211.000
  -5051007.94049  -3909795.96645  24263097.797    24263096.773    24263110.701
       213.000         147.000
 00  5  8 16 10 29.9980000  0  8G 2G26G 4G 5G24G 7G 9G16
   3187736.05649   2478695.50446  22231803.967    22231802.573    22231812.356
       229.000         185.000
   5303292.01649   4124643.27545  24912856.364    24912856.026    24912867.922
       209.000         151.000
  -5205433.92349  -4045241.56247  19931835.003    19931834.777    19931842.239
       242.000         208.000
  -8125320.95649  -6309184.92546  22913912.581    22913911.841    22913922.344
       224.000         170.000
  -9504585.27949  -7389580.03747  21434769.331    21434768.885    21434778.426
       235.000         192.000
   3158211.09549   2455351.71647  21397319.613    21397318.387    21397326.237
       240.000         203.000
  -4230498.14349  -3287318.21747  20773327.477    20773326.891    20773334.210
       245.000         211.000
  -5106040.50349  -3952678.32645  24252625.468    24252624.304    24252638.420
       211.000         156.000
 00  5  8 16 10 59.9980000  0  8G 2G26G 4G 5G24G 7G 9G16
   3238650.46749   2518368.95246  22241492.728    22241491.324    22241501.134
       229.000         184.000
   5366432.75449   4173843.79245  24924871.294    24924871.162    24924883.251
       204.000         134.000
  -5242241.43649  -4073922.71147  19924830.753    19924830.532    19924837.985
       242.000         208.000
  -8222116.13449  -6384609.66146  22895492.997    22895492.281    22895502.763
       223.000         169.000
  -9605299.73249  -7468058.77047  21415603.911    21415603.477    21415613.099
       235.000         193.000
   3203606.58749   2490724.76847  21405958.150    21405956.907    21405964.760
       239.000         203.000
  -4256797.06149  -3307810.89347  20768323.008    20768322.391    20768329.710
       244.000         211.000
  -5160680.75549  -3995254.93445  24242227.607    24242226.581    24242241.012
       209.000         156.000
 00  5  8 16 11 29.9980000  0  8G 2G26G 4G 5G24G 7G 9G16
   3289881.11549   2558288.81946  22251241.661    22251240.272    22251250.126
       229.000         183.000
   5429502.89449   4222989.28245  24936873.404    24936873.133    24936885.227
       213.000         152.000
  -5278407.09549  -4102103.70847  19917948.709    19917948.459    19917955.868
       241.000         208.000
  -8318833.30049  -6459973.62246  22877088.256    22877087.532    22877098.037
       225.000         170.000
  -9705642.21549  -7546247.64947  21396509.162    21396508.837    21396518.569
       235.000         193.000
   3249158.76949   2526219.92247  21414626.474    21414625.237    21414633.102
       240.000         202.000
  -4282487.91549  -3327829.74547  20763434.185    20763433.606    20763440.925
       245.000         211.000
  -5214911.06749  -4037512.13245  24231907.743    24231906.769    24231921.373
       208.000         150.000
 00  5  8 16 11 59.9980000  0  8G 2G26G 4G 5G24G 7G 9G16
   3341416.99449   2598446.52346  22261048.721    22261047.307    22261057.143
       230.000         183.000
   5492489.18349   4272069.36245  24948859.353    24948859.057    24948871.113
       203.000         134.000
  -5313941.17349  -4129792.55947  19911186.800    19911186.544    19911193.904
       241.000         208.000
  -8415482.06549  -6535284.25546  22858696.531    22858695.820    22858706.278
       224.000         170.000
  -9805621.27049  -7624153.34047  21377483.740    21377483.392    21377493.167
       237.000         193.000
   3294855.77249   2561827.91747  21423322.337    21423321.130    21423329.002
       239.000         202.000
  -4307580.97049  -3347382.77847  20758659.152    20758658.568    20758665.895
       245.000         211.000
  -5268739.55449  -4079456.34145  24221664.363    24221663.509    24221677.904
       214.000         151.000
 00  5  8 16 12 29.9980000  0  8G 2G26G 4G 5G24G 7G 9G16
   3393274.88349   2638855.14246  22270916.964    22270915.605    22270925.448
       229.000         184.000
   5555405.92949   4321095.37545  24960832.062    24960831.698    24960843.584
       210.000         140.000
  -5348825.97749  -4156975.48647  19904548.455    19904548.183    19904555.520
       241.000         208.000
  -8512044.23249  -6610527.42046  22840321.357    22840320.603    22840331.019
       226.000         170.000
  -9905217.04149  -7701760.36947  21358531.330    21358530.897    21358540.692
       237.000         194.000
   3340713.51949   2597561.16347  21432048.810    21432047.606    21432055.507
       239.000         202.000
  -4332058.70749  -3366456.34747  20754001.249    20754000.620    20754007.931
       245.000         211.000
  -5322146.77649  -4121072.21545  24211501.391    24211500.501    24211514.869
       213.000         158.000
 00  5  8 16 12 59.9980000  0  8G 2G26G 4G 5G24G 7G 9G16
   3445461.76749   2679520.12546  22280847.889    22280846.538    22280856.425
       229.000         184.000
   5618257.70249   4370070.81545  24972792.520    24972792.106    24972803.778
       206.000         138.000
  -5383054.01349  -4183646.64147  19898034.999    19898034.773    19898042.107
       241.000         208.000
  -8608511.86649  -6685696.93146  22821964.126    22821963.349    22821973.753
       225.000         171.000
 -10004420.63749  -7779061.79847  21339653.506    21339653.052    21339662.802
       238.000         194.000
   3386737.77949   2633424.16447  21440806.953    21440805.744    21440813.706
       239.000         202.000
  -4355913.69749  -3385044.65647  20749461.798    20749461.174    20749468.474
       245.000         211.000
  -5375123.28949  -4162352.41045  24201420.219    24201419.329    24201433.782
       214.000         151.000
 00  5  8 16 13 29.9980000  0  7G 2G 4G 5G24G 7G 9G16
   3497945.57149   2720416.47046  22290835.308    22290833.966    22290843.934
       229.000         184.000
  -5416656.62449  -4209830.46147  19891640.620    19891640.389    19891647.699
       242.000         208.000
  -8704915.59749  -6760816.64046  22803619.103    22803618.259    22803628.622
       228.000         172.000
 -10103261.29049  -7856080.42147  21320844.675    21320844.258    21320853.944
       238.000         194.000
   3432895.69749   2669391.31247  21449590.491    21449589.332    21449597.331
       239.000         201.000
  -4379177.31249  -3403172.15447  20745034.895    20745034.253    20745041.549
       246.000         210.000
  -5427698.59649  -4203320.07445  24191415.437    24191414.521    24191428.732
       209.000         150.000
 00  5  8 16 13 59.9980000  0  7G 2G 4G 5G24G 7G 9G16
   3550729.85349   2761546.95946  22300879.885    22300878.564    22300888.585
       228.000         183.000
  -5449629.50649  -4235523.57147  19885366.096    19885365.851    19885373.108
       241.000         208.000
  -8801250.56749  -6835882.77146  22785287.186    22785286.277    22785296.602
       225.000         170.000
 -10201732.98149  -7932811.53847  21302106.127    21302105.684    21302115.294
       238.000         195.000
   3479189.90949   2705464.66247  21458400.035    21458398.853    21458406.868
       238.000         200.000
  -4401845.26849  -3420835.50547  20740721.362    20740720.714    20740727.993
       245.000         211.000
  -5479866.32349  -4243970.12845  24181488.173    24181487.274    24181501.435
       214.000         156.000
 00  5  8 16 14 29.9980000  0  7G 2G 4G 5G24G 7G 9G16
   3603808.35749   2802906.70646  22310980.548    22310979.190    22310989.215
       230.000         183.000
  -5481978.38149  -4260730.44347  19879210.307    19879210.051    19879217.268
       242.000         208.000
  -8897521.74649  -6910899.18946  22766967.300    22766966.433    22766976.735
       227.000         171.000
 -10299839.47649  -8009258.08447  21283437.048    21283436.597    21283446.164
       239.000         196.000
   3525612.93849   2741638.38347  21467234.072    21467232.905    21467240.903
       239.000         200.000
  -4423923.73149  -3438039.51147  20736520.004    20736519.346    20736526.621
       246.000         210.000
  -5531630.57049  -4284305.76645  24171637.663    24171636.801    24171650.916
       209.000         152.000
 00  5  8 16 14 59.9980000  0  7G 2G 4G 5G24G 7G 9G16
   3657249.45549   2844548.98946  22321150.164    22321148.812    22321158.855
       229.000         183.000
  -5513634.04849  -4285397.15947  19873186.363    19873186.143    19873193.358
       241.000         208.000
  -8993659.26449  -6985811.45546  22748672.834    22748672.000    22748682.268
       226.000         170.000
 -10397509.73749  -8085364.71347  21264850.989    21264850.521    21264860.075
       240.000         197.000
   3572232.68149   2777965.39847  21476105.580    21476104.396    21476112.383
       239.000         200.000
  -4445343.54249  -3454730.28247  20732443.971    20732443.311    20732450.546
       245.000         210.000
  -5582920.27149  -4324271.64845  24161877.088    24161876.453    24161890.581
       205.000         147.000
 00  5  8 16 15 29.9980000  0  7G 2G 4G 5G24G 7G 9G16
   3710999.29749   2886431.86746  22331378.526    22331377.183    22331387.236
       228.000         183.000
  -5544649.60849  -4309565.09747  19867284.241    19867284.050    19867291.271
       241.000         208.000
  -9089715.55849  -7060660.43346  22730393.818    22730393.006    22730403.253
       224.000         170.000
 -10494794.90949  -8161171.27347  21246338.211    21246337.742    21246347.280
       239.000         197.000
   3618994.36849   2814403.01347  21485004.084    21485002.899    21485010.889
       239.000         200.000
  -4466157.89049  -3470949.26847  20728483.134    20728482.489    20728489.686
       245.000         210.000
  -5633786.32649  -4363907.44645  24152197.399    24152196.780    24152210.924
       212.000         149.000
 00  5  8 16 15 59.9980000  0  7G 2G 4G 5G24G 7G 9G16
   3765071.59749   2928566.00946  22341668.313    22341666.922    22341676.994
       227.000         183.000
  -5575010.99849  -4333223.29447  19861506.671    19861506.463    19861513.660
       241.000         209.000
  -9185675.67849  -7135434.47146  22712133.121    22712132.319    22712142.550
       225.000         171.000
 -10591678.96049  -8236665.26547  21227901.747    21227901.284    21227910.834
       239.000         197.000
   3665910.66549   2850961.10647  21493931.994    21493930.827    21493938.813
       238.000         199.000
  -4486352.65349  -3486685.45847  20724640.214    20724639.577    20724646.722
       245.000         209.000
  -5684212.86849  -4403200.77245  24142601.399    24142600.775    24142614.936
       211.000         151.000
 00  5  8 16 16 29.9980000  0  7G 2G 4G 5G24G 7G 9G16
   3819459.15449   2970945.80846  22352017.976    22352016.644    22352026.760
       228.000         184.000
  -5604724.89049  -4356376.95747  19855852.305    19855852.073    19855859.276
       240.000         209.000
  -9281545.49749  -7210138.15146  22693889.594    22693888.851    22693899.005
       225.000         172.000
 -10688166.51549  -8311850.31247  21209540.700    21209540.265    21209549.844
       239.000         198.000
   3712973.57849   2887633.43247  21502887.852    21502886.662    21502894.626
       238.000         200.000
  -4505934.78049  -3501944.28147  20720913.901    20720913.244    20720920.347
       245.000         210.000
  -5734204.38049  -4442155.08145  24133088.334    24133087.623    24133101.903
       213.000         156.000
 00  5  8 16 16 59.9980000  0  7G 2G 4G 5G24G 7G 9G16
   3874160.37249   3013570.01446  22362427.372    22362426.035    22362436.217
       228.000         184.000
  -5633792.02949  -4379026.65647  19850320.956    19850320.745    19850327.956
       241.000         209.000
  -9377325.07449  -7284771.51246  22675663.284    22675662.552    22675672.669
       225.000         174.000
 -10784256.52049  -8386725.57447  21191255.333    21191254.911    21191264.482
       239.000         198.000
   3760180.80549   2924418.21347  21511871.146    21511869.947    21511877.900
       238.000         199.000
  -4524905.07649  -3516726.34447  20717303.964    20717303.305    20717310.426
       245.000         210.000
  -5783760.02449  -4480769.78545  24123658.223    24123657.475    24123671.783
       213.000         157.000
 00  5  8 16 17 29.9980000  0  7G 2G 4G 5G24G 7G 9G16
   3929173.56149   3056437.31046  22372896.151    22372894.812    22372905.046
       229.000         183.000
  -5662213.69949  -4401173.39747  19844912.436    19844912.261    19844919.462
       240.000         209.000
  -9473014.70349  -7359334.77246  22657454.140    22657453.370    22657463.506
       227.000         175.000
 -10879948.33849  -8461290.56047  21173045.744    21173045.332    21173054.846
       239.000         198.000
   3807529.62849   2961313.33247  21520881.425    21520880.194    21520888.157
       238.000         200.000
  -4543264.92849  -3531032.73747  20713810.191    20713809.564    20713816.687
       245.000         210.000
  -5832878.69949  -4519044.02645  24114311.005    24114310.345    24114324.703
       211.000         153.000
 00  5  8 16 17 59.9980000  0  7G 2G 4G 5G24G 7G 9G16
   3984499.75749   3099548.50946  22383424.536    22383423.162    22383433.370
       228.000         183.000
  -5689988.50349  -4422816.09447  19839627.066    19839626.895    19839634.099
       241.000         210.000
  -9568611.88149  -7433826.01846  22639262.588    22639261.791    22639271.898
       227.000         174.000
 -10975238.35949  -8535542.46247  21154912.590    21154912.197    21154921.641
       239.000         198.000
   3855020.40249   2998319.05147  21529918.690    21529917.452    21529925.433
       238.000         201.000
  -4561012.98549  -3544862.40347  20710432.911    20710432.246    20710439.366
       246.000         210.000
  -5881557.15549  -4556975.28945  24105047.836    24105047.043    24105061.200
       215.000         154.000
 00  5  8 16 18 29.9980000  0  7G 2G 4G 5G24G 7G 9G16
   4040141.55149   3142905.60446  22394012.925    22394011.550    22394021.794
       229.000         184.000
  -5717112.88449  -4443951.97247  19834465.509    19834465.312    19834472.484
       242.000         210.000
  -9664112.57849  -7508242.07846  22621089.349    22621088.549    22621098.622
       226.000         174.000
 -11070121.19149  -8609477.06747  21136856.946    21136856.543    21136865.948
       240.000         199.000
   3902654.91049   3035436.77347  21538983.324    21538982.065    21538990.116
       239.000         202.000
  -4578146.19249  -3558212.96947  20707172.552    20707171.906    20707179.042
       246.000         210.000
  -5929789.99149  -4594559.29745  24095869.512    24095868.641    24095882.796
       213.000         156.000
 00  5  8 16 18 59.9980000  0  7G 2G 4G 5G24G 7G 9G16
   4096104.93749   3186513.31146  22404662.561    22404661.161    22404671.424
       229.000         185.000
  -5743580.75749  -4464576.29447  19829428.797    19829428.626    19829435.818
       241.000         209.000
  -9759509.24149  -7582577.07346  22602935.919    22602935.082    22602945.198
       226.000         174.000
 -11164588.49749  -8683087.88947  21118880.377    21118879.948    21118889.363
       239.000         199.000
   3950438.38249   3072670.56847  21548076.291    21548075.032    21548083.123
       238.000         201.000
  -4594657.97649  -3571079.30347  20704030.417    20704029.817    20704036.979
       246.000         210.000
  -5977568.88149  -4631789.57145  24086777.604    24086776.678    24086790.822
       219.000         161.000
 00  5  8 16 19 29.9980000  0  7G 2G 4G 5G24G 7G 9G16
   4152375.49649   3230360.37146  22415370.685    22415369.253    22415379.561
       228.000         184.000
  -5769405.80449  -4484699.71447  19824514.488    19824514.289    19824521.470
       242.000         209.000
  -9854814.64849  -7656840.96546  22584799.805    22584799.012    22584809.125
       225.000         173.000
 -11258652.11049  -8756384.14747  21100980.607    21100980.189    21100989.613
       240.000         199.000
   3998355.77949   3110008.72047  21557194.758    21557193.481    21557201.646
       239.000         202.000
  -4610562.28049  -3583472.27447  20701003.991    20701003.345    20701010.502
       246.000         210.000
  -6024905.36849  -4668675.13745  24077769.827    24077768.886    24077782.872
       218.000         156.000
 00  5  8 16 19 59.9980000  0  7G 2G 4G 5G24G 7G 9G16
   4208974.31349   3274463.21946  22426141.098    22426139.730    22426150.145
       229.000         182.000
  -5794566.46549  -4504305.42447  19819726.655    19819726.393    19819733.554
       241.000         209.000
  -9950006.43549  -7731016.31146  22566685.324    22566684.545    22566694.687
       225.000         174.000
 -11352288.55649  -8829347.55447  21083162.165    21083161.719    21083171.169
       239.000         199.000
   4046427.36849   3147467.01047  21566342.542    21566341.276    21566349.470
       238.000         201.000
  -4625837.72949  -3595375.23047  20698097.182    20698096.544    20698103.697
       246.000         210.000
  -6071776.27649  -4705197.87745  24068850.388    24068849.524    24068863.597
       215.000         150.000
 00  5  8 16 20 29.9980000  0  7G 2G 4G 5G24G 7G 9G16
   4265861.75949   3318790.96346  22436966.400    22436965.104    22436975.651
       225.000         182.000
  -5819101.76849  -4523423.84747  19815057.729    19815057.478    19815064.625
       240.000         208.000
 -10045122.62249  -7805132.75246  22548585.268    22548584.483    22548594.625
       226.000         175.000
 -11445534.76249  -8902006.87247  21065417.988    21065417.508    21065426.995
       239.000         200.000
   4094612.81349   3185014.03247  21575512.034    21575510.734    21575518.941
       238.000         201.000
  -4640523.68749  -3606818.84647  20695302.566    20695301.925    20695309.071
       247.000         211.000
  -6118218.26749  -4741386.49145  24060012.873    24060011.893    24060025.671
       217.000         152.000
 00  5  8 16 20 59.9980000  0  7G 2G 4G 5G24G 7G 9G16
   4323082.34149   3363378.28746  22447855.275    22447853.901    22447864.524
       227.000         182.000
  -5842966.97949  -4542020.12647  19810516.282    19810516.063    19810523.219
       240.000         208.000
 -10140116.84549  -7879154.16246  22530508.469    22530507.640    22530517.745
       228.000         176.000
 -11538343.53049  -8974325.34047  21047756.892    21047756.507    21047766.060
       238.000         200.000
   4142956.08949   3222684.03247  21584711.526    21584710.236    21584718.452
       239.000         202.000
  -4654574.95849  -3617767.90347  20692628.729    20692628.071    20692635.244
       246.000         211.000
  -6164184.27949  -4777204.15445  24051265.966    24051264.910    24051278.562
       215.000         156.000
 00  5  8 16 21 29.9980000  0  7G 2G 4G 5G24G 7G 9G16
   4380630.55149   3408220.90846  22458806.464    22458805.099    22458815.664
       228.000         181.000
  -5866167.08649  -4560098.13947  19806101.442    19806101.221    19806108.360
       240.000         208.000
 -10234993.22149  -7953083.74746  22512454.044    22512453.229    22512463.293
       227.000         175.000
 -11630718.07949  -9046305.44347  21030178.555    21030178.169    21030187.696
       240.000         200.000
   4191450.91049   3260472.11747  21593939.883    21593938.575    21593946.812
       238.000         200.000
  -4667997.15349  -3628226.76547  20690074.621    20690073.931    20690081.120
       246.000         211.000
  -6209677.52849  -4812653.40345  24042608.723    24042607.798    24042621.409
       215.000         155.000
 00  5  8 16 21 59.9980000  0  7G 2G 4G 5G24G 7G 9G16
   4438495.55849   3453310.37946  22469817.905    22469816.533    22469827.053
       227.000         180.000
  -5888712.58949  -4577666.06447  19801811.211    19801810.966    19801818.091
       240.000         207.000
 -10329761.01849  -8026928.70846  22494420.323    22494419.500    22494429.492
       227.000         175.000
 -11722666.65749  -9117953.61947  21012681.274    21012680.872    21012690.390
       239.000         200.000
   4240085.77249   3298369.32747  21603194.855    21603193.545    21603201.807
       238.000         200.000
  -4680800.40849  -3638203.34447  20687638.236    20687637.577    20687644.771
       246.000         211.000
  -6254706.30649  -4847740.71045  24034039.915    24034039.104    24034052.647
       214.000         152.000
 00  5  8 16 22 29.9980000  0  7G 2G 4G 5G24G 7G 9G16
   4496675.43449   3498645.21146  22480889.313    22480887.933    22480898.405
       227.000         180.000
  -5910604.81849  -4594724.95647  19797645.221    19797645.000    19797652.115
       240.000         207.000
 -10424420.60449  -8100689.34946  22476407.132    22476406.327    22476416.263
       228.000         175.000
 -11814188.43849  -9189269.23747  20995265.155    20995264.800    20995274.297
       240.000         200.000
   4288858.16449   3336373.71147  21612476.036    21612474.704    21612482.943
       239.000         200.000
  -4692986.50049  -3647699.02147  20685319.324    20685318.656    20685325.851
       246.000         212.000
  -6299270.18349  -4882465.75045  24025559.690    24025558.823    24025572.328
       212.000         155.000
 00  5  8 16 22 59.9980000  0  7G 2G 4G 5G24G 7G 9G16
   4555158.60349   3544216.36846  22492018.389    22492017.015    22492027.521
       226.000         181.000
  -5931855.32449  -4611283.80647  19793601.340    19793601.142    19793608.271
       240.000         207.000
 -10518981.86149  -8174373.38446  22458412.693    22458411.873    22458421.785
       228.000         176.000
 -11905292.87749  -9260259.65347  20977928.496    20977928.152    20977937.637
       240.000         201.000
   4337755.82749   3374475.70847  21621781.007    21621779.695    21621787.888
       238.000         199.000
  -4704566.69449  -3656722.57847  20683115.699    20683115.043    20683122.210
       245.000         211.000
  -6343378.16249  -4916835.52745  24017166.228    24017165.389    24017178.876
       215.000         156.000
 00  5  8 16 23 29.9980000  0  7G 2G 4G 5G24G 7G 9G16
   4613955.01849   3590031.62346  22503207.111    22503205.699    22503216.277
       226.000         180.000
  -5952453.76649  -4627334.54847  19789681.637    19789681.416    19789688.519
       240.000         207.000
 -10613433.24049  -8247971.80346  22440439.165    22440438.352    22440448.158
       228.000         176.000
 -11995967.55049  -9330915.17647  20960673.612    20960673.268    20960682.786
       241.000         201.000
   4386787.91349   3412682.45547  21631111.568    21631110.265    21631118.414
       238.000         198.000
  -4715530.70849  -3665265.99347  20681029.317    20681028.671    20681035.858
       245.000         212.000
  -6387017.87149  -4950840.43045  24008861.983    24008861.051    24008874.373
       215.000         155.000
 00  5  8 16 23 59.9980000  0  7G 2G 4G 5G24G 7G 9G16
   4673040.46749   3636072.08946  22514450.864    22514449.412    22514460.024
       226.000         180.000
  -5972423.95049  -4642895.73247  19785881.526    19785881.237    19785888.308
       241.000         208.000
 -10707797.08249  -8321502.00346  22422482.306    22422481.473    22422491.208
       231.000         176.000
 -12086233.92549  -9401252.55647  20943496.480    20943496.096    20943505.644
       242.000         202.000
   4435929.80749   3450974.76647  21640463.079    21640461.756    21640469.836
       238.000         198.000
  -4725902.60449  -3673348.01547  20679055.671    20679054.991    20679062.197
       246.000         212.000
  -6430211.17449  -4984497.48645  24000642.689    24000641.631    24000655.001
       213.000         156.000
 00  5  8 16 24 29.9980000  0  7G 2G 4G 5G24G 7G 9G16
   4732448.81249   3682364.15146  22525755.991    22525754.568    22525765.223
       226.000         179.000
  -5991731.62449  -4657940.68347  19782207.378    19782207.125    19782214.163
       239.000         207.000
 -10802037.94149  -8394936.38146  22404548.842    22404547.995    22404557.663
       229.000         177.000
 -12176055.66249  -9471243.47147  20926403.914    20926403.546    20926413.107
       241.000         202.000
   4485214.91549   3489378.66347  21649841.829    21649840.500    21649848.518
       238.000         198.000
  -4735648.27849  -3680942.07347  20677201.108    20677200.449    20677207.731
       245.000         212.000
  -6472921.47949  -5017778.18445  23992514.974    23992514.061    23992527.445
       212.000         153.000
 00  5  8 16 24 59.9980000  0  7G 2G 4G 5G24G 7G 9G16
   4792192.07549   3728917.19546  22537124.783    22537123.417    22537134.130
       225.000         179.000
  -6010364.61149  -4672459.89747  19778661.638    19778661.389    19778668.404
       240.000         207.000
 -10896142.06049  -8468264.18846  22386641.287    22386640.518    22386650.167
       228.000         176.000
 -12265418.16549  -9540876.53547  20909398.788    20909398.395    20909407.942
       241.000         202.000
   4534654.50649   3527902.93847  21659249.933    21659248.618    21659256.576
       238.000         197.000
  -4744755.26849  -3688038.44947  20675468.118    20675467.476    20675474.793
       245.000         212.000
  -6515134.55649  -5050671.40845  23984481.894    23984481.061    23984494.520
       209.000         151.000
 00  5  8 16 25 29.9980000  0  7G 2G 4G 5G24G 7G 9G16
   4852242.95249   3775709.94146  22548552.145    22548550.804    22548561.587
       224.000         178.000
  -6028349.77449  -4686474.30847  19775239.256    19775238.962    19775245.953
       241.000         208.000
 -10990135.01149  -8541505.37946  22368754.898    22368754.183    22368763.812
       228.000         177.000
 -12354346.27249  -9610171.11847  20892476.383    20892475.945    20892485.446
       243.000         203.000
   4584220.75449   3566525.90647  21668682.136    21668680.830    21668688.725
       237.000         197.000
  -4753250.99849  -3694658.52147  20673851.508    20673850.824    20673858.161
       245.000         212.000
  -6556874.88149  -5083196.29545  23976538.825    23976538.016    23976551.472
       215.000         153.000
 00  5  8 16 25 59.9980000  0  7G 2G 4G 5G24G 7G 9G16
   4912612.25949   3822750.80446  22560040.179    22560038.818    22560049.585
       223.000         177.000
  -6045676.19149  -4699975.41647  19771942.132    19771941.851    19771948.872
       239.000         208.000
 -11084004.33549  -8614650.22746  22350892.057    22350891.363    22350900.973
       230.000         177.000
 -12442826.77049  -9679116.91447  20875639.088    20875638.646    20875648.124
       241.000         202.000
   4633924.05649   3605255.66847  21678140.396    21678139.109    21678147.009
       237.000         197.000
  -4761124.31349  -3700793.60247  20672353.284    20672352.604    20672359.958
       245.000         212.000
  -6598129.55949  -5115342.70945  23968688.222    23968687.437    23968701.020
       215.000         156.000
 00  5  8 16 26 29.9980000  0  7G 2G 4G 5G24G 7G 9G16
   4973290.00549   3870032.02946  22571586.905    22571585.529    22571596.269
       225.000         176.000
  -6062353.44549  -4712970.68047  19768768.502    19768768.247    19768775.330
       239.000         208.000
 -11177758.19049  -8687705.10746  22333051.252    22333050.539    22333060.086
       230.000         178.000
 -12530867.03349  -9747719.67347  20858885.539    20858885.106    20858894.576
       242.000         202.000
   4683753.84649   3644083.99247  21687622.754    21687621.462    21687629.371
       237.000         197.000
  -4768384.96449  -3706451.27647  20670971.651    20670970.975    20670978.340
       245.000         212.000
  -6638905.90149  -5147116.40545  23960928.747    23960927.960    23960941.681
       214.000         158.000
 00  5  8 16 26 59.9980000  0  7G 2G 4G 5G24G 7G 9G16
   5034273.44749   3917551.45046  22583191.789    22583190.401    22583201.140
       225.000         175.000
  -6078384.09549  -4725462.09847  19765717.917    19765717.707    19765724.842
       240.000         208.000
 -11271397.60749  -8760670.80946  22315232.234    22315231.509    22315241.009
       231.000         179.000
 -12618467.53049  -9815979.75947  20842215.701    20842215.235    20842224.716
       242.000         202.000
   4733706.92949   3683008.39247  21697128.557    21697127.280    21697135.224
       237.000         197.000
  -4775035.69849  -3711633.68547  20669706.076    20669705.383    20669712.784
       245.000         212.000
  -6679204.48949  -5178517.81545  23953260.296    23953259.379    23953273.062
       217.000         158.000
 00  5  8 16 27 29.9980000  0  7G 2G 4G 5G24G 7G 9G16
   5095561.93749   3965308.57046  22594854.666    22594853.318    22594864.080
       224.000         176.000
  -6093768.50949  -4737449.95047  19762790.404    19762790.175    19762797.300
       240.000         209.000
 -11364921.24149  -8833546.29646  22297435.290    22297434.522    22297443.971
       230.000         179.000
 -12705626.03349  -9883895.43947  20825629.946    20825629.465    20825638.948
       242.000         202.000
   4783782.36249   3722028.13547  21706657.648    21706656.389    21706664.392
       237.000         197.000
  -4781076.64449  -3716340.94047  20668556.533    20668555.842    20668563.289
       245.000         212.000
  -6719023.17149  -5209545.24945  23945682.977    23945682.092    23945695.722
       215.000         157.000
 00  5  8 16 27 59.9980000  0  7G 2G 4G 5G24G 7G 9G16
   5157183.22149   4013325.01146  22606580.887    22606579.538    22606590.370
       223.000         176.000
  -6108478.82549  -4748912.52747  19759991.144    19759990.916    19759998.016
       241.000         209.000
 -11458299.65549  -8906308.62246  22279665.921    22279665.148    22279674.539
       231.000         179.000
 -12792312.60049  -9951443.37847  20809133.970    20809133.505    20809142.965
       242.000         202.000
   4834007.22049   3761164.31147  21716215.169    21716213.930    21716221.972
       237.000         196.000
  -4786479.90449  -3720551.30347  20667528.374    20667527.674    20667535.123
       245.000         212.000
  -6758332.06449  -5240175.43645  23938202.653    23938201.814    23938215.553
       220.000         160.000
 00  5  8 16 28 29.9980000  0  7G 2G 4G 5G24G 7G 9G16
   5219101.46549   4061572.84246  22618363.657    22618362.288    22618373.222
       223.000         177.000
  -6122550.72049  -4759877.63847  19757313.404    19757313.143    19757320.233
       240.000         208.000
 -11551566.79449  -8978984.24646  22261917.759    22261916.973    22261926.335
       230.000         180.000
 -12878560.36449 -10018649.39447  20792721.442    20792721.041    20792730.484
       241.000         201.000
   4884345.31149   3800388.71747  21725794.266    21725793.014    21725801.086
       237.000         196.000
  -4791281.24149  -3724292.63547  20666614.696    20666614.032    20666621.479
       245.000         212.000
  -6797164.47249  -5270434.37545  23930813.063    23930812.229    23930825.922
       213.000         155.000
 00  5  8 16 28 59.9980000  0  7G 2G 4G 5G24G 7G 9G16
   5281325.30049   4110058.79446  22630204.586    22630203.221    22630214.215
       224.000         175.000
  -6135975.28949  -4770338.33847  19754758.760    19754758.550    19754765.610
       240.000         208.000
 -11644712.02649  -9051564.87446  22244192.764    22244191.955    22244201.328
       230.000         180.000
 -12964358.15749 -10085504.78247  20776394.622    20776394.220    20776403.636
       242.000         202.000
   4934804.90549   3839707.79947  21735396.467    21735395.223    21735403.314
       237.000         196.000
  -4795471.63649  -3727557.90647  20665817.320    20665816.648    20665824.104
       245.000         212.000
  -6835509.46649  -5300313.51645  23923516.103    23923515.249    23923528.841
       217.000         154.000
 00  5  8 16 29 29.9980000  0  7G 2G 4G 5G24G 7G 9G16
   5343883.35849   4158805.19046  22642109.125    22642107.725    22642118.768
       224.000         177.000
  -6148723.71849  -4780272.17447  19752332.872    19752332.632    19752339.669
       241.000         209.000
 -11737704.98449  -9124026.85046  22226496.723    22226495.940    22226505.312
       230.000         182.000
 -13049675.03949 -10151985.43247  20760159.377    20760158.947    20760168.297
       242.000         202.000
   4985414.26949   3879143.59247  21745027.176    21745025.933    21745034.027
       236.000         195.000
  -4799022.54849  -3730324.87648  20665141.654    20665140.961    20665148.407
       246.000         213.000
  -6873335.88749  -5329788.55445  23916317.790    23916317.001    23916330.683
       214.000         156.000
 00  5  8 16 29 59.9980000  0  7G 2G 4G 5G24G 7G 9G16
   5406744.23649   4207787.53746  22654071.220    22654069.835    22654080.987
       223.000         178.000
  -6160827.55649  -4789703.72447  19750029.658    19750029.398    19750036.378
       241.000         209.000
 -11830575.28549  -9196393.25846  22208824.035    22208823.269    22208832.646
       231.000         182.000
 -13134540.04749 -10218113.97747  20744010.139    20744009.672    20744018.979
       243.000         203.000
   5036141.46449   3918671.19447  21754680.286    21754679.062    21754687.179
       236.000         196.000
  -4801965.51349  -3732618.12448  20664581.617    20664580.955    20664588.370
       245.000         213.000
  -6910672.88049  -5358882.24845  23909212.530    23909211.852    23909225.626
       215.000         156.000
 00  5  8 16 30 29.9980000  0  7G 2G 4G 5G24G 7G 9G16
   5469910.70449   4257008.01446  22666091.570    22666090.154    22666101.343
       224.000         177.000
  -6172283.61449  -4798630.52347  19747849.700    19747849.399    19747856.356
       241.000         209.000
 -11923317.89949  -9268660.16046  22191175.637    22191174.901    22191184.274
       232.000         182.000
 -13218947.65749 -10283886.11447  20727947.896    20727947.422    20727956.736
       243.000         203.000
   5086989.01649   3958292.57647  21764356.329    21764355.077    21764363.220
       236.000         195.000
  -4804297.54849  -3734435.33048  20664137.879    20664137.198    20664144.597
       246.000         213.000
  -6947515.23649  -5387590.50045  23902201.811    23902201.046    23902214.676
       216.000         155.000
 00  5  8 16 30 59.9980000  0  7G 2G 4G 5G24G 7G 9G16
   5533375.82549   4306461.20146  22678168.735    22678167.286    22678178.539
       223.000         176.000
  -6183098.88449  -4807058.00647  19745791.560    19745791.292    19745798.298
       240.000         208.000
 -12015937.99749  -9340831.59846  22173550.597    22173549.837    22173559.245
       230.000         182.000
 -13302902.40749 -10349305.37147  20711971.796    20711971.320    20711980.660
       243.000         203.000
   5137949.74549   3998002.15247  21774053.841    21774052.634    21774060.784
       236.000         195.000
  -4806025.37749  -3735781.72748  20663809.080    20663808.427    20663815.835
       245.000         213.000
  -6983867.51349  -5415916.89845  23895284.118    23895283.346    23895296.873
       213.000         154.000
 00  5  8 16 31 29.9980000  0  7G 2G 4G 5G24G 7G 9G16
   5597174.59549   4356174.36846  22690309.372    22690307.911    22690319.202
       223.000         176.000
  -6193238.21749  -4814958.78647  19743862.110    19743861.832    19743868.852
       240.000         208.000
 -12108398.80649  -9412878.91546  22155955.823    22155955.064    22155964.493
       230.000         181.000
 -13386366.73649 -10414342.48447  20696089.045    20696088.573    20696097.888
       243.000         204.000
   5189058.14349   4037826.78547  21783779.498    21783778.293    21783786.453
       236.000         195.000
  -4807114.03749  -3736630.06748  20663601.926    20663601.287    20663608.706
       246.000         213.000
  -7019692.31749  -5443832.25945  23888466.947    23888466.066    23888479.549
       220.000         156.000
 00  5  8 16 31 59.9980000  0  7G 2G 4G 5G24G 7G 9G16
   5661278.03149   4406124.95146  22702507.914    22702506.510    22702517.789
       222.000         175.000
  -6202730.64349  -4822355.47747  19742055.727    19742055.470    19742062.498
       239.000         208.000
 -12200727.25749  -9484823.09746  22138386.236    22138385.507    22138394.910
       230.000         181.000
 -13469367.47249 -10479018.34747  20680294.518    20680294.047    20680303.333
       242.000         204.000
   5240285.01349   4077743.74747  21793527.771    21793526.516    21793534.691
       236.000         195.000
  -4807592.58049  -3737002.98548  20663510.863    20663510.241    20663517.678
       246.000         213.000
  -7055016.34349  -5471357.41545  23881745.039    23881744.177    23881757.567
       219.000         152.000
 00  5  8 16 32 29.9980000  0  7G 2G 4G 5G24G 7G 9G16
   5725656.62249   4456289.92946  22714758.861    22714757.464    22714768.790
       222.000         174.000
  -6211605.36549  -4829270.85347  19740366.960    19740366.698    19740373.687
       240.000         208.000
 -12292950.66749  -9556685.42446  22120836.620    22120835.903    22120845.313
       229.000         182.000
 -13551931.42149 -10543353.86647  20664583.142    20664582.641    20664591.876
       242.000         204.000
   5291600.56349   4117729.80847  21803292.841    21803291.604    21803299.811
       236.000         195.000
  -4807490.11349  -3736923.18948  20663530.448    20663529.786    20663537.191
       245.000         213.000
  -7089866.63949  -5498513.50145  23875113.045    23875112.333    23875125.448
       213.000         149.000
 00  5  8 16 32 59.9980000  0  7G 2G 4G 5G24G 7G 9G16
   5790343.67749   4506695.27246  22727068.530    22727067.116    22727078.501
       223.000         174.000
  -6219829.38249  -4835679.18747  19738801.978    19738801.717    19738808.694
       240.000         208.000
 -12385033.89249  -9628438.51846  22103313.699    22103312.999    22103322.388
       230.000         182.000
 -13634023.01349 -10607321.31547  20648961.594    20648961.106    20648970.302
       242.000         205.000
   5343037.74949   4157810.63847  21813081.045    21813079.820    21813088.098
       236.000         195.000
  -4806773.61249  -3736364.92247  20663666.869    20663666.177    20663673.547
       246.000         212.000
  -7124207.67549  -5525272.71345  23868578.051    23868577.308    23868590.595
       216.000         154.000
 00  5  8 16 33 29.9980000  0  7G 2G 4G 5G24G 7G 9G16
   5855323.86249   4557329.02246  22739433.986    22739432.554    22739443.985
       221.000         174.000
  -6227417.83649  -4841592.27147  19737357.907    19737357.671    19737364.642
       240.000         208.000
 -12476990.14349  -9700092.67946  22085814.932    22085814.245    22085823.635
       230.000         182.000
 -13715654.99149 -10670930.62047  20633427.431    20633426.991    20633436.196
       241.000         204.000
   5394581.00749   4197974.13147  21822889.417    21822888.213    21822896.576
       235.000         194.000
  -4805458.53149  -3735340.23247  20663917.179    20663916.462    20663923.817
       246.000         212.000
  -7158052.68449  -5551645.41645  23862137.517    23862136.820    23862150.396
       215.000         158.000
 00  5  8 16 33 59.9980000  0  7G 2G 4G 5G24G 7G 9G16
   5920624.11949   4608212.17946  22751860.224    22751858.859    22751870.454
       220.000         174.000
  -6234343.92649  -4846989.22847  19736039.874    19736039.662    19736046.640
       239.000         207.000
 -12568790.61349  -9771625.42646  22068345.856    22068345.134    22068354.517
       230.000         182.000
 -13796798.13149 -10734159.01547  20617986.329    20617985.897    20617995.124
       241.000         204.000
   5446256.96849   4238241.04047  21832723.096    21832721.873    21832730.269
       235.000         194.000
  -4803518.08049  -3733828.23447  20664286.470    20664285.752    20664293.101
       246.000         212.000
  -7191372.25849  -5577608.71345  23855796.921    23855796.211    23855809.872
       214.000         153.000
 00  5  8 16 34 29.9980000  0  7G 2G 4G 5G24G 7G 9G16
   5986219.89249   4659325.61246  22764342.883    22764341.449    22764353.119
       221.000         173.000
  -6240632.06049  -4851889.08247  19734843.244    19734843.045    19734850.019
       239.000         208.000
 -12660457.63049  -9843054.21446  22050902.217    22050901.454    22050910.763
       231.000         181.000
 -13877474.51049 -10797023.70047  20602634.018    20602633.635    20602642.874
       242.000         204.000
   5498040.97749   4278592.13447  21842577.352    21842576.106    21842584.527
       236.000         194.000
  -4800976.38349  -3731847.73547  20664770.152    20664769.452    20664776.803
       246.000         212.000
  -7224188.72249  -5603179.98045  23849552.249    23849551.450    23849564.959
       218.000         153.000
 00  5  8 16 34 59.9980000  0  7G 2G 4G 5G24G 7G 9G16
   6052128.51849   4710682.82046  22776885.006    22776883.546    22776895.267
       220.000         172.000
  -6246264.84649  -4856278.27347  19733771.329    19733771.148    19733778.131
       240.000         208.000
 -12751971.72849  -9914363.84446  22033487.615    22033486.847    22033496.130
       230.000         180.000
 -13957664.14849 -10859509.10547  20587374.451    20587374.012    20587383.211
       242.000         204.000
   5549950.21249   4319040.80347  21852455.421    21852454.173    21852462.614
       235.000         194.000
  -4797815.99349  -3729385.13747  20665371.501    20665370.871    20665378.234
       245.000         211.000
  -7256482.10449  -5628343.65645  23843407.172    23843406.334    23843419.754
       218.000         156.000
 00  5  8 16 35 29.9980000  0  7G 2G 4G 5G24G 7G 9G16
   6118358.27849   4762290.25846  22789488.257    22789486.766    22789498.495
       223.000         172.000
  -6251234.26149  -4860150.55347  19732825.652    19732825.488    19732832.482
       241.000         208.000
 -12843322.78549  -9985546.41746  22016104.003    22016103.248    22016112.495
       232.000         181.000
 -14037356.50349 -10921607.01147  20572209.419    20572209.023    20572218.188
       243.000         204.000
   5601992.78149   4359593.36647  21862358.907    21862357.626    21862366.069
       237.000         193.000
  -4794029.20049  -3726434.43547  20666092.082    20666091.491    20666098.840
       246.000         211.000
  -7288242.14049  -5653091.75345  23837363.511    23837362.585    23837375.944
       218.000         154.000
 00  5  8 16 35 59.9980000  0  7G 2G 4G 5G24G 7G 9G16
   6184905.34049   4814144.96846  22802151.918    22802150.405    22802162.063
       221.000         171.000
  -6255544.23049  -4863508.97547  19732005.479    19732005.315    19732012.310
       240.000         208.000
 -12934512.59249 -10056603.34946  21998751.057    21998750.340    21998759.554
       230.000         181.000
 -14116553.17549 -10983318.67347  20557138.762    20557138.366    20557147.499
       242.000         205.000
   5654164.38349   4400246.47947  21872286.887    21872285.625    21872294.083
       236.000         193.000
  -4789619.79649  -3722998.58047  20666931.223    20666930.605    20666937.928
       245.000         211.000
  -7319470.36349  -5677425.43945  23831420.954    23831419.998    23831433.356
       215.000         154.000
 00  5  8 16 36 29.9980000  0  7G 2G 4G 5G24G 7G 9G16
   6251743.76849   4866226.68646  22814870.987    22814869.466    22814881.068
       222.000         172.000
  -6259220.69349  -4866373.75547  19731305.860    19731305.697    19731312.693
       239.000         208.000
 -13025564.71649 -10127552.98946  21981424.324    21981423.647    21981432.820
       230.000         181.000
 -14195277.46149 -11044662.24147  20542158.038    20542157.615    20542166.750
       242.000         205.000
   5706439.15349   4440979.98347  21882234.509    21882233.241    21882241.706
       235.000         192.000
  -4784613.77849  -3719097.83047  20667883.863    20667883.243    20667890.544
       245.000         211.000
  -7350190.44349  -5701363.15745  23825575.006    23825574.103    23825587.456
       213.000         153.000
 00  5  8 16 36 59.9980000  0  7G 2G 4G 5G24G 7G 9G16
   6318891.40049   4918549.34746  22827648.937    22827647.393    22827658.984
       221.000         171.000
  -6262245.84349  -4868731.01847  19730730.241    19730730.048    19730737.036
       239.000         208.000
 -13116459.16549 -10198379.76746  21964127.629    21964126.952    21964136.087
       230.000         181.000
 -14273509.16749 -11105621.97747  20527271.025    20527270.578    20527279.737
       241.000         205.000
   5758834.61549   4481807.52947  21892205.074    21892203.845    21892212.274
       235.000         192.000
  -4778993.32449  -3714718.30347  20668953.403    20668952.795    20668960.115
       245.000         211.000
  -7380381.98849  -5724889.06145  23819829.756    23819828.761    23819842.036
       215.000         155.000
 00  5  8 16 37 29.9980000  0  7G 2G 4G 5G24G 7G 9G16
   6386336.31349   4971103.65846  22840483.407    22840481.856    22840493.433
       221.000         172.000
  -6264631.88149  -4870590.27447  19730276.203    19730276.010    19730283.003
       240.000         209.000
 -13207205.81649 -10269091.37346  21946859.061    21946858.378    21946867.503
       230.000         182.000
 -14351258.02349 -11166205.46847  20512475.842    20512475.441    20512484.630
       242.000         206.000
   5811338.95549   4522719.91647  21902196.420    21902195.151    21902203.602
       235.000         193.000
  -4772770.59749  -3709869.46447  20670137.574    20670136.955    20670144.311
       245.000         211.000
  -7410055.38749  -5748011.20345  23814183.129    23814182.130    23814195.195
       219.000         155.000
 00  5  8 16 37 59.9980000  0  7G 2G 4G 5G24G 7G 9G16
   6454080.67749   5023891.31346  22853374.836    22853373.339    22853384.921
       219.000         170.000
  -6266376.63449  -4871949.82947  19729944.312    19729944.038    19729951.006
       241.000         209.000
 -13297800.15549 -10339684.29646  21929619.515    21929618.803    21929627.933
       231.000         183.000
 -14428519.11249 -11226408.88047  20497773.622    20497773.152    20497782.326
       242.000         206.000
   5863954.23649   4563718.74747  21912208.868    21912207.591    21912216.081
       235.000         193.000
  -4765943.33749  -3704549.56747  20671436.812    20671436.176    20671443.521
       245.000         211.000
  -7439205.50249  -5770725.58645  23808636.167    23808635.128    23808648.006
       221.000         155.000
 00  5  8 16 38 29.9980000  0  7G 2G 4G 5G24G 7G 9G16
   6522114.38749   5076904.42946  22866321.287    22866319.824    22866331.433
       219.000         170.000
  -6267490.43349  -4872817.72447  19729732.397    19729732.123    19729739.036
       241.000         208.000
 -13388249.93849 -10410164.56946  21912407.432    21912406.717    21912415.865
       231.000         183.000
 -14505300.33649 -11286238.36547  20483162.608    20483162.147    20483171.336
       242.000         206.000
   5916670.21249   4604796.03447  21922240.457    21922239.178    21922247.722
       235.000         193.000
  -4758521.77849  -3698766.57747  20672849.159    20672848.496    20672855.824
       245.000         211.000
  -7467840.74449  -5793038.77845  23803186.979    23803185.926    23803198.712
       216.000         154.000
 00  5  8 16 38 59.9980000  0  7G 2G 4G 5G24G 7G 9G16
   6590267.71149   5130010.75446  22879290.543    22879289.102    22879300.752
       220.000         170.000
  -6268143.16749  -4873326.35347  19729608.211    19729607.928    19729614.794
       240.000         208.000
 -13478722.88349 -10480662.89346  21895190.917    21895190.220    21895199.380
       230.000         183.000
 -14581769.08549 -11345824.36547  20468611.083    20468610.610    20468619.826
       242.000         206.000
   5969317.09749   4645819.48847  21932258.893    21932257.624    21932266.202
       234.000         193.000
  -4750676.08849  -3692653.10147  20674342.190    20674341.506    20674348.844
       245.000         211.000
  -7496128.37149  -5815081.08345  23797803.894    23797802.969    23797815.831
       219.000         159.000
 00  5  8 16 39 29.9980000  0  7G 2G 4G 5G24G 7G 9G16
   6658920.44849   5183506.22346  22892354.906    22892353.407    22892365.094
       221.000         171.000
  -6267955.08049  -4873179.79647  19729643.982    19729643.710    19729650.585
       241.000         208.000
 -13568837.12249 -10550881.71146  21878042.662    21878041.969    21878051.156
       231.000         183.000
 -14657543.18949 -11404869.07347  20454191.727    20454191.237    20454200.527
       243.000         206.000
   6022274.64349   4687085.00947  21942336.436    21942335.169    21942343.804
       235.000         193.000
  -4742026.65249  -3685913.32647  20675988.133    20675987.477    20675994.819
       246.000         211.000
  -7523686.47649  -5836554.93945  23792559.831    23792558.824    23792571.774
       219.000         158.000
 00  5  8 16 39 59.9980000  0  7G 2G 4G 5G24G 7G 9G16
   6727879.19949   5237240.15246  22905477.343    22905475.906    22905487.640
       219.000         169.000
  -6267119.95449  -4872529.05847  19729802.897    19729802.649    19729809.498
       241.000         208.000
 -13658783.73849 -10620969.91646  21860926.320    21860925.642    21860934.832
       231.000         184.000
 -14732813.64549 -11463521.33847  20439868.189    20439867.733    20439877.029
       242.000         207.000
   6075349.28049   4728441.77047  21952436.270    21952434.995    21952443.675
       234.000         192.000
  -4732766.94949  -3678698.02147  20677750.188    20677749.550    20677756.930
       245.000         211.000
  -7550706.28149  -5857609.33645  23787417.973    23787417.031    23787430.161
       215.000         158.000
 00  5  8 16 40 29.9980000  0  7G 2G 4G 5G24G 7G 9G16
   6797123.26849   5291196.39746  22918654.121    22918652.709    22918664.551
       219.000         169.000
  -6265658.46949  -4871390.24347  19730081.005    19730080.757    19730087.606
       240.000         208.000
 -13748581.05249 -10690941.77746  21843838.470    21843837.744    21843846.889
       233.000         185.000
 -14807598.72149 -11521795.38247  20425637.087    20425636.618    20425645.905
       242.000         207.000
   6128520.60749   4769873.88147  21962554.467    21962553.215    21962561.955
       234.000         192.000
  -4722917.76649  -3671023.37447  20679624.470    20679623.823    20679631.226
       245.000         211.000
  -7577206.17749  -5878258.56845  23782375.117    23782374.185    23782387.593
       218.000         160.000
 00  5  8 16 40 59.9980000  0  7G 2G 4G 5G24G 7G 9G16
   6866663.56349   5345383.47146  22931887.230    22931885.855    22931897.836
       219.000         169.000
  -6263560.14149  -4869755.19347  19730480.364    19730480.070    19730486.900
       241.000         208.000
 -13838216.06249 -10760787.17646  21826781.462    21826780.730    21826789.838
       233.000         186.000
 -14881885.17449 -11579680.89347  20411500.811    20411500.342    20411509.664
       242.000         206.000
   6181799.35249   4811389.68847  21972693.154    21972691.896    21972700.649
       234.000         191.000
  -4712468.45349  -3662881.09947  20681612.965    20681612.293    20681619.722
       245.000         211.000
  -7603173.26149  -5898492.68345  23777433.922    23777432.905    23777446.358
       219.000         162.000
 00  5  8 16 41 29.9980000  0  7G 2G 4G 5G24G 7G 9G16
   6936489.66049   5399793.25046  22945174.642    22945173.382    22945185.440
       217.000         167.000
  -6260835.64449  -4867632.21947  19730998.863    19730998.560    19731005.325
       241.000         208.000
 -13927696.71549 -10830512.29346  21809753.816    21809753.090    21809762.153
       233.000         186.000
 -14955681.46449 -11637184.46247  20397457.764    20397457.334    20397466.651
       242.000         206.000
   6235174.92749   4852980.95747  21982850.225    21982849.000    21982857.772
       234.000         191.000
  -4701429.74749  -3654279.55847  20683713.639    20683712.935    20683720.350
       245.000         211.000
  -7628615.84049  -5918318.05045  23772592.500    23772591.355    23772604.941
       217.000         161.000
 00  5  8 16 41 59.9980000  0  7G 2G 4G 5G24G 7G 9G16
   7006603.73049   5454427.41646  22958516.989    22958515.727    22958527.946
       217.000         167.000
  -6257482.86649  -4865019.67147  19731636.982    19731636.640    19731643.346
       241.000         209.000
 -14017018.32449 -10900113.47846  21792756.432    21792755.704    21792764.787
       233.000         186.000
 -15028982.49249 -11694302.11747  20383508.969    20383508.551    20383517.888
       242.000         206.000
   6288649.78149   4894649.58247  21993026.236    21993025.001    21993033.781
       233.000         191.000
  -4689799.57949  -3645217.12847  20685926.809    20685926.107    20685933.557
       245.000         211.000
  -7653529.21149  -5937731.06645  23767851.686    23767850.505    23767864.026
       218.000         159.000
 00  5  8 16 42 29.9980000  0  7G 2G 4G 5G24G 7G 9G16
   7077012.32249   5509291.08246  22971915.616    22971914.176    22971926.396
       218.000         167.000
  -6253495.49949  -4861912.64747  19732395.704    19732395.408    19732402.114
       240.000         208.000
 -14106172.06549 -10969583.86146  21775790.967    21775790.242    21775799.328
       233.000         187.000
 -15101779.68149 -11751027.15947  20369656.104    20369655.672    20369664.986
       242.000         206.000
   6342230.53749   4936400.73147  22003222.373    22003221.143    22003229.969
       233.000         191.000
  -4677571.73549  -3635688.98247  20688253.638    20688253.009    20688260.461
       245.000         210.000
  -7677905.09349  -5956725.24645  23763212.983    23763211.915    23763225.384
       220.000         159.000
 00  5  8 16 42 59.9980000  0  7G 2G 4G 5G24G 7G 9G16
   7147699.08949   5564371.48246  22985366.955    22985365.552    22985377.829
       218.000         167.000
  -6248890.54149  -4858324.39247  19733271.960    19733271.725    19733278.430
       241.000         209.000
 -14195171.99949 -11038934.40047  21758854.761    21758854.065    21758863.145
       233.000         188.000
 -15174087.03749 -11807370.52147  20355896.460    20355896.035    20355905.310
       243.000         207.000
   6395900.84249   4978221.64847  22013435.557    22013434.326    22013443.192
       233.000         190.000
  -4664762.85949  -3625708.09847  20690691.167    20690690.504    20690697.931
       246.000         211.000
  -7701757.45749  -5975311.49245  23758673.943    23758672.954    23758686.518
       217.000         159.000
 00  5  8 16 43 29.9980000  0  7G 2G 4G 5G24G 7G 9G16
   7218679.88949   5619681.01846  22998874.375    22998872.906    22998885.205
       218.000         165.000
  -6243652.01049  -4854242.43747  19734268.841    19734268.587    19734275.325
       240.000         208.000
 -14283999.74949 -11108150.76747  21741951.340    21741950.656    21741959.725
       233.000         189.000
 -15245886.32049 -11863317.97747  20342233.528    20342233.069    20342242.340
       242.000         207.000
   6449676.74349   5020124.85547  22023668.808    22023667.588    22023676.497
       233.000         191.000
  -4651357.11349  -3615262.11347  20693242.224    20693241.572    20693248.988
       246.000         210.000
  -7725068.60549  -5993475.99645  23754237.898    23754236.883    23754250.406
       219.000         156.000
 00  5  8 16 43 59.9980000  0  7G 2G 4G 5G24G 7G 9G16
   7289961.22149   5675224.72646  23012438.990    23012437.496    23012449.750
       220.000         165.000
  -6237773.89349  -4849662.10547  19735387.406    19735387.178    19735393.882
       240.000         208.000
 -14372646.40549 -11177226.02747  21725082.414    21725081.723    21725090.778
       233.000         189.000
 -15317168.65649 -11918862.63147  20328668.876    20328668.465    20328677.750
       242.000         207.000
   6503564.71449   5062115.39147  22033923.445    22033922.199    22033931.145
       233.000         190.000
  -4637348.47349  -3604346.34347  20695908.030    20695907.366    20695914.772
       246.000         210.000
  -7747829.82949  -6011212.01045  23749906.436    23749905.554    23749918.801
       219.000         152.000
 00  5  8 16 44 29.9980000  0  7G 2G 4G 5G24G 7G 9G16
   7361520.34949   5730984.89246  23026056.407    23026054.947    23026067.226
       216.000         164.000
  -6231279.31349  -4844601.40547  19736623.309    19736623.052    19736629.781
       240.000         208.000
 -14461132.35249 -11246176.04747  21708244.033    21708243.352    21708252.425
       232.000         189.000
 -15387954.70949 -11974020.56747  20315198.773    20315198.319    20315207.586
       243.000         207.000
   6557542.30849   5104175.75947  22044195.086    22044193.880    22044202.835
       233.000         190.000
  -4622760.01449  -3592978.75747  20698684.144    20698683.472    20698690.920
       246.000         210.000
  -7770061.68449  -6028535.52045  23745675.888    23745674.971    23745687.900
       217.000         153.000
 00  5  8 16 44 59.9980000  0  7G 2G 4G 5G24G 7G 9G16
   7433407.41549   5787000.58546  23039736.193    23039734.746    23039747.031
       217.000         163.000
  -6224118.31149  -4839021.43047  19737985.969    19737985.736    19737992.490
       240.000         209.000
 -14549404.99449 -11314959.87047  21691446.248    21691445.560    21691454.659
       233.000         189.000
 -15458191.80449 -12028750.75347  20301833.111    20301832.648    20301841.858
       243.000         207.000
   6611659.71049   5146345.05547  22054493.353    22054492.150    22054501.081
       233.000         188.000
  -4607541.87349  -3581120.52447  20701580.103    20701579.425    20701586.897
       246.000         210.000
  -7791712.04449  -6045405.91745  23741555.874    23741555.103    23741567.952
       218.000         154.000
 00  5  8 16 45 29.9980000  0  7G 2G 4G 5G24G 7G 9G16
   7505575.59049   5843235.33146  23053469.477    23053468.060    23053480.328
       217.000         164.000
  -6216337.95549  -4832958.84247  19739466.542    19739466.310    19739473.096
       240.000         209.000
 -14637508.68249 -11383612.03047  21674680.629    21674679.920    21674689.052
       233.000         188.000
 -15527924.63249 -12083087.99247  20288563.443    20288562.942    20288572.101
       243.000         207.000
   6665870.30949   5188586.98046  22064809.384    22064808.155    22064817.059
       232.000         187.000
  -4591741.13049  -3568808.31147  20704586.947    20704586.252    20704593.721
       246.000         210.000
  -7812825.41049  -6061857.83545  23737538.137    23737537.371    23737550.203
       216.000         152.000
 00  5  8 16 45 59.9980000  0  7G 2G 4G 5G24G 7G 9G16
   7578033.60449   5899695.91646  23067257.967    23067256.515    23067268.782
       217.000         163.000
  -6207930.21849  -4826407.38547  19741066.476    19741066.252    19741073.076
       240.000         209.000
 -14725432.45549 -11452124.00547  21657949.222    21657948.517    21657957.661
       232.000         189.000
 -15597142.25749 -12137023.77347  20275391.779    20275391.267    20275400.389
       243.000         207.000
   6720182.93649   5230908.42046  22075144.758    22075143.547    22075152.443
       232.000         187.000
  -4575349.62249  -3556035.76347  20707706.211    20707705.512    20707712.972
       246.000         210.000
  -7833391.68349  -6077883.47045  23733624.635    23733623.737    23733636.592
       216.000         153.000
 00  5  8 16 46 29.9980000  0  7G 2G 4G 5G24G 7G 9G16
   7650779.00549   5956380.44745  23081101.084    23081099.668    23081111.952
       219.000         162.000
  -6198897.70049  -4819369.08347  19742785.309    19742785.101    19742791.958
       240.000         209.000
 -14813176.18849 -11520495.68047  21641252.105    21641251.365    21641260.546
       232.000         189.000
 -15665844.55949 -12190558.00447  20262318.145    20262317.642    20262326.739
       243.000         207.000
   6774595.29349   5273307.57346  22085499.147    22085497.927    22085506.835
       232.000         186.000
  -4558369.92949  -3542804.88047  20710937.344    20710936.683    20710944.167
       246.000         210.000
  -7853410.59549  -6093482.58245  23729815.043    23729814.269    23729827.172
       217.000         155.000
 00  5  8 16 46 59.9980000  0  7G 2G 4G 5G24G 7G 9G16
   7723812.70149   6013289.61346  23094999.173    23094997.695    23095010.011
       216.000         163.000
  -6189239.91449  -4811843.56147  19744623.129    19744622.926    19744629.768
       240.000         209.000
 -14900736.20149 -11588724.20147  21624589.898    21624589.181    21624598.377
       233.000         189.000
 -15734028.54849 -12243688.35847  20249343.128    20249342.636    20249351.721
       243.000         207.000
   6829108.83749   5315785.57346  22095872.800    22095871.569    22095880.488
       232.000         186.000
  -4540801.54149  -3529115.27747  20714280.487    20714279.856    20714287.407
       246.000         211.000
  -7872879.62649  -6108653.21445  23726110.164    23726109.456    23726122.504
       219.000         154.000
 00  5  8 16 47 29.9980000  0  7G 2G 4G 5G24G 7G 9G16
   7797125.68149   6070416.40245  23108950.230    23108948.830    23108961.146
       215.000         160.000
  -6178966.22149  -4803838.10947  19746578.190    19746577.984    19746584.814
       240.000         209.000
 -14988119.34549 -11656814.90347  21607961.351    21607960.679    21607969.857
       233.000         189.000
 -15801701.02049 -12296420.13147  20236465.478    20236464.972    20236474.048
       243.000         207.000
   6883714.33349   5358335.21346  22106263.940    22106262.720    22106271.645
       232.000         186.000
  -4522654.05849  -3514974.43047  20717733.895    20717733.248    20717740.847
       246.000         212.000
  -7891805.64549  -6123400.71745  23722508.792    23722507.928    23722520.862
       218.000         155.000
 00  5  8 16 47 59.9980000  0  7G 2G 4G 5G24G 7G 9G16
   7870730.56149   6127770.65345  23122956.912    23122955.447    23122967.821
       217.000         162.000
  -6168064.50949  -4795343.29447  19748652.773    19748652.524    19748659.389
       240.000         210.000
 -15075310.27549 -11724755.82047  21591369.435    21591368.757    21591377.923
       233.000         190.000
 -15868847.00949 -12348741.64947  20223688.014    20223687.510    20223696.542
       243.000         207.000
   6938424.85149   5400966.68846  22116675.132    22116673.868    22116682.758
       231.000         186.000
  -4503915.00349  -3500372.61447  20721299.852    20721299.203    20721306.872
       246.000         212.000
  -7910173.87949  -6137713.56045  23719013.289    23719012.520    23719025.400
       216.000         153.000
 00  5  8 16 48 29.9980000  0  7G 2G 4G 5G24G 7G 9G16
   7944609.14149   6185338.16645  23137015.609    23137014.196    23137026.632
       217.000         160.000
  -6156553.21049  -4786373.47047  19750843.301    19750843.054    19750849.954
       240.000         209.000
 -15162324.47549 -11792559.03147  21574811.199    21574810.483    21574819.604
       234.000         191.000
 -15935482.54549 -12400665.41147  20211007.720    20211007.172    20211016.180
       243.000         207.000
   6993222.64549   5443666.17246  22127102.846    22127101.620    22127110.507
       231.000         185.000
  -4484603.25749  -3485324.54547  20724974.837    20724974.154    20724981.847
       246.000         211.000
  -7928000.68549  -6151604.50645  23715620.739    23715620.100    23715632.948
       218.000         155.000
 00  5  8 16 48 59.9980000  0  7G 2G 4G 5G24G 7G 9G16
   8018747.52249   6243108.12545  23151123.918    23151122.371    23151134.858
       216.000         160.000
  -6144446.96549  -4776940.06347  19753147.077    19753146.827    19753153.752
       240.000         210.000
 -15249173.62349 -11860233.63447  21558284.376    21558283.614    21558292.748
       234.000         192.000
 -16001619.52949 -12452200.70047  20198422.212    20198421.705    20198430.684
       243.000         207.000
   7048093.83449   5486422.84246  22137544.532    22137543.324    22137552.178
       231.000         184.000
  -4464732.91549  -3469841.22447  20728756.091    20728755.399    20728763.102
       246.000         211.000
  -7945298.07949  -6165082.89045  23712329.242    23712328.485    23712341.375
       219.000         159.000
 00  5  8 16 49 29.9980000  0  7G 2G 4G 5G24G 7G 9G16
   8093179.09849   6301106.52545  23165287.929    23165286.383    23165298.969
       217.000         160.000
  -6131712.80449  -4767017.36747  19755570.278    19755570.049    19755577.002
       240.000         209.000
 -15335821.34449 -11927751.27947  21541795.836    21541795.077    21541804.207
       233.000         192.000
 -16067222.00349 -12503319.48347  20185938.446    20185937.960    20185946.912
       243.000         208.000
   7103072.14949   5529262.98946  22148006.620    22148005.431    22148014.262
       231.000         184.000
  -4444270.91349  -3453896.86147  20732649.897    20732649.234    20732656.927
       246.000         211.000
  -7962030.49849  -6178121.05945  23709145.221    23709144.433    23709157.320
       216.000         158.000
 00  5  8 16 49 59.9980000  0  7G 2G 4G 5G24G 7G 9G16
   8167880.52549   6359315.22345  23179503.153    23179501.734    23179514.274
       215.000         159.000
  -6118374.36249  -4756623.80047  19758108.486    19758108.264    19758115.235
       240.000         209.000
 -15422288.65749 -11995128.34947  21525341.542    21525340.852    21525349.996
       234.000         192.000
 -16132311.07449 -12554038.21447  20173552.385    20173551.898    20173560.837
       243.000         207.000
   7158134.68049   5572168.75846  22158484.649    22158483.521    22158492.379
       230.000         184.000
  -4423241.15549  -3437510.09347  20736651.796    20736651.104    20736658.820
       247.000         211.000
  -7978219.64549  -6190735.89345  23706064.428    23706063.666    23706076.747
       215.000         158.000
 00  5  8 16 50 29.9980000  0  7G 2G 4G 5G24G 7G 9G16
   8242868.76149   6417747.38845  23193773.030    23193771.632    23193784.172
       216.000         158.000
  -6104415.09749  -4745746.47847  19760764.820    19760764.616    19760771.637
       240.000         209.000
 -15508555.92149 -12062349.53547  21508925.415    21508924.690    21508933.839
       233.000         191.000
 -16196867.78249 -12604342.10947  20161267.636    20161267.152    20161276.051
       244.000         208.000
   7213298.63249   5615153.55746  22168982.082    22168980.930    22168989.810
       230.000         184.000
  -4401627.06349  -3420667.99847  20740764.876    20740764.164    20740771.928
       246.000         211.000
  -7993846.11849  -6202912.31045  23703090.749    23703089.955    23703103.208
       215.000         157.000
 00  5  8 16 50 59.9980000  0  7G 2G 4G 5G24G 7G 9G16
   8318011.89749   6476300.25645  23208072.440    23208071.042    23208083.630
       215.000         157.000
  -6089967.44949  -4734488.60547  19763514.082    19763513.923    19763520.948
       241.000         209.000
 -15594752.28249 -12129515.48347  21492522.788    21492522.024    21492531.173
       234.000         192.000
 -16261021.89949 -12654332.30247  20149059.454    20149058.989    20149067.862
       243.000         208.000
   7268432.54449   5658114.94346  22179473.744    22179472.628    22179481.562
       230.000         183.000
  -4379561.09149  -3403473.80447  20744963.886    20744963.217    20744970.978
       247.000         211.000
  -8009040.36149  -6214751.87645  23700199.127    23700198.520    23700211.918
       216.000         158.000
 00  5  8 16 51 29.9980000  0  7G 2G 4G 5G24G 7G 9G16
   8393288.69049   6534957.27445  23222397.274    23222395.867    23222408.498
       215.000         157.000
  -6075053.28049  -4722867.20247  19766352.193    19766352.010    19766359.064
       241.000         209.000
 -15680896.46449 -12196640.76047  21476130.041    21476129.293    21476138.453
       233.000         193.000
 -16324792.25949 -12704023.46647  20136924.364    20136923.867    20136932.724
       243.000         208.000
   7323515.53049   5701036.65346  22189955.799    22189954.637    22189963.635
       232.000         183.000
  -4357064.98149  -3385944.43947  20749244.814    20749244.111    20749251.887
       246.000         210.000
  -8023821.71649  -6226269.71645  23697386.495    23697385.692    23697399.089
       218.000         159.000
 00  5  8 16 51 59.9980000  0  7G 2G 4G 5G24G 7G 9G16
   8468845.40149   6593832.38745  23236775.409    23236773.981    23236786.655
       217.000         156.000
  -6059526.72949  -4710768.61547  19769306.833    19769306.635    19769313.710
       242.000         209.000
 -15766839.55549 -12263609.35047  21459775.540    21459774.827    21459784.016
       235.000         193.000
 -16388030.67849 -12753300.12347  20124890.399    20124889.946    20124898.849
       244.000         209.000
   7378694.08149   5744032.82846  22200456.079    22200454.858    22200463.882
       233.000         185.000
  -4333992.88749  -3367966.25647  20753635.329    20753634.618    20753642.377
       247.000         210.000
  -8038041.85349  -6237350.28745  23694680.627    23694679.691    23694693.068
       218.000         158.000
 00  5  8 16 52 29.9980000  0  7G 2G 4G 5G24G 7G 9G16
   8544669.47649   6652915.85945  23251204.593    23251203.092    23251215.705
       215.000         159.000
  -6043401.09549  -4698203.20947  19772375.476    19772375.261    19772382.311
       242.000         208.000
 -15852591.34249 -12330428.86747  21443457.417    21443456.744    21443465.959
       235.000         192.000
 -16450747.43649 -12802170.30047  20112955.771    20112955.308    20112964.239
       244.000         209.000
   7433956.09449   5787094.03046  22210972.204    22210970.974    22210979.971
       232.000         184.000
  -4310357.83249  -3349549.39647  20758132.957    20758132.266    20758140.000
       246.000         210.000
  -8051711.72049  -6248002.05245  23692079.515    23692078.390    23692091.805
       220.000         159.000
 00  5  8 16 52 59.9980000  0  7G 2G 4G 5G24G 7G 9G16
   8620776.55149   6712219.84045  23265687.338    23265685.982    23265698.602
       214.000         158.000
  -6026661.23849  -4685159.18647  19775560.982    19775560.762    19775567.800
       241.000         208.000
 -15938133.47249 -12397085.00947  21427179.225    21427178.552    21427187.800
       233.000         192.000
 -16512924.85949 -12850620.21047  20101123.821    20101123.332    20101132.219
       243.000         208.000
   7489317.49449   5830232.67546  22221507.190    22221505.981    22221515.039
       231.000         185.000
  -4286144.63449  -3330682.02847  20762740.614    20762739.943    20762747.658
       246.000         210.000
  -8064813.67349  -6258211.30745  23689586.165    23689585.146    23689598.609
       216.000         161.000
 00  5  8 16 53 29.9980000  0  7G 2G 4G 5G24G 7G 9G16
   8697141.33049   6771724.60945  23280219.356    23280217.899    23280230.587
       216.000         158.000
  -6009332.96749  -4671656.66247  19778858.480    19778858.248    19778865.285
       242.000         209.000
 -16023488.66249 -12463595.49947  21410936.629    21410935.955    21410945.177
       236.000         192.000
 -16574586.10049 -12898667.89947  20089390.077    20089389.581    20089398.435
       244.000         208.000
   7544753.56349   5873429.50146  22232056.388    22232055.188    22232064.338
       233.000         185.000
  -4261379.53349  -3311384.60747  20767453.326    20767452.623    20767460.369
       247.000         210.000
  -8077370.92149  -6267996.12445  23687196.677    23687195.579    23687209.050
       219.000         161.000
 00  5  8 16 53 59.9980000  0  7G 2G 4G 5G24G 7G 9G16
   8773768.68849   6831433.99645  23294801.208    23294799.734    23294812.496
       214.000         157.000
  -5991412.03849  -4657692.33147  19782268.731    19782268.501    19782275.555
       241.000         209.000
 -16108649.52249 -12529954.57147  21394731.057    21394730.344    21394739.526
       234.000         192.000
 -16635724.04549 -12946307.82947  20077755.868    20077755.396    20077764.242
       242.000         208.000
   7600269.59949   5916688.64046  22242620.824    22242619.623    22242628.838
       232.000         185.000
  -4236058.11749  -3291653.70047  20772271.855    20772271.165    20772278.961
       246.000         210.000
  -8089377.35849  -6277351.76045  23684911.658    23684910.735    23684924.205
       217.000         159.000
 00  5  8 16 54 29.9980000  0  7G 2G 4G 5G24G 7G 9G16
   8850641.14449   6891334.34445  23309429.739    23309428.267    23309441.044
       215.000         156.000
  -5972916.17549  -4643280.00547  19785788.389    19785788.174    19785795.250
       241.000         210.000
 -16193630.42949 -12596173.41547  21378559.707    21378558.971    21378568.136
       235.000         193.000
 -16696354.20649 -12993552.08647  20066218.254    20066217.822    20066226.684
       242.000         208.000
   7655848.63949   5959996.88046  22253197.321    22253196.080    22253205.326
       232.000         185.000
  -4210197.99749  -3271503.01747  20777192.921    20777192.239    20777200.063
       247.000         210.000
  -8100848.01049  -6286289.90945  23682728.728    23682727.954    23682741.299
       217.000         160.000
 00  5  8 16 54 59.9980000  0  8G30G 2G 4G 5G24G 7G 9G16
  -2205874.57659  -1698179.20055  24523724.616    24523724.470    24523736.947
       217.000         144.000
   8927799.49449   6951457.48045  23324112.648    23324111.200    23324124.033
       214.000         156.000
  -5953805.51849  -4628388.61047  19789425.039    19789424.826    19789431.938
       241.000         209.000
 -16278387.82349 -12662218.08547  21362430.882    21362430.156    21362439.291
       235.000         193.000
 -16756433.32849 -13040366.95047  20054785.528    20054785.108    20054794.002
       242.000         208.000
   7711532.05449   6003386.44446  22263793.629    22263792.386    22263801.652
       232.000         185.000
  -4183759.23649  -3250901.44247  20782224.090    20782223.421    20782231.255
       247.000         210.000
  -8111740.64749  -6294777.64246  23680655.850    23680655.205    23680668.426
       220.000         163.000
 00  5  8 16 55 29.9980000  0  8G30G 2G 4G 5G24G 7G 9G16
  -2313796.96549  -1782274.59545  24503187.756    24503187.551    24503200.081
       216.000         136.000
   9005227.14849   7011790.46045  23338846.785    23338845.262    23338858.160
       213.000         155.000
  -5934097.09149  -4613031.42447  19793175.481    19793175.234    19793182.317
       242.000         209.000
 -16362935.60449 -12728099.41747  21346341.917    21346341.207    21346350.344
       235.000         193.000
 -16815976.13849 -13086763.91947  20043454.914    20043454.460    20043463.386
       242.000         208.000
   7767303.53349   6046844.62846  22274406.654    22274405.447    22274414.743
       232.000         185.000
  -4156758.84949  -3229862.24947  20787362.228    20787361.503    20787369.317
       247.000         210.000
  -8122069.90449  -6302826.39346  23678690.310    23678689.620    23678702.853
       219.000         163.000
 00  5  8 16 55 59.9980000  0  8G30G 2G 4G 5G24G 7G 9G16
  -2421731.63349  -1866379.50245  24482648.597    24482648.396    24482660.773
       213.000         139.000
   9082918.85149   7072329.18845  23353631.293    23353629.748    23353642.646
       215.000         154.000
  -5913796.65349  -4597212.92447  19797038.525    19797038.309    19797045.344
       241.000         208.000
 -16447275.81649 -12793819.01547  21330292.458    21330291.742    21330300.886
       236.000         193.000
 -16874985.63749 -13132745.31547  20032225.831    20032225.334    20032234.283
       243.000         209.000
   7823158.66549   6090368.00546  22285035.631    22285034.416    22285043.783
       231.000         184.000
  -4129202.65449  -3208389.95547  20792606.075    20792605.340    20792613.142
       246.000         210.000
  -8131839.24249  -6310438.85845  23676831.376    23676830.579    23676843.785
       219.000         161.000
 00  5  8 16 56 29.9980000  0  8G30G 2G 4G 5G24G 7G 9G16
  -2529696.01649  -1950507.68245  24462103.709    24462103.423    24462115.648
       218.000         145.000
   9160855.31949   7133058.63345  23368462.345    23368460.738    23368473.650
       215.000         156.000
  -5892924.20849  -4580948.70947  19801010.411    19801010.194    19801017.192
       242.000         207.000
 -16531424.98449 -12859389.74747  21314279.368    21314278.649    21314287.784
       237.000         193.000
 -16933479.12549 -13178324.62747  20021094.910    20021094.384    20021103.377
       244.000         209.000
   7879078.46649   6133941.76246  22295676.867    22295675.661    22295685.122
       232.000         184.000
  -4101110.48249  -3186500.02247  20797951.832    20797951.151    20797958.951
       247.000         209.000
  -8141066.14049  -6317628.65945  23675075.475    23675074.727    23675087.870
       221.000         159.000
 00  5  8 16 56 59.9980000  0  8G30G 2G 4G 5G24G 7G 9G16
  -2637684.25049  -2034654.35444  24441554.146    24441553.785    24441566.090
       213.000         126.000
   9239040.80249   7193982.07745  23383340.583    23383339.126    23383352.117
       211.000         153.000
  -5871476.24349  -4564236.03847  19805091.785    19805091.585    19805098.604
       240.000         209.000
 -16615376.62149 -12924806.56447  21298303.922    21298303.174    21298312.253
       236.000         194.000
 -16991450.63949 -13223497.20247  20010063.290    20010062.757    20010071.787
       242.000         209.000
   7935067.69749   6177569.62246  22306331.308    22306330.122    22306339.671
       230.000         183.000
  -4072478.78149  -3164189.67447  20803400.297    20803399.634    20803407.406
       247.000         209.000
  -8149744.78849  -6324391.23645  23673423.829    23673423.215    23673436.096
       217.000         155.000
 00  5  8 16 57 29.9980000  0  8G30G 2G 4G 5G24G 7G 9G16
  -2745649.58849  -2118783.16145  24421009.042    24421008.641    24421021.039
       215.000         144.000
   9317519.19349   7255133.79745  23398274.761    23398273.240    23398286.312
       212.000         158.000
  -5849409.61349  -4547041.29647  19809291.003    19809290.778    19809297.818
       241.000         210.000
 -16699083.91949 -12990032.97647  21282374.946    21282374.177    21282383.249
       236.000         195.000
 -17048853.96449 -13268227.03647  19999139.754    19999139.252    19999148.312
       242.000         208.000
   7991170.75349   6221286.16746  22317007.488    22317006.249    22317015.887
       230.000         183.000
  -4043264.54949  -3141425.40547  20808959.650    20808958.981    20808966.727
       246.000         209.000
  -8157829.44849  -6330690.97845  23671885.187    23671884.643    23671897.508
       213.000         154.000
 00  5  8 16 57 59.9980000  0  8G30G 2G 4G 5G24G 7G 9G16
  -2853377.94049  -2202727.41945  24400509.038    24400508.750    24400521.173
       202.000         134.000
   9396502.44949   7316678.89945  23413304.958    23413303.463    23413316.665
       211.000         153.000
  -5826512.92449  -4529199.75047  19813648.201    19813647.936    19813654.971
       242.000         210.000
 -16782332.00649 -13054901.57447  21266533.346    21266532.584    21266541.634
       237.000         195.000
 -17105475.01649 -13312347.30347  19988365.086    19988364.601    19988373.688
       242.000         208.000
   8047600.16849   6265257.02346  22327745.672    22327744.469    22327754.182
       230.000         183.000
  -4013256.23949  -3118042.37047  20814670.078    20814669.415    20814677.175
       246.000         209.000
  -8165106.60249  -6336361.50245  23670500.464    23670499.848    23670512.627
       216.000         157.000
 00  5  8 16 58 29.9980000  0  8G30G 2G 4G 5G24G 7G 9G16
  -2961085.66149  -2286655.38845  24380013.049    24380012.666    24380025.120
       210.000         133.000
   9475772.11549   7378447.15145  23428389.666    23428388.245    23428401.598
       212.000         156.000
  -5803005.39549  -4510882.22447  19818121.571    19818121.292    19818128.357
       241.000         209.000
 -16865336.38949 -13119580.26647  21250738.095    21250737.329    21250746.381
       236.000         195.000
 -17161530.41349 -13356026.79947  19977698.078    19977697.584    19977706.683
       242.000         208.000
   8104138.10449   6309312.42446  22338504.513    22338503.319    22338513.112
       229.000         183.000
  -3982673.05549  -3094211.38247  20820489.841    20820489.231    20820497.013
       246.000         209.000
  -8171793.03749  -6341571.72445  23669227.997    23669227.417    23669240.286
       216.000         156.000
 00  5  8 16 58 59.9980000  0  8G30G 2G 4G 5G24G 7G 9G16
  -3068805.58849  -2370593.04745  24359514.694    24359514.220    24359526.671
       213.000         147.000
   9555293.50249   7440411.59545  23443522.353    23443520.882    23443534.233
       212.000         157.000
  -5778922.41649  -4492116.30147  19822704.352    19822704.111    19822711.224
       240.000         208.000
 -16948129.10149 -13184094.02047  21234983.109    21234982.358    21234991.409
       236.000         195.000
 -17217052.98149 -13399291.10947  19967132.390    19967131.943    19967141.052
       241.000         207.000
   8160750.24349   6353425.65346  22349277.506    22349276.307    22349286.174
       230.000         183.000
  -3951550.49249  -3069960.09847  20826412.361    20826411.695    20826419.502
       246.000         209.000
  -8177921.99349  -6346347.58145  23668061.743    23668061.066    23668073.952
       218.000         155.000
 00  5  8 16 59 29.9970000  0  8G30G 2G 4G 5G24G 7G 9G16
  -3176551.24249  -2454550.69245  24339011.376    24339010.935    24339023.079
       214.000         133.000
   9635043.99149   7502554.51045  23458698.588    23458697.117    23458710.605
       211.000         153.000
  -5754285.47849  -4472918.71047  19827392.648    19827392.388    19827399.492
       241.000         209.000
 -17030724.39049 -13248453.93547  21219265.698    21219264.958    21219273.996
       236.000         195.000
 -17272058.79149 -13442152.74447  19956665.046    19956664.630    19956673.736
       241.000         207.000
   8217415.45249   6397580.25546  22360060.696    22360059.447    22360069.327
       230.000         183.000
  -3919910.24649  -3045305.41847  20832433.393    20832432.696    20832440.497
       246.000         209.000
  -8183511.16149  -6350702.78945  23666998.370    23666997.424    23667010.243
       219.000         156.000
 00  5  8 16 59 59.9970000  0  8G30G 2G 4G 5G24G 7G 9G16
  -3284282.00249  -2538496.57645  24318510.874    24318510.455    24318522.681
       203.000         136.000
   9715074.29749   7564915.48645  23473928.067    23473926.549    23473940.163
       215.000         156.000
  -5729048.04349  -4453253.20047  19832195.243    19832194.953    19832202.010
       242.000         209.000
 -17113078.94349 -13312626.27247  21203594.122    21203593.373    21203602.406
       236.000         196.000
 -17326503.82149 -13484577.40947  19946304.443    19946304.044    19946313.147
       241.000         207.000
   8274183.85849   6441815.24746  22370863.501    22370862.212    22370872.087
       229.000         181.000
  -3887705.27849  -3020210.70547  20838561.865    20838561.171    20838568.954
       247.000         210.000
  -8188514.21549  -6354601.32745  23666046.510    23666045.482    23666058.204
       218.000         160.000
 00  5  8 17  0 29.9970000  0  8G30G 2G 4G 5G24G 7G 9G16
  -3392037.96049  -2622462.40445  24298005.559    24298005.084    24298017.182
       206.000         140.000
   9795335.93249   7627456.70345  23489201.527    23489200.027    23489213.795
       212.000         156.000
  -5703257.47349  -4433156.67847  19837103.076    19837102.789    19837109.799
       242.000         209.000
 -17195233.17449 -13376642.51947  21187960.659    21187959.905    21187968.933
       236.000         195.000
 -17380430.29249 -13526598.00347  19936042.570    19936042.156    19936051.266
       241.000         207.000
   8331008.10649   6486093.76946  22381676.872    22381675.606    22381685.462
       230.000         181.000
  -3854983.23849  -2994713.08247  20844788.783    20844788.029    20844795.822
       246.000         210.000
  -8192974.94949  -6358077.26645  23665197.817    23665196.694    23665209.472
       218.000         161.000
 00  5  8 17  0 59.9970000  0  8G30G 2G 4G 5G24G 7G 9G16
  -3499810.54449  -2706440.79844  24277497.005    24277496.649    24277508.866
       211.000         129.000
   9875834.89849   7690182.88245  23504520.268    23504518.694    23504532.386
       213.000         152.000
  -5676908.33849  -4412624.90447  19842117.147    19842116.856    19842123.884
       242.000         209.000
 -17277177.78949 -13440495.42747  21172367.114    21172366.323    21172375.339
       237.000         195.000
 -17433829.85949 -13568208.02247  19925880.959    19925880.520    19925889.647
       242.000         208.000
   8387895.17149   6530421.24746  22392502.244    22392500.937    22392510.795
       230.000         181.000
  -3821738.42349  -2968808.08647  20851115.056    20851114.336    20851122.202
       246.000         210.000
  -8196885.54949  -6361124.52845  23664453.493    23664452.532    23664465.438
       215.000         158.000
 00  5  8 17  1 29.9970000  0  8G30G 2G 4G 5G24G 7G 9G16
  -3607574.29149  -2790412.51245  24256990.137    24256989.877    24257002.124
       215.000         151.000
   9956594.52949   7753112.12445  23519888.637    23519887.031    23519900.838
       211.000         154.000
  -5649978.06949  -4391640.30947  19847241.812    19847241.546    19847248.547
       242.000         209.000
 -17358886.73549 -13504164.70647  21156818.400    21156817.594    21156826.598
       236.000         195.000
 -17486677.48149 -13609387.95847  19915824.341    19915823.921    19915833.088
       241.000         208.000
   8444869.04649   6574816.34646  22403344.089    22403342.791    22403352.651
       230.000         179.000
  -3787948.40049  -2942478.27547  20857545.120    20857544.413    20857552.339
       246.000         210.000
  -8200220.97049  -6363723.62145  23663818.500    23663817.780    23663830.838
       213.000         158.000
 00  5  8 17  1 59.9970000  0  8G30G 2G 4G 5G24G 7G 9G16
  -3715346.48249  -2874390.82345  24236481.847    24236481.503    24236493.802
       212.000         144.000
  10037595.36249   7816229.37345  23535303.086    23535301.334    23535314.929
       210.000         149.000
  -5622487.13449  -4370218.82047  19852473.225    19852472.940    19852479.923
       242.000         210.000
 -17440376.61949 -13567663.27547  21141311.356    21141310.562    21141319.550
       237.000         196.000
 -17538990.75449 -13650151.50947  19905869.457    19905869.024    19905878.179
       241.000         207.000
   8501910.80749   6619264.36146  22414198.902    22414197.580    22414207.457
       229.000         180.000
  -3753633.15349  -2915739.19647  20864075.195    20864074.465    20864082.423
       246.000         210.000
  -8202999.64849  -6365888.88345  23663289.896    23663289.050    23663302.138
       219.000         161.000
 00  5  8 17  2 29.9970000  0  8G30G 2G 4G 5G24G 7G 9G16
  -3823118.40149  -2958368.71645  24215973.498    24215973.190    24215985.592
       214.000         144.000
  10118843.54349   7879539.31045  23550764.383    23550762.611    23550776.174
       210.000         152.000
  -5594430.06749  -4348356.19147  19857812.364    19857812.056    19857819.040
       242.000         210.000
 -17521638.39749 -13630984.10947  21125847.707    21125846.940    21125855.922
       237.000         197.000
 -17590761.62749 -13690492.42147  19896017.740    19896017.327    19896026.482
       241.000         207.000
   8559027.16849   6663770.49146  22425067.868    22425066.541    22425076.477
       229.000         180.000
  -3718787.65949  -2888586.94147  20870706.171    20870705.408    20870713.389
       246.000         210.000
  -8205213.41949  -6367613.96045  23662868.677    23662867.807    23662880.852
       214.000         159.000
 00  5  8 17  2 59.9970000  0  8G30G 2G 4G 5G24G 7G 9G16
  -3930906.88149  -3042359.72745  24195462.009    24195461.737    24195474.086
       209.000         147.000
  10200319.94349   7943027.06045  23566268.966    23566267.220    23566280.967
       209.000         152.000
  -5565826.61649  -4326067.80747  19863255.390    19863255.111    19863262.116
       241.000         209.000
 -17602687.96249 -13694139.58047  21110424.491    21110423.701    21110432.650
       238.000         198.000
 -17642007.34849 -13730424.11747  19886265.957    19886265.553    19886274.696
       241.000         207.000
   8616200.07149   6708320.68546  22435947.575    22435946.282    22435956.232
       228.000         179.000
  -3683431.77349  -2861036.97347  20877434.173    20877433.439    20877441.461
       246.000         210.000
  -8206880.09149  -6368912.73045  23662551.238    23662550.683    23662563.700
       215.000         161.000
 00  5  8 17  3 29.9970000  0  8G30G 2G 4G 5G24G 7G 9G16
  -4038695.23349  -3126350.58045  24174950.470    24174950.223    24174962.647
       210.000         149.000
  10282038.68149   8006703.69445  23581819.581    23581817.984    23581831.764
       210.000         153.000
  -5536663.45249  -4303343.28747  19868804.905    19868804.669    19868811.694
       241.000         209.000
 -17683508.00649 -13757116.20147  21095044.919    21095044.151    21095053.058
       237.000         197.000
 -17692711.57749 -13769933.87647  19876617.167    19876616.809    19876625.949
       240.000         207.000
   8673444.19449   6752926.38746  22446840.943    22446839.599    22446849.453
       231.000         180.000
  -3647552.19749  -2833078.93547  20884261.861    20884261.136    20884269.206
       245.000         210.000
  -8207983.71249  -6369772.74146  23662341.224    23662340.702    23662353.785
       216.000         163.000
 00  5  8 17  3 59.9970000  0  8G30G 2G 4G 5G24G 7G 9G16
  -4146484.65049  -3210342.22445  24154438.765    24154438.565    24154450.995
       215.000         152.000
  10363995.76049   8070565.96945  23597415.771    23597414.096    23597428.107
       213.000         147.000
  -5506945.28349  -4280186.28747  19874460.130    19874459.875    19874466.871
       242.000         209.000
 -17764099.76149 -13819914.93747  21079708.792    21079708.020    21079716.884
       238.000         196.000
 -17742876.43149 -13809023.33647  19867071.146    19867070.741    19867079.851
       241.000         207.000
   8730756.47549   6797585.17846  22457747.197    22457745.868    22457755.710
       229.000         180.000
  -3611153.29349  -2804716.21247  20891188.343    20891187.646    20891195.778
       246.000         210.000
  -8208526.71149  -6370195.90045  23662237.832    23662237.369    23662250.523
       216.000         161.000
 00  5  8 17  4 29.9970000  0  8G30G 2G 4G 5G24G 7G 9G16
  -4254261.00449  -3294323.72045  24133929.544    24133929.416    24133941.785
       217.000         154.000
  10446203.07349   8134623.29345  23613059.656    23613057.918    23613071.984
       212.000         155.000
  -5476660.91849  -4256588.10047  19880223.065    19880222.818    19880229.798
       243.000         209.000
 -17844447.92049 -13882523.85647  21064419.013    21064418.248    21064427.049
       239.000         197.000
 -17792488.14949 -13847681.78747  19857630.353    19857629.938    19857638.998
       242.000         207.000
   8788149.68149   6842307.04646  22468668.787    22468667.503    22468677.412
       230.000         179.000
  -3574224.02549  -2775940.22247  20898215.827    20898215.100    20898223.268
       246.000         210.000
  -8208495.80749  -6370171.89645  23662243.924    23662243.222    23662256.420
       217.000         161.000
 00  5  8 17  4 59.9970000  0  8G30G 2G 4G 5G24G 7G 9G16
  -4362042.37949  -3378309.12345  24113419.302    24113419.195    24113431.616
       215.000         149.000
  10528640.21649   8198859.75345  23628747.377    23628745.487    23628759.511
       208.000         150.000
  -5445831.54549  -4232565.23847  19886089.710    19886089.466    19886096.428
       243.000         209.000
 -17924570.13649 -13944956.71347  21049172.206    21049171.466    21049180.222
       239.000         197.000
 -17841565.49549 -13885923.85347  19848291.273    19848290.819    19848299.852
       242.000         208.000
   8845603.94649   6887076.48946  22479602.042    22479600.778    22479610.693
       230.000         179.000
  -3536785.68649  -2746767.56647  20905340.103    20905339.424    20905347.638
       246.000         209.000
  -8207910.01749  -6369715.48045  23662355.484    23662354.728    23662367.875
       219.000         161.000
 00  5  8 17  5 29.9970000  0  8G30G 2G 4G 5G24G 7G 9G16
  -4469812.93549  -3462286.05545  24092911.058    24092911.030    24092923.595
       211.000         148.000
  10611320.60449   8263285.65145  23644481.212    23644479.246    23644493.479
       212.000         157.000
  -5414444.75549  -4208108.02947  19892062.381    19892062.157    19892069.148
       241.000         208.000
 -18004450.00649 -14007200.73447  21033971.570    21033970.793    21033979.536
       238.000         197.000
 -17890092.88349 -13923737.37847  19839056.812    19839056.366    19839065.380
       241.000         208.000
   8903133.52649   6931904.61946  22490549.689    22490548.412    22490558.297
       228.000         179.000
  -3498825.48049  -2717188.25347  20912563.746    20912563.052    20912571.278
       245.000         209.000
  -8206754.24449  -6368814.91345  23662575.430    23662574.679    23662587.790
       218.000         160.000
 00  5  8 17  5 59.9970000  0  8G30G 2G 4G 5G24G 7G 9G16
  -4577579.67849  -3546260.08745  24072403.532    24072403.645    24072416.230
       210.000         146.000
  10694234.35049   8327893.43245  23660259.231    23660257.430    23660271.737
       209.000         149.000
  -5382511.19049  -4183224.75847  19898139.131    19898138.934    19898145.927
       242.000         209.000
 -18084094.42649 -14069261.28747  21018815.701    21018814.930    21018823.642
       238.000         197.000
 -17938078.50949 -13961128.75547  19829925.456    19829925.009    19829934.019
       241.000         209.000
   8960729.37449   6976784.38246  22501509.874    22501508.635    22501518.533
       227.000         179.000
  -3460354.17449  -2687210.67347  20919884.621    20919883.933    20919892.179
       245.000         208.000
  -8205037.22349  -6367477.01145  23662902.428    23662901.495    23662914.515
       216.000         158.000
 00  5  8 17  6 29.9970000  0  8G30G 2G 4G 5G24G 7G 9G16
  -4685326.22849  -3630218.34145  24051900.062    24051900.102    24051912.707
       211.000         144.000
  10777395.41249   8392693.94945  23676084.525    23676082.721    23676097.061
       206.000         151.000
  -5350017.51849  -4157905.04047  19904322.457    19904322.273    19904329.302
       241.000         208.000
 -18163486.09349 -14131124.87947  21003707.900    21003707.164    21003715.846
       237.000         197.000
 -17985506.59249 -13998085.67647  19820900.232    19820899.761    19820908.728
       241.000         208.000
   9018406.41349   7021727.42046  22512485.438    22512484.282    22512494.222
       227.000         178.000
  -3421358.55449  -2656824.54347  20927305.278    20927304.588    20927312.824
       246.000         208.000
  -8202743.11449  -6365689.40845  23663338.844    23663338.053    23663351.152
       214.000         158.000
 00  5  8 17  6 59.9970000  0  8G30G 2G 4G 5G24G 7G 9G16
  -4793081.06249  -3714183.04445  24031394.905    24031395.023    24031407.557
       213.000         150.000
  10860772.45349   8457662.70845  23691950.926    23691949.037    23691963.579
       213.000         147.000
  -5316995.97149  -4132173.99847  19910606.206    19910606.050    19910613.119
       242.000         208.000
 -18242653.11849 -14192813.42847  20988642.847    20988642.129    20988650.822
       238.000         197.000
 -18032406.54349 -14034631.07547  19811975.427    19811974.985    19811983.934
       241.000         208.000
   9076134.14649   7066709.94146  22523470.730    22523469.595    22523479.563
       227.000         178.000
  -3381870.69649  -2626054.86147  20934819.613    20934818.935    20934827.155
       246.000         208.000
  -8199901.87849  -6363475.48845  23663879.476    23663878.752    23663891.832
       217.000         155.000
 00  5  8 17  7 29.9970000  0  8G30G 2G 4G 5G24G 7G 9G16
  -4900810.14949  -3798127.65745  24010894.641    24010894.715    24010907.275
       217.000         149.000
  10944397.31249   8522824.59045  23707864.342    23707862.547    23707877.227
       208.000         154.000
  -5283415.68349  -4106007.57347  19916996.360    19916996.178    19917003.301
       242.000         209.000
 -18321560.80449 -14254299.89647  20973627.150    20973626.470    20973635.137
       238.000         197.000
 -18078744.93149 -14070738.88247  19803157.476    19803157.049    19803166.000
       241.000         207.000
   9133945.11449   7111757.32946  22534471.894    22534470.734    22534480.773
       227.000         178.000
  -3341859.95149  -2594877.73547  20942433.375    20942432.751    20942440.986
       246.000         208.000
  -8196480.47149  -6360809.47945  23664530.415    23664529.761    23664542.897
       213.000         155.000
 00  5  8 17  7 59.9970000  0  8G30G 2G 4G 5G24G 7G 9G16
  -5008525.88949  -3882061.91845  23990396.942    23990397.020    23990409.573
       216.000         146.000
  11028254.79049   8588167.84145  23723822.254    23723820.395    23723834.844
       211.000         143.000
  -5249292.48749  -4079418.11047  19923489.807    19923489.636    19923496.813
       243.000         210.000
 -18400220.99249 -14315593.50747  20958658.508    20958657.862    20958666.553
       239.000         197.000
 -18124534.93849 -14106419.38847  19794443.933    19794443.472    19794452.386
       241.000         208.000
   9191825.15949   7156858.54446  22545486.125    22545484.989    22545495.128
       226.000         177.000
  -3301342.03849  -2563305.41447  20950143.707    20950143.093    20950151.349
       246.000         208.000
  -8192492.70549  -6357702.16545  23665289.280    23665288.568    23665301.728
       218.000         156.000
 00  5  8 17  8 29.9970000  0  8G30G 2G 4G 5G24G 7G 9G16
  -5116190.36449  -3965956.19645  23969908.884    23969909.076    23969921.628
       214.000         143.000
  11112380.50049   8653719.89345  23739830.945    23739829.117    23739844.022
       215.000         158.000
  -5214591.60349  -4052378.48947  19930093.231    19930093.032    19930100.224
       243.000         210.000
 -18478595.04849 -14376664.15847  20943744.359    20943743.718    20943752.398
       238.000         197.000
 -18169739.26849 -14141643.52047  19785841.798    19785841.362    19785850.242
       240.000         208.000
   9249810.64049   7202041.92346  22556520.410    22556519.296    22556529.474
       226.000         175.000
  -3260282.30149  -2531310.88547  20957957.163    20957956.534    20957964.812
       245.000         207.000
  -8187901.64149  -6354124.72845  23666163.095    23666162.281    23666175.363
       215.000         155.000
 00  5  8 17  8 59.9970000  0  9G30G 2G10G 4G 5G24G 7G 9G16
  -5223880.54349  -4049870.50145  23949416.073    23949416.199    23949428.773
       216.000         147.000
  11196694.45449   8719418.84645  23755875.695    23755873.872    23755888.545
       204.000         136.000
   -311925.37059   -230865.60854  24362720.095    24362717.007    24362734.414
       206.000         129.000
  -5179394.08949  -4024951.89247  19936791.128    19936790.929    19936798.119
       242.000         210.000
 -18556759.57049 -14437571.54247  20928870.109    20928869.451    20928878.099
       238.000         197.000
 -18214436.06449 -14176472.17647  19777336.303    19777335.853    19777344.693
       240.000         208.000
   9307822.70049   7247246.02246  22567559.839    22567558.685    22567568.907
       226.000         176.000
  -3218761.36049  -2498956.98047  20965858.385    20965857.759    20965866.020
       244.000         207.000
  -8182785.62749  -6350138.26345  23667136.620    23667135.835    23667148.830
       215.000         155.000
 00  5  8 17  9 29.9970000  0  9G30G 2G10G 4G 5G24G 7G 9G16
  -5331795.29649  -4133959.81645  23928880.382    23928880.582    23928893.125
       211.000         144.000
  11280995.40649   8785107.53245  23771918.110    23771916.130    23771931.030
       206.000         154.000
   -415974.19659   -311942.76955  24342920.425    24342920.672    24342937.138
       206.000         137.000
  -5143901.93049  -3997295.69547  19943545.102    19943544.877    19943552.048
       243.000         208.000
 -18634912.89949 -14498470.19847  20913997.962    20913997.335    20914005.959
       239.000         198.000
 -18258824.78949 -14211060.76947  19768889.443    19768888.960    19768897.770
       241.000         208.000
   9365660.86249   7292314.61146  22578566.178    22578564.991    22578575.276
       225.000         177.000
  -3176981.49849  -2466401.31347  20973808.817    20973808.240    20973816.520
       245.000         206.000
  -8177344.55149  -6345898.52845  23668172.054    23668171.186    23668184.247
       217.000         156.000
 00  5  8 17  9 59.9970000  0  9G30G 2G10G 4G 5G24G 7G 9G16
  -5439731.89749  -4218066.10845  23908340.584    23908340.841    23908353.401
       212.000         142.000
  11365483.50149   8850942.10745  23787995.761    23787993.898    23788008.612
       216.000         142.000
   -520175.97849   -393138.69744  24323091.316    24323090.158    24323106.649
       208.000         130.000
  -5107915.86749  -3969254.63947  19950393.063    19950392.826    19950399.963
       243.000         209.000
 -18712851.73049 -14559201.71747  20899166.676    20899166.035    20899174.654
       239.000         199.000
 -18302703.89449 -14245252.26247  19760539.520    19760539.036    19760547.863
       241.000         209.000
   9423526.02849   7337404.22446  22589577.600    22589576.447    22589586.777
       225.000         176.000
  -3134743.75449  -2433488.85747  20981846.452    20981845.852    20981854.126
       245.000         206.000
  -8171377.32749  -6341248.80245  23669307.611    23669306.740    23669319.808
       215.000         155.000
 00  5  8 17 10 29.9970000  0  9G30G 2G10G 4G 5G24G 7G 9G16
  -5547566.69649  -4302093.08845  23887820.267    23887820.467    23887833.032
       215.000         148.000
  11450279.41349   8917016.48345  23804132.041    23804130.270    23804145.313
       204.000         149.000
   -624405.46949   -474356.59745  24303257.116    24303256.126    24303272.382
       200.000         135.000
  -5071316.10449  -3940735.37647  19957357.817    19957357.565    19957364.674
       243.000         209.000
 -18790452.01349 -14619669.44347  20884399.841    20884399.158    20884407.762
       239.000         199.000
 -18345950.39449 -14278950.81647  19752309.961    19752309.490    19752318.363
       240.000         208.000
   9481540.10549   7382609.88646  22600617.367    22600616.198    22600626.586
       225.000         175.000
  -3091928.04349  -2400126.03947  20989994.090    20989993.455    20990001.737
       244.000         206.000
  -8164761.72649  -6336093.81645  23670566.735    23670565.633    23670578.622
       212.000         155.000
 00  5  8 17 10 59.9970000  0  9G30G 2G10G 4G 5G24G 7G 9G16
  -5655169.20349  -4385939.08545  23867344.210    23867344.344    23867356.849
       215.000         149.000
  11535510.76849   8983430.17945  23820351.365    23820349.487    23820364.549
       209.000         135.000
   -728531.23349   -555493.27145  24283442.646    24283441.476    24283458.271
       210.000         139.000
  -5033975.90249  -3911639.14247  19964463.502    19964463.225    19964470.313
       243.000         210.000
 -18867583.03949 -14679771.51447  20869722.303    20869721.596    20869730.152
       239.000         199.000
 -18388435.42649 -14312056.01947  19744225.292    19744224.825    19744233.719
       241.000         208.000
   9539831.66949   7428031.76846  22611709.944    22611708.784    22611719.232
       225.000         176.000
  -3048407.72349  -2366214.17247  20998275.781    20998275.150    20998283.448
       243.000         206.000
  -8157368.67649  -6330333.05445  23671973.470    23671972.521    23671985.362
       218.000         154.000
 00  5  8 17 11 29.9970000  0  9G30G 2G10G 4G 5G24G 7G 9G16
  -5762753.23949  -4469770.67545  23846871.620    23846871.715    23846884.111
       220.000         149.000
  11620961.42449   9050014.78045  23836612.089    23836610.471    23836625.458
       210.000         146.000
   -832765.99549   -636715.21845  24263607.415    24263606.157    24263623.126
       203.000         135.000
  -4996112.43749  -3882135.18447  19971668.768    19971668.453    19971675.571
       242.000         210.000
 -18944457.49349 -14739673.66247  20855093.589    20855092.855    20855101.380
       239.000         198.000
 -18430373.39049 -14344734.93847  19736244.771    19736244.300    19736253.154
       240.000         208.000
   9598185.32349   7473502.03846  22622814.330    22622813.202    22622823.708
       224.000         177.000
  -3004399.66649  -2331922.25647  21006650.265    21006649.643    21006657.960
       242.000         205.000
  -8149413.46149  -6324134.23445  23673487.339    23673486.371    23673499.101
       219.000         151.000
 00  5  8 17 11 59.9970000  0  9G30G 2G10G 4G 5G24G 7G 9G16
  -5870330.92549  -4553597.30545  23826400.244    23826400.314    23826412.677
       220.000         156.000
  11706616.21649   9116758.47445  23852911.695    23852910.228    23852925.349
       206.000         142.000
   -937120.98049   -718030.57945  24243749.201    24243747.919    24243765.140
       211.000         142.000
  -4957741.41449  -3852235.72947  19978970.539    19978970.235    19978977.396
       243.000         209.000
 -19021087.25849 -14799385.15447  20840511.436    20840510.662    20840519.172
       239.000         199.000
 -18471777.47449 -14376997.84947  19728365.906    19728365.378    19728374.198
       241.000         208.000
   9656587.24849   7519009.90446  22633927.986    22633926.810    22633937.390
       224.000         178.000
  -2959919.84449  -2297262.73047  21015114.553    21015113.909    21015122.255
       244.000         206.000
  -8140909.55449  -6317507.81145  23675105.440    23675104.594    23675117.038
       216.000         150.000
 00  5  8 17 12 29.9970000  0  9G30G 2G10G 4G 5G24G 7G 9G16
  -5977874.54949  -4637397.40345  23805935.351    23805935.363    23805947.714
       222.000         159.000
  11792500.33749   9183680.85745  23869255.142    23869253.668    23869268.821
       202.000         138.000
  -1041566.78749   -799416.90445  24223873.388    24223872.477    24223889.996
       206.000         134.000
  -4918838.64749  -3821921.90947  19986373.520    19986373.205    19986380.320
       242.000         208.000
 -19097444.02749 -14858883.90747  20825981.184    20825980.438    20825988.941
       239.000         199.000
 -18512620.87549 -14408823.85747  19720593.657    19720593.142    19720601.934
       240.000         208.000
   9715063.53249   7564575.71846  22645055.679    22645054.524    22645065.263
       224.000         178.000
  -2914944.09249  -2262216.76147  21023673.173    21023672.562    21023680.928
       243.000         206.000
  -8131830.71749  -6310433.39545  23676833.122    23676832.190    23676844.839
       215.000         153.000
 00  5  8 17 12 59.9970000  0  9G30G 2G10G 4G 5G24G 7G 9G16
  -6085382.54949  -4721169.71745  23785477.115    23785477.188    23785489.548
       223.000         160.000
  11878612.33249   9250780.77545  23885641.974    23885640.451    23885655.867
       213.000         152.000
  -1146100.90849   -880871.94545  24203981.201    24203980.286    24203997.706
       199.000         140.000
  -4879406.50249  -3791195.59447  19993877.189    19993876.916    19993884.020
       242.000         208.000
 -19173526.07949 -14918168.59547  20811503.217    20811502.478    20811510.984
       239.000         200.000
 -18552903.51549 -14440212.91747  19712928.106    19712927.616    19712936.392
       240.000         207.000
   9773613.51949   7610198.95746  22656197.434    22656196.293    22656207.119
       223.000         177.000
  -2869474.93749  -2226786.32747  21032325.774    21032325.129    21032333.480
       243.000         206.000
  -8122176.87049  -6302910.93845  23678670.088    23678669.363    23678682.129
       219.000         154.000
 00  5  8 17 13 29.9970000  0  9G30G 2G10G 4G 5G24G 7G 9G16
  -6192863.03749  -4804920.62545  23765024.258    23765024.287    23765036.624
       220.000         161.000
  11964941.43049   9318049.84145  23902070.092    23902068.655    23902084.132
       201.000         133.000
  -1250730.19249   -962401.17945  24184070.874    24184069.912    24184087.242
       206.000         137.000
  -4839456.68149  -3760065.88847  20001479.421    20001479.134    20001486.247
       243.000         208.000
 -19249340.84349 -14977245.01247  20797076.144    20797075.395    20797083.877
       240.000         201.000
 -18592634.45949 -14471172.08547  19705367.573    19705367.066    19705375.833
       240.000         207.000
   9832227.78649   7655872.30046  22667351.424    22667350.307    22667361.202
       225.000         178.000
  -2823523.82349  -2190980.34347  21041070.089    21041069.390    21041077.748
       243.000         206.000
  -8111957.90749  -6294948.12145  23680614.968    23680614.037    23680626.841
       217.000         153.000
 00  5  8 17 13 59.9970000  0  9G30G 2G10G 4G 5G24G 7G 9G16
  -6300327.06449  -4888658.69045  23744574.458    23744574.476    23744586.813
       220.000         162.000
  12051473.71249   9385477.36445  23918537.160    23918535.485    23918550.745
       208.000         148.000
  -1355464.80549  -1044012.44445  24164140.692    24164139.595    24164156.858
       205.000         143.000
  -4799004.07949  -3728544.41047  20009177.292    20009177.029    20009184.144
       243.000         209.000
 -19324899.10149 -15036121.55547  20782697.864    20782697.110    20782705.588
       239.000         200.000
 -18631826.02549 -14501710.96447  19697909.622    19697909.152    19697917.890
       239.000         207.000
   9890893.27949   7701585.54546  22678515.249    22678514.079    22678525.062
       225.000         178.000
  -2777105.69849  -2154810.45847  21049903.183    21049902.507    21049910.890
       243.000         207.000
  -8101186.28149  -6286554.62345  23682664.844    23682663.884    23682676.612
       213.000         152.000
 00  5  8 17 14 29.9970000  0  9G30G 2G10G 4G 5G24G 7G 9G16
  -6407764.08349  -4972375.71645  23724129.785    23724129.821    23724142.138
       219.000         160.000
  12138216.77649   9453068.94045  23935043.911    23935042.335    23935058.012
       206.000         142.000
  -1460293.50149  -1125697.16245  24144192.466    24144191.309    24144208.254
       205.000         139.000
  -4758041.91249  -3696625.87647  20016972.080    20016971.847    20016979.052
       242.000         209.000
 -19400189.92549 -15094789.70547  20768370.444    20768369.726    20768378.176
       239.000         200.000
 -18670468.97649 -14531822.34447  19690556.126    19690555.640    19690564.361
       239.000         207.000
   9949618.72349   7747345.50346  22689690.444    22689689.251    22689700.315
       223.000         178.000
  -2730213.98149  -2118271.54547  21058826.494    21058825.784    21058834.158
       243.000         207.000
  -8089853.46049  -6277723.86145  23684821.399    23684820.442    23684833.450
       213.000         158.000
 00  5  8 17 14 59.9970000  0  9G30G 2G10G 4G 5G24G 7G 9G16
  -6515155.68749  -5056057.35545  23703693.780    23703693.839    23703706.094
       219.000         160.000
  12225186.29049   9520837.18745  23951594.005    23951592.340    23951607.725
       207.000         143.000
  -1565196.37249  -1207439.48445  24124229.884    24124228.922    24124245.886
       209.000         146.000
  -4716555.47349  -3664298.81347  20024866.700    20024866.478    20024873.693
       242.000         208.000
 -19475194.16449 -15153234.54047  20754097.555    20754096.851    20754105.309
       239.000         200.000
 -18708545.89649 -14561492.65947  19683310.283    19683309.827    19683318.529
       238.000         206.000
  10008420.97149   7793165.31546  22700880.316    22700879.075    22700890.159
       226.000         177.000
  -2682833.88649  -2081352.07247  21067842.707    21067841.982    21067850.399
       243.000         207.000
  -8077942.47149  -6268442.60845  23687087.990    23687087.106    23687100.265
       218.000         160.000
 00  5  8 17 15 29.9970000  0  9G30G 2G10G 4G 5G24G 7G 9G16
  -6622506.69749  -5139707.35345  23683265.484    23683265.577    23683277.743
       216.000         158.000
  12312374.62549   9588775.76145  23968185.665    23968184.030    23968199.735
       208.000         140.000
  -1670177.25649  -1289242.75445  24104252.388    24104251.620    24104268.528
       203.000         133.000
  -4674553.28849  -3631569.87247  20032859.412    20032859.218    20032866.458
       242.000         208.000
 -19549916.12449 -15211459.41847  20739878.403    20739877.708    20739886.146
       239.000         200.000
 -18746062.90449 -14590726.67847  19676171.059    19676170.588    19676179.261
       239.000         206.000
  10067293.34449   7839039.75346  22712083.556    22712082.267    22712093.321
       224.000         176.000
  -2634973.92549  -2044058.68047  21076950.208    21076949.477    21076957.942
       244.000         207.000
  -8065459.69249  -6258715.75645  23689463.486    23689462.558    23689475.808
       218.000         159.000
 00  5  8 17 15 59.9970000  0  9G30G 2G10G 4G 5G24G 7G 9G16
  -6729797.71949  -5223310.58145  23662848.613    23662848.672    23662860.806
       218.000         155.000
  12399798.28549   9656897.83345  23984822.147    23984820.424    23984835.995
       213.000         144.000
  -1775215.20949  -1371090.49845  24084264.699    24084263.620    24084280.400
       203.000         147.000
  -4632020.01449  -3598427.09747  20040953.257    20040953.061    20040960.285
       242.000         208.000
 -19624336.10349 -15269448.99147  20725716.712    20725716.032    20725724.445
       239.000         200.000
 -18783002.09649 -14619510.45547  19669141.771    19669141.300    19669149.966
       238.000         206.000
  10126253.36849   7884982.49446  22723303.311    22723302.081    22723313.145
       223.000         176.000
  -2586618.64849  -2006379.33147  21086151.967    21086151.238    21086159.708
       244.000         206.000
  -8052387.81449  -6248529.89345  23691950.997    23691950.063    23691963.211
       213.000         158.000
 00  5  8 17 16 29.9970000  0  9G30G 2G10G 4G 5G24G 7G 9G16
  -6837054.82449  -5306887.40945  23642438.161    23642438.245    23642450.314
       219.000         155.000
  12487428.21149   9725180.60445  24001497.853    24001496.211    24001511.693
       204.000         137.000
  -1880335.64149  -1453002.42345  24064261.054    24064259.789    24064276.428
       208.000         136.000
  -4588985.64449  -3564893.86147  20049142.461    20049142.250    20049149.499
       242.000         208.000
 -19698479.61949 -15327223.13547  20711607.655    20711606.960    20711615.374
       239.000         200.000
 -18819390.80149 -14647865.27847  19662217.237    19662216.769    19662225.400
       238.000         206.000
  10185273.21149   7930971.84646  22734534.568    22734533.302    22734544.372
       224.000         176.000
  -2537797.97649  -1968337.34047  21095442.343    21095441.595    21095450.012
       243.000         206.000
  -8038754.65149  -6237906.66145  23694545.087    23694544.268    23694557.546
       216.000         158.000
 00  5  8 17 16 59.9970000  0  9G30G 2G10G 4G 5G24G 7G 9G16
  -6944271.17749  -5390432.48845  23622035.483    23622035.610    23622047.579
       217.000         157.000
  12575268.01049   9793626.93645  24018213.310    24018211.653    24018227.236
       208.000         144.000
  -1985530.62449  -1534972.52545  24044242.980    24044241.834    24044258.410
       196.000         140.000
  -4545447.01849  -3530967.70147  20057427.552    20057427.363    20057434.693
       241.000         209.000
 -19772339.69649 -15384776.41747  20697552.542    20697551.845    20697560.222
       240.000         201.000
 -18855223.76749 -14675787.05547  19655398.406    19655397.954    19655406.619
       238.000         206.000
  10244357.75949   7977011.61546  22745778.178    22745776.841    22745787.898
       224.000         176.000
  -2488509.11749  -1929930.52747  21104821.750    21104821.011    21104829.408
       243.000         205.000
  -8024555.09449  -6226842.07345  23697247.077    23697246.367    23697259.467
       220.000         158.000
 00  5  8 17 17 29.9970000  0  9G30G 2G10G 4G 5G24G 7G 9G16
  -7051463.19349  -5473958.63945  23601637.438    23601637.584    23601649.455
       220.000         156.000
  12663298.72049   9862221.97145  24034965.264    24034963.627    24034979.229
       206.000         142.000
  -2090815.24349  -1617012.44645  24024208.219    24024206.834    24024223.133
       206.000         145.000
  -4501424.53549  -3496664.51947  20065804.802    20065804.604    20065811.964
       242.000         209.000
 -19845932.23549 -15442121.23447  20683548.378    20683547.620    20683555.990
       239.000         201.000
 -18890518.62549 -14703289.52747  19648682.003    19648681.551    19648690.233
       239.000         206.000
  10303488.95549   8023087.73146  22757030.624    22757029.262    22757040.316
       223.000         175.000
  -2438772.35049  -1891174.69247  21114286.428    21114285.682    21114294.055
       243.000         205.000
  -8009807.61349  -6215350.50345  23700053.470    23700052.710    23700065.692
       216.000         157.000
 00  5  8 17 17 59.9970000  0  9G30G 2G10G 4G 5G24G 7G 9G16
  -7158616.82949  -5557454.85145  23581246.597    23581246.840    23581258.690
       220.000         156.000
  12751531.48249   9930974.46545  24051755.716    24051754.088    24051769.775
       206.000         142.000
  -2196174.59449  -1699110.49845  24004158.257    24004157.389    24004173.693
       207.000         142.000
  -4456907.76649  -3461976.17647  20074276.094    20074275.889    20074283.263
       242.000         208.000
 -19919242.56249 -15499246.13847  20669597.853    20669597.114    20669605.465
       238.000         201.000
 -18925262.61249 -14730362.75047  19642070.432    19642069.972    19642078.698
       239.000         207.000
  10362679.20449   8069209.88546  22768294.248    22768292.893    22768303.981
       223.000         174.000
  -2388577.45249  -1852061.87747  21123838.301    21123837.525    21123845.884
       243.000         205.000
  -7994499.49649  -6203422.10745  23702966.569    23702965.687    23702978.776
       214.000         161.000
 00  5  8 17 18 29.9970000  0  9G30G 2G10G 4G 5G24G 7G 9G16
  -7265716.36749  -5640908.91045  23560866.186    23560866.356    23560878.251
       220.000         158.000
  12839978.77049   9999894.15445  24068586.780    24068585.250    24068601.021
       206.000         142.000
  -2301591.28249  -1781253.32845  23984098.352    23984097.430    23984113.596
       201.000         137.000
  -4411885.35049  -3426893.81747  20082843.638    20082843.396    20082850.751
       242.000         208.000
 -19992254.89449 -15556138.83847  20655704.021    20655703.296    20655711.665
       238.000         201.000
 -18959441.70649 -14756995.78847  19635566.351    19635565.905    19635574.651
       238.000         207.000
  10421942.22049   8115388.73646  22779571.816    22779570.385    22779581.454
       224.000         174.000
  -2337913.09149  -1812583.23047  21133479.450    21133478.694    21133487.087
       242.000         205.000
  -7978617.68349  -6191046.68945  23705988.801    23705987.984    23706001.153
       217.000         162.000
 00  5  8 17 18 59.9970000  0  9G30G 2G10G 4G 5G24G 7G 9G16
  -7372789.82249  -5724342.67045  23540490.706    23540490.833    23540502.688
       222.000         160.000
  12928609.75049  10068956.94745  24085452.701    24085451.358    24085467.378
       202.000         140.000
  -2407092.77149  -1863462.19045  23964022.054    23964020.949    23964037.405
       211.000         149.000
  -4366388.90749  -3391442.09447  20091501.329    20091501.108    20091508.453
       242.000         208.000
 -20064996.49049 -15612820.58447  20641861.695    20641861.008    20641869.374
       239.000         202.000
 -18993085.24349 -14783211.51847  19629164.210    19629163.759    19629172.505
       238.000         206.000
  10481248.22749   8161601.08046  22790857.412    22790856.051    22790867.104
       222.000         171.000
  -2286810.90449  -1772763.42947  21143203.896    21143203.179    21143211.636
       242.000         205.000
  -7962191.62149  -6178247.18045  23709114.757    23709113.848    23709127.042
       219.000         162.000
 00  5  8 17 19 29.9970000  0  9G30G 2G10G 4G 5G24G 7G 9G16
  -7479820.35349  -5807742.94946  23520123.289    23520123.503    23520135.364
       221.000         163.000
  13017437.98249  10138173.41845  24102356.341    24102354.986    24102371.234
       203.000         135.000
  -2512661.08049  -1945723.16045  23943933.058    23943931.964    23943948.449
       201.000         139.000
  -4320405.97849  -3355611.29047  20100251.616    20100251.403    20100258.719
       242.000         208.000
 -20137450.48949 -15669278.22047  20628074.151    20628073.471    20628081.827
       239.000         203.000
 -19026178.16849 -14808998.19747  19622866.743    19622866.332    19622875.114
       237.000         205.000
  10540612.09649   8207858.52046  22802153.980    22802152.688    22802163.737
       223.000         173.000
  -2235258.33849  -1732592.67547  21153014.100    21153013.376    21153021.875
       243.000         205.000
  -7945206.84749  -6165012.28745  23712346.976    23712345.962    23712359.253
       215.000         158.000
 00  5  8 17 19 59.9970000  0  9G30G 2G10G 4G 5G24G 7G 9G16
  -7586803.02449  -5891105.94245  23499764.989    23499765.254    23499777.157
       220.000         162.000
  13106465.72049  10207545.43744  24119297.901    24119296.530    24119312.560
       201.000         127.000
  -2618289.76449  -2028031.12945  23923832.554    23923831.465    23923847.997
       210.000         145.000
  -4273935.25349  -3319400.38447  20109094.796    20109094.550    20109101.832
       243.000         209.000
 -20209611.34249 -15725507.43247  20614342.436    20614341.725    20614350.083
       240.000         203.000
 -19058716.91049 -14834353.04147  19616674.779    19616674.401    19616683.155
       238.000         205.000
  10600037.27049   8254163.73046  22813462.324    22813461.044    22813472.043
       224.000         172.000
  -2183254.27449  -1692070.10947  21162910.203    21162909.500    21162918.037
       243.000         205.000
  -7927660.01249  -6151339.44545  23715685.860    23715684.936    23715698.372
       216.000         157.000
 00  5  8 17 20 29.9970000  0  9G30G 2G10G 4G 5G24G 7G 9G16
  -7693756.61249  -5974446.28446  23479412.304    23479412.579    23479424.480
       220.000         163.000
  13195671.26548  10277055.90145  24136273.194    24136271.809    24136288.302
       191.000         141.000
  -2723996.57949  -2110400.04445  23903717.223    23903716.153    23903732.595
       209.000         144.000
  -4226999.45249  -3282827.09047  20118026.431    20118026.182    20118033.492
       243.000         209.000
 -20281497.30849 -15781522.44947  20600662.959    20600662.268    20600670.673
       241.000         204.000
 -19090721.73249 -14859291.84747  19610584.471    19610584.071    19610592.783
       238.000         205.000
  10659503.06749   8300500.58246  22824778.401    22824777.119    22824788.086
       223.000         172.000
  -2130821.53549  -1651213.51147  21172887.818    21172887.174    21172895.735
       242.000         204.000
  -7909572.09749  -6137244.97145  23719127.860    23719126.926    23719140.459
       215.000         154.000
 00  5  8 17 20 59.9970000  0  9G30G 2G10G 4G 5G24G 7G 9G16
  -7800654.83349  -6057743.45546  23459070.195    23459070.436    23459082.328
       216.000         163.000
  13285077.08649  10346722.42144  24153287.054    24153285.450    24153301.802
       215.000         131.000
  -2829754.63949  -2192808.80545  23883592.088    23883591.005    23883607.455
       208.000         144.000
  -4179576.86449  -3245874.47847  20127050.694    20127050.446    20127057.784
       243.000         209.000
 -20353082.17249 -15837302.83947  20587040.840    20587040.116    20587048.528
       239.000         204.000
 -19122168.46449 -14883795.76847  19604600.406    19604599.972    19604608.639
       238.000         206.000
  10719033.62949   8346887.92046  22836106.811    22836105.527    22836116.475
       224.000         173.000
  -2077938.24049  -1610005.83347  21182951.201    21182950.578    21182959.156
       242.000         204.000
  -7890919.32749  -6122710.37045  23722677.173    23722676.357    23722689.850
       211.000         153.000
 00  5  8 17 21 29.9970000  0  9G30G 2G10G 4G 5G24G 7G 9G16
  -7907507.56349  -6141005.17845  23438736.704    23438736.895    23438748.834
       217.000         160.000
  13374670.74659  10416535.48554  24170336.302    24170334.847    24170351.056
       196.000         125.000
  -2935572.32349  -2275264.12345  23863455.953    23863454.688    23863470.764
       206.000         144.000
  -4131681.10049  -3208553.15747  20136164.987    20136164.734    20136172.087
       243.000         209.000
 -20424375.31849 -15892855.91647  20573474.229    20573473.494    20573481.914
       240.000         205.000
 -19153068.23949 -14907873.49347  19598720.385    19598719.947    19598728.631
       238.000         205.000
  10778617.40849   8393316.71046  22847445.366    22847444.051    22847455.015
       223.000         172.000
  -2024618.19749  -1568457.82747  21193097.644    21193097.054    21193105.724
       242.000         204.000
  -7871713.38549  -6107744.70345  23726332.006    23726331.149    23726344.623
       216.000         156.000
 00  5  8 17 21 59.9970000  0  9G30G 2G10G 4G 5G24G 7G 9G16
  -8014324.26649  -6224238.84345  23418410.006    23418410.246    23418422.143
       215.000         157.000
  13464439.57649  10486484.86845  24187419.167    24187417.547    24187433.811
       203.000         136.000
  -3041457.78349  -2357772.09445  23843306.658    23843305.364    23843321.543
       215.000         154.000
  -4083325.48049  -3170873.51147  20145366.845    20145366.565    20145373.883
       244.000         209.000
 -20495385.54849 -15948188.54647  20559961.457    20559960.692    20559969.141
       241.000         204.000
 -19183432.00349 -14931533.55547  19592942.293    19592941.881    19592950.568
       237.000         205.000
  10838243.30749   8439778.28746  22858791.928    22858790.583    22858801.547
       224.000         171.000
  -1970874.71249  -1526579.87347  21203324.715    21203324.147    21203332.868
       241.000         204.000
  -7851965.79649  -6092356.94745  23730090.126    23730089.061    23730102.407
       217.000         153.000
 00  5  8 17 22 29.9970000  0  8G30G10G 4G 5G24G 7G 9G16
  -8121360.34349  -6307643.42745  23398041.526    23398041.795    23398053.701
       215.000         156.000
  -3147665.96249  -2440531.64945  23823095.692    23823094.528    23823110.519
       210.000         139.000
  -4034769.85649  -3133037.99847  20154606.753    20154606.457    20154613.743
       244.000         209.000
 -20566368.08449 -16003499.58347  20546453.939    20546453.158    20546461.618
       240.000         204.000
 -19213517.31449 -14954976.62847  19587217.218    19587216.821    19587225.527
       237.000         204.000
  10897653.83449   8486072.08146  22870097.420    22870096.127    22870107.096
       223.000         171.000
  -1916967.71049  -1484574.48747  21213582.948    21213582.365    21213591.122
       241.000         204.000
  -7831934.14949  -6076747.86245  23733901.946    23733900.882    23733914.194
       216.000         150.000
 00  5  8 17 22 59.9970000  0  8G30G10G 4G 5G24G 7G 9G16
  -8228256.69749  -6390939.18245  23377699.557    23377699.934    23377711.860
       217.000         158.000
  -3253836.11949  -2523261.45045  23802892.393    23802891.195    23802907.163
       205.000         150.000
  -3985658.99949  -3094769.84847  20163952.233    20163951.975    20163959.288
       244.000         209.000
 -20636963.61249 -16058509.05747  20533019.988    20533019.250    20533027.734
       240.000         204.000
 -19242966.72449 -14977924.19947  19581613.108    19581612.744    19581621.464
       236.000         203.000
  10957206.33049   8532476.50046  22881429.972    22881428.708    22881439.663
       224.000         171.000
  -1862542.27749  -1442165.13447  21223939.876    21223939.240    21223948.034
       242.000         204.000
  -7811261.91649  -6060639.60945  23737835.775    23737834.691    23737848.017
       213.000         153.000
 00  5  8 17 23 29.9970000  0  8G30G10G 4G 5G24G 7G 9G16
  -8334916.03949  -6474050.25545  23357402.745    23357403.196    23357415.083
       220.000         158.000
  -3359869.86249  -2605885.02945  23782714.721    23782713.442    23782729.221
       214.000         148.000
  -3935900.05949  -3055996.70847  20173421.090    20173420.819    20173428.175
       244.000         210.000
 -20707074.40849 -16113140.82547  20519678.318    20519677.592    20519686.046
       241.000         203.000
 -19271684.70449 -15000301.83047  19576148.183    19576147.865    19576156.542
       237.000         203.000
  11016996.20549   8579065.88946  22892807.667    22892806.436    22892817.431
       222.000         170.000
  -1807505.35049  -1399279.29347  21234413.158    21234412.493    21234421.314
       242.000         204.000
  -7789853.81849  -6043957.95245  23741909.562    23741908.512    23741921.892
       208.000         154.000
 00  5  8 17 23 59.9970000  0  8G30G10G 4G 5G24G 7G 9G16
  -8441547.07149  -6557139.29545  23337111.475    23337111.880    23337123.643
       219.000         158.000
  -3465974.91549  -2688564.04645  23762523.252    23762522.220    23762538.167
       213.000         146.000
  -3885705.55949  -3016884.16647  20182972.800    20182972.546    20182979.942
       243.000         209.000
 -20776908.80249 -16167557.21547  20506389.232    20506388.524    20506396.971
       241.000         204.000
 -19299881.63049 -15022273.44047  19570782.467    19570782.138    19570790.787
       237.000         202.000
  11076812.95649   8625676.22246  22904190.555    22904189.284    22904200.301
       223.000         170.000
  -1752069.58949  -1356082.66447  21244962.233    21244961.606    21244970.485
       242.000         204.000
  -7767920.95049  -6026867.44645  23746082.855    23746082.081    23746095.635
       208.000         148.000
 00  5  8 17 24 29.9970000  0  8G30G10G 4G 5G24G 7G 9G16
  -8548118.52149  -6640181.88845  23316831.505    23316831.888    23316843.613
       221.000         157.000
  -3572118.99749  -2771273.65345  23742324.750    23742323.710    23742339.298
       209.000         147.000
  -3835048.79049  -2977411.42147  20192612.476    20192612.239    20192619.657
       244.000         209.000
 -20846435.48649 -16221733.83647  20493158.799    20493158.049    20493166.447
       241.000         204.000
 -19327528.28649 -15043816.27647  19565521.548    19565521.163    19565529.735
       237.000         202.000
  11136685.80049   8672330.26846  22915583.972    22915582.789    22915593.889
       221.000         170.000
  -1696208.21849  -1312554.39947  21255592.350    21255591.711    21255600.627
       242.000         204.000
  -7745434.39649  -6009345.44745  23750362.086    23750361.181    23750374.602
       220.000         153.000
 00  5  8 17 24 59.9970000  0  8G30G10G 4G 5G24G 7G 9G16
  -8654607.93549  -6723160.55245  23296567.105    23296567.495    23296579.232
       219.000         159.000
  -3678278.27549  -2853994.87645  23722123.087    23722121.988    23722137.922
       216.000         150.000
  -3783910.92449  -2937563.79047  20202343.739    20202343.496    20202350.933
       244.000         209.000
 -20915631.46849 -16275652.76247  20479991.256    20479990.488    20479998.854
       240.000         204.000
 -19354603.94949 -15064914.18447  19560369.224    19560368.821    19560377.350
       236.000         202.000
  11196635.68549   8719044.34446  22926992.075    22926990.952    22927002.148
       221.000         171.000
  -1639902.86849  -1268680.17047  21266306.952    21266306.324    21266315.262
       241.000         204.000
  -7722373.91849  -5991376.25145  23754750.530    23754749.552    23754762.844
       214.000         155.000
 00  5  8 17 25 29.9970000  0  8G30G10G 4G 5G24G 7G 9G16
  -8761032.91549  -6806089.01445  23276315.049    23276315.418    23276327.113
       219.000         158.000
  -3784469.80149  -2936741.43145  23701915.090    23701914.198    23701930.070
       210.000         143.000
  -3732314.28549  -2897358.67447  20212162.315    20212162.053    20212169.491
       244.000         209.000
 -20984514.16349 -16329327.57047  20466883.264    20466882.525    20466890.853
       240.000         203.000
 -19381128.15449 -15085582.38247  19555321.772    19555321.395    19555329.912
       235.000         201.000
  11256642.92349   8765803.11446  22938411.178    22938410.038    22938421.299
       222.000         170.000
  -1583175.78449  -1224477.32047  21277101.786    21277101.188    21277110.141
       242.000         204.000
  -7698759.67949  -5972975.56945  23759244.463    23759243.285    23759256.434
       214.000         154.000
 00  5  8 17 25 59.9970000  0  8G30G10G 4G 5G24G 7G 9G16
  -8867409.22449  -6888979.55445  23256072.298    23256072.596    23256084.231
       221.000         162.000
  -3890707.85549  -3019524.11745  23681698.414    23681697.620    23681713.566
       210.000         148.000
  -3680278.47849  -2856811.34647  20222064.480    20222064.187    20222071.599
       244.000         209.000
 -21053098.92949 -16382770.22447  20453831.972    20453831.274    20453839.548
       240.000         203.000
 -19407118.47349 -15105834.56647  19550375.922    19550375.569    19550384.104
       235.000         201.000
  11316689.91849   8812592.86346  22949837.818    22949836.696    22949848.018
       221.000         171.000
  -1526046.68249  -1179961.20647  21287973.090    21287972.537    21287981.507
       241.000         203.000
  -7674609.40749  -5954157.21045  23763839.925    23763838.942    23763852.048
       213.000         152.000
 00  5  8 17 26 29.9970000  0  8G30G10G 4G 5G24G 7G 9G16
  -8973718.86749  -6971818.10646  23235842.247    23235842.465    23235854.094
       223.000         163.000
  -3996973.48749  -3102328.34045  23661476.524    23661475.747    23661491.589
       212.000         144.000
  -3627790.17649  -2815911.42347  20232052.734    20232052.437    20232059.833
       244.000         209.000
 -21121367.88149 -16435966.78647  20440840.787    20440840.096    20440848.354
       240.000         203.000
 -19432559.15049 -15125658.45547  19545534.675    19545534.334    19545542.895
       235.000         202.000
  11376792.72649   8859426.10046  22961275.070    22961273.948    22961285.384
       220.000         170.000
  -1468502.00349  -1135121.26647  21298923.503    21298922.961    21298931.959
       241.000         203.000
  -7649908.36749  -5934909.68045  23768540.150    23768539.350    23768552.386
       212.000         151.000
 00  5  8 17 26 59.9970000  0  8G30G10G 4G 5G24G 7G 9G16
  -9079954.16649  -7054598.74746  23215626.324    23215626.521    23215638.104
       223.000         165.000
  -4103257.82749  -3185147.09445  23641251.109    23641250.442    23641266.255
       211.000         145.000
  -3574845.74349  -2774656.07847  20242127.785    20242127.486    20242134.869
       245.000         209.000
 -21189312.93149 -16488910.95447  20427911.237    20427910.546    20427918.810
       241.000         203.000
 -19457444.57349 -15145049.68347  19540799.111    19540798.764    19540807.349
       236.000         201.000
  11436957.17549   8906307.37546  22972724.041    22972722.939    22972734.484
       222.000         169.000
  -1410538.36249  -1089954.86647  21309953.632    21309953.115    21309962.139
       242.000         203.000
  -7624650.83649  -5915228.56045  23773346.516    23773345.716    23773358.836
       217.000         157.000
 00  5  8 17 27 29.9970000  0  8G30G10G 4G 5G24G 7G 9G16
  -9186108.76749  -7137316.48146  23195425.725    23195425.891    23195437.467
       222.000         164.000
  -4209553.24449  -3267974.53545  23621023.550    23621022.911    23621038.725
       212.000         143.000
  -3521443.11049  -2733043.69547  20252290.026    20252289.721    20252297.108
       244.000         209.000
 -21256927.27949 -16541597.42747  20415044.595    20415043.921    20415052.224
       240.000         203.000
 -19481770.06249 -15164004.60447  19536170.026    19536169.737    19536178.351
       234.000         201.000
  11497187.75349   8953240.17446  22984185.699    22984184.534    22984196.098
       221.000         168.000
  -1352153.60549  -1044460.32547  21321063.987    21321063.429    21321072.470
       241.000         203.000
  -7598833.16749  -5895110.97445  23778259.642    23778258.708    23778271.784
       217.000         156.000
 00  5  8 17 27 59.9970000  0  8G30G10G 4G 5G24G 7G 9G16
  -9292414.96149  -7220152.36246  23175196.137    23175196.380    23175207.975
       221.000         163.000
  -4316091.25849  -3350991.05045  23600749.996    23600749.351    23600764.880
       206.000         142.000
  -3467819.07149  -2691258.79047  20262494.317    20262494.060    20262501.479
       243.000         208.000
 -21324443.10749 -16594207.14347  20402196.741    20402196.058    20402204.340
       240.000         203.000
 -19505770.22349 -15182706.02447  19531602.903    19531602.623    19531611.257
       235.000         201.000
  11557250.07449   9000041.86946  22995615.350    22995614.119    22995625.657
       222.000         168.000
  -1293584.94349   -998822.48447  21332209.330    21332208.740    21332217.768
       242.000         203.000
  -7572690.20949  -5874739.88845  23783234.616    23783233.556    23783246.745
       221.000         157.000
 00  5  8 17 28 29.9970000  0  8G30G10G 4G 5G24G 7G 9G16
  -9398666.21049  -7302945.42046  23154977.099    23154977.351    23154988.938
       221.000         163.000
  -4422664.15949  -3434034.65545  23580469.673    23580468.983    23580484.661
       211.000         145.000
  -3413771.20849  -2649143.63247  20272779.326    20272779.055    20272786.491
       244.000         208.000
 -21391653.54149 -16646578.88647  20389407.002    20389406.314    20389414.581
       240.000         203.000
 -19529240.52949 -15200994.56847  19527136.593    19527136.333    19527144.986
       233.000         200.000
  11617349.06149   9046872.12046  23007051.980    23007050.679    23007062.258
       221.000         168.000
  -1234630.26049   -952883.84947  21343428.107    21343427.503    21343436.545
       241.000         202.000
  -7546017.97549  -5853956.39045  23788310.297    23788309.205    23788322.253
       217.000         156.000
 00  5  8 17 28 59.9970000  0  8G30G10G 4G 5G24G 7G 9G16
  -9504821.45549  -7385663.68346  23134776.303    23134776.581    23134788.162
       222.000         163.000
  -4529229.83249  -3517072.69045  23560190.532    23560190.007    23560205.663
       209.000         145.000
  -3359262.45349  -2606669.33847  20283152.019    20283151.763    20283159.211
       244.000         208.000
 -21458517.31449 -16698680.51647  20376683.211    20376682.536    20376690.777
       241.000         202.000
 -19552141.90249 -15218839.79147  19522778.566    19522778.300    19522786.954
       235.000         200.000
  11677523.89049   9093761.46346  23018502.834    23018501.629    23018513.205
       220.000         167.000
  -1175252.68149   -906615.69447  21354727.350    21354726.736    21354735.784
       242.000         202.000
  -7518777.86649  -5832730.37545  23793493.866    23793492.837    23793505.832
       214.000         155.000
 00  5  8 17 29 29.9970000  0  8G30G10G 4G 5G24G 7G 9G16
  -9610899.00349  -7468321.41746  23114590.318    23114590.636    23114602.137
       223.000         163.000
  -4635805.33449  -3600118.36545  23539909.696    23539909.233    23539924.988
       208.000         144.000
  -3304316.13949  -2563854.08547  20293607.969    20293607.728    20293615.186
       244.000         207.000
 -21525052.47749 -16750526.08547  20364021.960    20364021.288    20364029.510
       240.000         202.000
 -19574495.13649 -15236257.89247  19518524.888    19518524.593    19518533.243
       235.000         200.000
  11737754.07349   9140693.96346  23029964.284    23029963.110    23029974.692
       220.000         166.000
  -1115474.84149   -860035.64747  21366102.751    21366102.138    21366111.211
       242.000         202.000
  -7490991.15949  -5811078.46245  23798781.659    23798780.582    23798793.580
       221.000         156.000
 00  5  8 17 29 59.9970000  0  8G30G10G 4G 5G24G 7G 9G16
  -9716857.26949  -7550886.19646  23094427.102    23094427.360    23094438.794
       222.000         163.000
  -4742348.30949  -3683138.69145  23519635.014    23519634.537    23519650.463
       208.000         146.000
  -3248894.80649  -2520668.68747  20304154.368    20304154.115    20304161.560
       244.000         207.000
 -21591217.24149 -16802083.02947  20351431.195    20351430.521    20351438.733
       240.000         202.000
 -19596260.72549 -15253218.08347  19514383.049    19514382.730    19514391.347
       235.000         201.000
  11798079.30249   9187700.49946  23041443.844    23041442.673    23041454.289
       221.000         169.000
  -1055259.67149   -813114.82947  21377561.364    21377560.761    21377569.856
       241.000         202.000
  -7462618.88849  -5788970.20945  23804180.779    23804179.694    23804192.676
       216.000         153.000
 00  5  8 17 30 29.9970000  0  8G30G10G 4G 5G24G 7G 9G16
  -9822756.11249  -7633404.68845  23074275.105    23074275.377    23074286.762
       221.000         160.000
  -4848917.20749  -3766179.23845  23499355.374    23499354.975    23499370.876
       210.000         146.000
  -3193062.66049  -2477163.17347  20314778.934    20314778.658    20314786.117
       244.000         207.000
 -21657071.30849 -16853397.86447  20338899.546    20338898.889    20338907.071
       240.000         203.000
 -19617500.45849 -15269768.52047  19510341.401    19510340.977    19510349.559
       236.000         202.000
  11858438.03349   9234733.16746  23052929.832    23052928.696    23052940.340
       220.000         169.000
   -994671.46049   -765903.32247  21389091.002    21389090.377    21389099.528
       241.000         203.000
  -7433723.39449  -5766454.29845  23809679.006    23809678.245    23809691.333
       216.000         153.000
 00  5  8 17 30 59.9970000  0  8G30G10G 4G 5G24G 7G 9G16
  -9928568.33449  -7715855.66645  23054139.556    23054139.893    23054151.197
       220.000         160.000
  -4955483.84349  -3849217.98445  23479076.230    23479075.831    23479091.836
       209.000         146.000
  -3136796.92149  -2433319.79647  20325485.982    20325485.682    20325493.182
       243.000         206.000
 -21722587.61649 -16904449.51647  20326432.263    20326431.564    20326439.714
       240.000         202.000
 -19638189.87649 -15285890.14247  19506404.410    19506403.936    19506412.483
       235.000         201.000
  11918855.32349   9281811.47346  23064427.026    23064425.854    23064437.510
       221.000         167.000
   -933687.99449   -718383.83847  21400695.892    21400695.230    21400704.386
       242.000         203.000
  -7404280.51149  -5743511.80345  23815281.925    23815281.107    23815294.270
       216.000         159.000
 00  5  8 17 31 29.9970000  0  8G30G10G 4G 5G24G 7G 9G16
 -10034134.85349  -7798115.16845  23034050.817    23034051.167    23034062.355
       222.000         159.000
  -5061888.08649  -3932130.25445  23458828.161    23458827.738    23458843.576
       211.000         150.000
  -3079942.83649  -2389017.95647  20336304.955    20336304.700    20336312.163
       243.000         206.000
 -21787606.39949 -16955113.48547  20314059.637    20314058.916    20314067.004
       240.000         202.000
 -19658171.75049 -15301460.42647  19502601.997    19502601.528    19502610.061
       234.000         201.000
  11979488.53349   9329058.01746  23075965.336    23075964.093    23075975.789
       220.000         168.000
   -872154.27649   -670435.57647  21412405.485    21412404.785    21412413.937
       241.000         202.000
  -7374133.64349  -5720020.76645  23821018.526    23821017.811    23821031.127
       217.000         156.000
 00  5  8 17 31 59.9970000  0  8G30G10G 4G 5G24G 7G 9G16
 -10139525.32649  -7880237.50345  23013995.591    23013995.942    23014007.013
       222.000         161.000
  -5168198.48449  -4014969.31445  23438597.774    23438597.374    23438613.296
       208.000         148.000
  -3022574.36149  -2344315.29847  20347221.837    20347221.582    20347229.035
       243.000         206.000
 -21852197.32249 -17005444.06247  20301768.340    20301767.645    20301775.685
       239.000         202.000
 -19677518.10149 -15316535.49947  19498920.517    19498920.034    19498928.550
       234.000         201.000
  12040265.93249   9376416.91046  23087530.956    23087529.732    23087541.518
       219.000         168.000
   -810144.49649   -622116.36347  21424205.597    21424204.927    21424214.081
       241.000         202.000
  -7343355.56649  -5696037.85845  23826875.522    23826874.718    23826887.921
       220.000         154.000
 00  5  8 17 32 29.9970000  0  8G30G10G 4G 5G24G 7G 9G16
 -10244844.26449  -7962304.09145  22993953.965    22993954.338    22993965.357
       222.000         161.000
  -5274518.89449  -4097816.25645  23418365.728    23418365.200    23418381.005
       208.000         150.000
  -2964801.05349  -2299297.18747  20358215.793    20358215.525    20358222.951
       243.000         206.000
 -21916465.19649 -17055522.91247  20289538.542    20289537.847    20289545.851
       240.000         202.000
 -19696336.17149 -15331198.92847  19495339.548    19495339.093    19495347.576
       235.000         201.000
  12101080.86649   9423805.04246  23099103.664    23099102.494    23099114.345
       219.000         168.000
   -747768.26749   -573511.60847  21436075.483    21436074.786    21436083.961
       242.000         203.000
  -7312053.76949  -5671646.85245  23832831.930    23832831.207    23832844.438
       211.000         153.000
 00  5  8 17 32 59.9970000  0  8G30G10G 4G 5G24G 7G 9G16
 -10350059.46449  -8044289.84046  22973932.099    22973932.460    22973943.402
       223.000         163.000
  -5380815.47149  -4180644.55245  23398138.264    23398137.577    23398153.394
       211.000         152.000
  -2906594.52249  -2253941.49347  20369292.177    20369291.899    20369299.320
       243.000         205.000
 -21980376.99549 -17105324.30347  20277376.515    20277375.821    20277383.805
       240.000         202.000
 -19714595.59849 -15345427.05147  19491864.929    19491864.471    19491872.909
       234.000         201.000
  12161964.02349   9471246.33246  23110689.428    23110688.275    23110700.123
       220.000         166.000
   -684997.38849   -524599.33647  21448020.475    21448019.769    21448028.957
       241.000         202.000
  -7280198.54949  -5646824.61645  23838893.741    23838893.004    23838906.346
       215.000         151.000
 00  5  8 17 33 29.9970000  0  8G30G10G 4G 5G24G 7G 9G16
 -10455200.95349  -8126218.17246  22953924.360    22953924.655    22953935.514
       225.000         165.000
  -5487117.35949  -4263477.04345  23377909.709    23377908.930    23377924.579
       211.000         151.000
  -2847989.61149  -2208275.35847  20380444.330    20380444.080    20380451.489
       243.000         205.000
 -22043962.95849 -17154871.78747  20265276.544    20265275.808    20265283.763
       240.000         202.000
 -19732329.07449 -15359245.33247  19488490.320    19488489.905    19488498.342
       234.000         201.000
  12222883.08849   9518715.61346  23122282.073    23122280.883    23122292.735
       221.000         166.000
   -621866.95049   -475406.87847  21460033.918    21460033.197    21460042.377
       242.000         202.000
  -7247823.08849  -5621596.96845  23845054.961    23845053.975    23845067.101
       217.000         153.000
 00  5  8 17 33 59.9970000  0  8G30G10G 4G 5G24G 7G 9G16
 -10560309.30449  -8208120.65446  22933922.841    22933923.143    22933933.959
       225.000         166.000
  -5593464.36649  -4346344.63945  23357672.452    23357671.770    23357687.352
       210.000         154.000
  -2789031.39649  -2162333.93347  20391663.682    20391663.447    20391670.915
       241.000         204.000
 -22107263.69949 -17204197.02947  20253230.739    20253230.038    20253237.994
       239.000         202.000
 -19749579.64949 -15372687.33747  19485207.655    19485207.216    19485215.657
       235.000         200.000
  12283795.64449   9566179.82446  23133873.410    23133872.252    23133884.159
       221.000         167.000
   -558421.98049   -425969.34347  21472107.175    21472106.464    21472115.648
       241.000         202.000
  -7214970.84149  -5595997.88345  23851306.557    23851305.550    23851318.787
       212.000         153.000
 00  5  8 17 34 29.9970000  0  8G30G10G 4G 5G24G 7G 9G16
 -10665542.45149  -8290120.40246  22913897.653    22913897.894    22913908.680
       225.000         167.000
  -5700013.15149  -4429369.54745  23337396.892    23337396.143    23337411.525
       215.000         156.000
  -2729882.06549  -2116243.57647  20402919.416    20402919.215    20402926.709
       243.000         205.000
 -22170436.56949 -17253422.62147  20241209.273    20241208.592    20241216.565
       239.000         202.000
 -19766507.68149 -15385878.00247  19481986.322    19481985.904    19481994.333
       237.000         200.000
  12344541.79849   9613514.35746  23145433.109    23145431.974    23145443.864
       220.000         167.000
   -494824.96649   -376413.32647  21484209.355    21484208.644    21484217.860
       242.000         202.000
  -7181802.66249  -5570152.60045  23857618.107    23857617.235    23857630.596
       217.000         156.000
 00  5  8 17 34 59.9970000  0  8G30G10G 4G 5G24G 7G 9G16
 -10770658.08349  -8372028.57746  22893894.807    22893894.979    22893905.768
       225.000         169.000
  -5806520.00349  -4512361.67345  23317129.286    23317128.376    23317143.946
       214.000         154.000
  -2670303.87049  -2069819.04547  20414256.818    20414256.605    20414264.089
       242.000         205.000
 -22233239.28349 -17302359.78947  20229258.290    20229257.623    20229265.616
       240.000         202.000
 -19782873.08849 -15398630.26347  19478872.134    19478871.678    19478880.079
       234.000         200.000
  12405362.03749   9660906.60246  23157006.955    23157005.807    23157017.698
       221.000         167.000
   -430838.12549   -326553.55747  21496385.659    21496384.999    21496394.250
       241.000         202.000
  -7148079.35249  -5543874.75645  23864035.568    23864034.587    23864047.851
       216.000         152.000
 00  5  8 17 35 29.9970000  0  8G30G10G 4G 5G24G 7G 9G16
 -10875389.24349  -8453637.15946  22873965.159    22873965.263    22873976.034
       226.000         171.000
  -5912716.97249  -4595112.42945  23296920.632    23296919.696    23296935.069
       213.000         155.000
  -2610034.44149  -2022855.88247  20425725.744    20425725.523    20425733.013
       242.000         205.000
 -22295404.80849 -17350800.44047  20217428.600    20217427.892    20217435.892
       239.000         203.000
 -19798411.49449 -15410738.09547  19475915.264    19475914.828    19475923.231
       235.000         200.000
  12466521.55249   9708563.29146  23168645.314    23168644.156    23168656.150
       219.000         166.000
   -366199.16249   -276185.62747  21508686.114    21508685.461    21508694.710
       240.000         201.000
  -7113536.62249  -5516958.38345  23870608.687    23870607.836    23870621.145
       213.000         154.000
 00  5  8 17 35 59.9970000  0  9G30G10G 4G 5G24G 7G 6G 9G16
 -10980058.11849  -8535197.24246  22854047.349    22854047.398    22854058.140
       228.000         173.000
  -6018925.37249  -4677872.05045  23276709.676    23276708.774    23276724.206
       214.000         155.000
  -2549400.65749  -1975608.81747  20437264.014    20437263.784    20437271.294
       242.000         206.000
 -22357255.77649 -17398995.98947  20205658.710    20205658.016    20205666.056
       239.000         203.000
 -19813447.91749 -15422454.77947  19473053.888    19473053.464    19473061.897
       234.000         200.000
  12527695.60749   9756231.26946  23180286.392    23180285.255    23180297.326
       218.000         167.000
   -250261.31859   -179381.68955  24533156.996    24533156.093    24533171.930
       214.000         149.000
   -301235.26649   -225564.51047  21521048.421    21521047.759    21521056.981
       241.000         200.000
  -7078500.23549  -5489657.38045  23877276.087    23877275.153    23877288.407
       216.000         153.000
 00  5  8 17 36 29.9970000  0  9G30G10G 4G 5G24G 7G 6G 9G16
 -11084643.72149  -8616692.43446  22834145.284    22834145.350    22834156.087
       229.000         172.000
  -6125122.94449  -4760623.25545  23256500.607    23256499.860    23256515.246
       216.000         157.000
  -2488385.67449  -1928064.71647  20448874.787    20448874.575    20448882.119
       242.000         206.000
 -22418770.36449 -17446929.42847  20193952.804    20193952.167    20193960.203
       239.000         203.000
 -19827963.67549 -15433765.75947  19470291.672    19470291.214    19470299.668
       236.000         200.000
  12588903.67149   9803925.74246  23191933.979    23191932.793    23191945.046
       218.000         167.000
   -330606.59949   -241988.29155  24517867.832    24517867.672    24517883.457
       214.000         153.000
   -235929.89149   -174677.30747  21533475.678    21533475.021    21533484.233
       240.000         199.000
  -7042952.06149  -5461957.55145  23884040.754    23884039.798    23884052.933
       214.000         144.000
 00  5  8 17 36 59.9970000  0  9G30G10G 4G 5G24G 7G 6G 9G16
 -11189101.90449  -8698088.28146  22814267.488    22814267.554    22814278.297
       227.000         171.000
  -6231264.86249  -4843331.09145  23236302.199    23236301.567    23236317.019
       211.000         153.000
  -2426950.49949  -1880193.19047  20460565.492    20460565.303    20460572.880
       242.000         205.000
 -22479904.83249 -17494566.66147  20182319.302    20182318.664    20182326.707
       239.000         203.000
 -19841917.36649 -15444638.75247  19467636.374    19467635.909    19467644.392
       234.000         201.000
  12650187.51449   9851679.27946  23203596.011    23203594.843    23203607.146
       218.000         165.000
   -410880.33259   -304539.14745  24502592.260    24502592.182    24502607.642
       215.000         153.000
   -170244.12549   -123493.68547  21545975.287    21545974.648    21545983.866
       239.000         199.000
  -7006851.03749  -5433826.95545  23890910.764    23890909.653    23890922.802
       216.000         154.000
 00  5  8 17 37 29.9970000  0  9G30G10G 4G 5G24G 7G 6G 9G16
 -11293457.84749  -8779404.49046  22794409.096    22794409.220    22794419.955
       226.000         170.000
  -6337375.48349  -4926014.58145  23216109.961    23216109.259    23216124.672
       212.000         159.000
  -2365124.73549  -1832017.31047  20472330.542    20472330.373    20472337.960
       242.000         205.000
 -22540684.23449 -17541927.22647  20170753.395    20170752.706    20170760.773
       239.000         203.000
 -19855336.94549 -15455095.56347  19465082.721    19465082.233    19465090.709
       236.000         199.000
  12711520.03249   9899470.73546  23215267.348    23215266.099    23215278.443
       219.000         164.000
   -491110.01449   -367055.67445  24487324.973    24487324.592    24487340.517
       214.000         152.000
   -104207.72449    -72036.85947  21558541.642    21558541.024    21558550.218
       240.000         198.000
  -6970225.88049  -5405287.94845  23897880.197    23897879.148    23897892.340
       211.000         148.000
 00  5  8 17 37 59.9970000  0  9G30G10G 4G 5G24G 7G 6G 9G16
 -11397673.64549  -8860611.50546  22774577.409    22774577.549    22774588.209
       227.000         170.000
  -6443415.51949  -5008643.02245  23195931.058    23195930.331    23195945.856
       214.000         156.000
  -2302875.26549  -1783511.27547  20484176.294    20484176.098    20484183.679
       243.000         205.000
 -22601070.67949 -17588981.58647  20159262.183    20159261.535    20159269.634
       239.000         203.000
 -19868187.07549 -15465108.64347  19462637.345    19462636.917    19462645.386
       235.000         199.000
  12772937.23049   9947328.16846  23226954.660    23226953.479    23226965.846
       218.000         164.000
   -571259.68649   -429509.85345  24472072.966    24472072.519    24472088.566
       213.000         151.000
    -37787.47649    -20280.92447  21571181.047    21571180.431    21571189.625
       239.000         198.000
  -6933041.52849  -5376313.18745  23904956.151    23904955.145    23904968.369
       215.000         148.000
 00  5  8 17 38 29.9970000  0  9G30G10G 4G 5G24G 7G 6G 9G16
 -11501820.03649  -8941764.42546  22754758.894    22754759.069    22754769.659
       228.000         170.000
  -6549454.44149  -5091270.58245  23175752.290    23175751.641    23175767.172
       213.000         157.000
  -2240277.14749  -1734733.55547  20496088.370    20496088.159    20496095.724
       243.000         206.000
 -22661134.72549 -17635784.73047  20147832.374    20147831.715    20147839.830
       240.000         203.000
 -19880541.12249 -15474735.15847  19460286.483    19460286.029    19460294.447
       236.000         199.000
  12834366.39149   9995194.92846  23238644.455    23238643.180    23238655.478
       219.000         164.000
   -651402.42649   -491958.62345  24456822.238    24456821.850    24456837.837
       213.000         149.000
     28941.19549     31715.34947  21583879.087    21583878.513    21583887.750
       239.000         197.000
  -6895372.24549  -5346960.58745  23912124.504    23912123.362    23912136.838
       211.000         146.000
 00  5  8 17 38 59.9970000  0  9G30G10G 4G 5G24G 7G 6G 9G16
 -11605841.38849  -9022819.91146  22734964.169    22734964.369    22734974.925
       227.000         171.000
  -6655435.95349  -5173853.46045  23155584.729    23155583.954    23155599.355
       212.000         154.000
  -2177279.20049  -1685644.28947  20508076.518    20508076.306    20508083.870
       242.000         205.000
 -22720820.74349 -17682293.30347  20136474.480    20136473.814    20136481.959
       239.000         203.000
 -19892346.10349 -15483933.83647  19458040.066    19458039.617    19458047.998
       235.000         199.000
  12895861.15749  10043112.78946  23250346.650    23250345.347    23250357.637
       221.000         164.000
   -731484.79149   -554360.35245  24441582.983    24441582.561    24441598.528
       210.000         147.000
     96029.05149     83991.49547  21596645.526    21596644.938    21596654.199
       239.000         197.000
  -6857165.35349  -5317189.10745  23919395.048    23919393.849    23919407.287
       211.000         149.000
 00  5  8 17 39 29.9970000  0  9G30G10G 4G 5G24G 7G 6G 9G16
 -11709743.68449  -9103782.63446  22715192.087    22715192.331    22715202.864
       229.000         173.000
  -6761364.64649  -5256395.13745  23135427.101    23135426.286    23135441.724
       217.000         159.000
  -2113892.47649  -1636252.08847  20520138.624    20520138.429    20520145.986
       242.000         205.000
 -22780134.77149 -17728512.01847  20125187.377    20125186.704    20125194.871
       240.000         204.000
 -19903610.87249 -15492711.57147  19455896.427    19455896.010    19455904.365
       234.000         199.000
  12957413.55749  10091075.55546  23262059.721    23262058.458    23262070.785
       218.000         164.000
   -811514.92149   -616721.38245  24426353.714    24426353.284    24426369.245
       214.000         149.000
    163465.46049    136539.24647  21609478.283    21609477.700    21609487.008
       239.000         197.000
  -6818430.08849  -5287005.84245  23926766.120    23926764.974    23926778.578
       211.000         150.000
 00  5  8 17 39 59.9970000  0  9G30G10G 4G 5G24G 7G 6G 9G16
 -11813522.11149  -9184648.82846  22695443.640    22695443.885    22695454.376
       229.000         175.000
  -6867234.84049  -5338891.24945  23115280.390    23115279.706    23115295.041
       215.000         157.000
  -2050116.43349  -1586556.52547  20532274.819    20532274.632    20532282.200
       242.000         205.000
 -22839071.92449 -17774437.06547  20113972.076    20113971.364    20113979.519
       240.000         204.000
 -19914333.20749 -15501066.62847  19453856.031    19453855.625    19453863.958
       234.000         199.000
  13019026.43749  10139085.44346  23273784.380    23273783.159    23273795.544
       220.000         165.000
   -891490.05749   -679039.57445  24411134.878    24411134.444    24411150.473
       215.000         151.000
    231250.17649    189358.40447  21622377.397    21622376.774    21622386.124
       238.000         196.000
  -6779165.09949  -5256409.86745  23934237.913    23934236.772    23934250.596
       200.000         149.000
 00  5  8 17 40 29.9970000  0  9G30G10G 4G 5G24G 7G 6G 9G16
 -11917187.53349  -9265426.95846  22675716.709    22675716.943    22675727.404
       228.000         175.000
  -6973056.61849  -5421349.61845  23095143.125    23095142.386    23095157.754
       214.000         155.000
  -1985966.78849  -1536569.84547  20544482.158    20544481.948    20544489.521
       242.000         205.000
 -22897643.09849 -17820076.93447  20102826.394    20102825.645    20102833.785
       239.000         204.000
 -19924526.90249 -15509009.75947  19451916.263    19451915.828    19451924.169
       235.000         199.000
  13080686.87449  10187132.39346  23285518.067    23285516.840    23285529.336
       219.000         165.000
   -971423.46349   -741325.24545  24395923.978    24395923.637    24395939.623
       215.000         154.000
    299367.48749    242436.72747  21635339.792    21635339.145    21635348.542
       239.000         197.000
  -6739384.35249  -5225412.00345  23941807.944    23941806.954    23941820.753
       214.000         154.000
 00  5  8 17 40 59.9970000  0  9G30G10G 4G 5G24G 7G 6G 9G16
 -12020744.32949  -9346120.42946  22656010.379    22656010.666    22656021.101
       227.000         175.000
  -7078832.78649  -5503772.48045  23075014.524    23075013.752    23075029.027
       212.000         155.000
  -1921452.51149  -1486299.03647  20556758.887    20556758.659    20556766.205
       242.000         204.000
 -22955852.65149 -17865435.02047  20091749.460    20091748.713    20091756.860
       240.000         204.000
 -19934199.04149 -15516546.48047  19450075.727    19450075.300    19450083.631
       236.000         200.000
  13142388.43449  10235211.42246  23297259.542    23297258.349    23297270.910
       216.000         165.000
  -1051321.67549   -803583.47445  24380719.710    24380719.470    24380735.499
       212.000         155.000
    367808.34949    295767.16547  21648363.724    21648363.071    21648372.521
       239.000         196.000
  -6699095.69449  -5194018.33145  23949474.617    23949473.683    23949487.553
       211.000         151.000
 00  5  8 17 41 29.9970000  0  9G30G10G 4G 5G24G 7G 6G 9G16
 -12124170.66249  -9426712.26046  22636328.897    22636329.184    22636339.661
       228.000         177.000
  -7184540.44049  -5586141.92245  23054898.849    23054898.142    23054913.374
       214.000         154.000
  -1856556.53349  -1435730.79847  20569108.229    20569107.989    20569115.533
       242.000         204.000
 -23013678.87749 -17910494.40947  20080745.494    20080744.770    20080752.883
       239.000         205.000
 -19943330.93849 -15523662.23547  19448337.926    19448337.554    19448345.897
       234.000         200.000
  13204150.88649  10283337.85546  23309012.673    23309011.473    23309024.105
       217.000         165.000
  -1131165.11249   -865799.00245  24365526.048    24365525.737    24365541.797
       214.000         154.000
    436589.58449    349362.83447  21661452.411    21661451.769    21661461.262
       238.000         196.000
  -6658280.86149  -5162214.68245  23957241.383    23957240.468    23957254.557
       212.000         159.000
 00  5  8 17 41 59.9970000  0  9G30G10G 4G 5G24G 7G 6G 9G16
 -12227464.80649  -9507201.08946  22616672.567    22616672.855    22616683.336
       229.000         175.000
  -7290177.44849  -5668456.33945  23034796.685    23034795.990    23034811.139
       213.000         154.000
  -1791281.88749  -1384867.50847  20581529.616    20581529.377    20581536.932
       242.000         205.000
 -23071120.47949 -17955254.10247  20069814.755    20069814.015    20069822.119
       240.000         205.000
 -19951923.61149 -15530357.82547  19446702.835    19446702.419    19446710.756
       235.000         200.000
  13265973.92049  10331511.51846  23320777.192    23320776.038    23320788.711
       214.000         163.000
  -1210954.45849   -927972.41645  24350342.548    24350342.248    24350358.338
       216.000         155.000
    505707.93949    403221.18347  21674605.257    21674604.626    21674614.150
       238.000         196.000
  -6616941.50649  -5130002.35745  23965108.224    23965107.199    23965121.447
       211.000         154.000
 00  5  8 17 42 29.9970000  0  9G30G10G 4G 5G24G 7G 6G 9G16
 -12330624.79049  -9587585.39346  22597041.792    22597042.087    22597052.499
       229.000         176.000
  -7395740.34749  -5750713.00345  23014708.588    23014707.918    23014723.077
       210.000         152.000
  -1725630.79849  -1333710.87847  20594022.641    20594022.407    20594029.998
       242.000         204.000
 -23128174.98149 -17999712.14747  20058957.603    20058956.871    20058964.987
       240.000         205.000
 -19959977.78049 -15536633.79447  19445170.182    19445169.762    19445178.092
       235.000         200.000
  13327857.61749  10379732.43745  23332553.305    23332552.166    23332564.952
       215.000         161.000
  -1290689.50349   -990103.53445  24335169.339    24335169.117    24335185.207
       212.000         153.000
    575160.97349    457340.33347  21687821.808    21687821.166    21687830.721
       238.000         195.000
  -6575078.79049  -5097382.18545  23973074.517    23973073.351    23973087.662
       215.000         150.000
 00  5  8 17 42 59.9970000  0  9G30G10G 4G 5G24G 7G 6G 9G16
 -12433647.59449  -9667862.82746  22577437.131    22577437.406    22577447.780
       230.000         175.000
  -7501225.42049  -5832909.01045  22994635.255    22994634.673    22994649.828
       213.000         155.000
  -1659605.41949  -1282262.60747  20606586.899    20606586.663    20606594.262
       243.000         204.000
 -23184839.73049 -18043866.49947  20048174.630    20048173.930    20048182.039
       241.000         205.000
 -19967493.52249 -15542490.22347  19443739.950    19443739.573    19443747.890
       236.000         199.000
  13389802.88749  10428001.33346  23344341.225    23344340.055    23344352.862
       218.000         163.000
  -1370370.08049  -1052192.15445  24320006.476    24320006.304    24320022.413
       214.000         153.000
    644946.21349    511718.32547  21701101.551    21701100.929    21701110.484
       239.000         195.000
  -6532693.52349  -5064354.77045  23981140.524    23981139.304    23981153.322
       216.000         161.000
 00  5  8 17 43 29.9970000  0  9G30G10G 4G 5G24G 7G 6G 9G16
 -12536535.10749  -9748034.81846  22557858.164    22557858.478    22557868.790
       228.000         174.000
  -7606633.15749  -5915044.77545  22974576.610    22974576.112    22974591.236
       214.000         155.000
  -1593212.18549  -1230527.67747  20619221.123    20619220.914    20619228.521
       242.000         203.000
 -23241116.42349 -18087718.45747  20037465.509    20037464.824    20037472.930
       240.000         205.000
 -19974475.59249 -15547930.79347  19442411.262    19442410.907    19442419.223
       234.000         199.000
  13451806.01149  10476315.32045  23356140.182    23356138.988    23356151.729
       218.000         160.000
  -1449999.89649  -1114241.23645  24304853.395    24304853.224    24304869.288
       217.000         155.000
    715057.10949    566350.08747  21714443.302    21714442.661    21714452.234
       238.000         195.000
  -6489790.65449  -5030924.13845  23989304.740    23989303.536    23989317.605
       210.000         145.000
 00  5  8 17 43 59.9970000  0  9G30G10G 4G 5G24G 7G 6G 9G16
 -12639280.37949  -9828095.98646  22538306.242    22538306.621    22538316.910
       228.000         176.000
  -7711955.89749  -5997114.32245  22954534.247    22954533.759    22954548.973
       210.000         156.000
  -1526449.18549  -1178504.63147  20631925.698    20631925.510    20631933.144
       241.000         203.000
 -23296998.51249 -18131262.94047  20026831.499    20026830.820    20026838.926
       239.000         205.000
 -19980920.21249 -15552952.57947  19441184.799    19441184.492    19441192.834
       233.000         199.000
  13513871.50049  10524677.89945  23367950.995    23367949.784    23367962.537
       217.000         162.000
  -1529574.49649  -1176247.34845  24289710.847    24289710.681    24289726.596
       216.000         155.000
    785495.61749    621237.13247  21727847.425    21727846.742    21727856.362
       238.000         194.000
  -6446367.34649  -4997087.76645  23997568.102    23997566.843    23997580.324
       217.000         150.000
 00  5  8 17 44 29.9970000  0  9G30G10G 4G 5G24G 7G 6G 9G16
 -12741895.45249  -9908055.69746  22518779.139    22518779.501    22518789.870
       229.000         178.000
  -7817204.57149  -6079126.16845  22934505.939    22934505.467    22934520.762
       214.000         158.000
  -1459333.13549  -1126206.49447  20644697.513    20644697.313    20644704.986
       243.000         205.000
 -23352498.43049 -18174509.62847  20016270.221    20016269.530    20016277.654
       241.000         205.000
 -19986842.54149 -15557567.38547  19440057.788    19440057.501    19440065.837
       236.000         200.000
  13575985.25049  10573078.11045  23379770.916    23379769.766    23379782.427
       217.000         159.000
  -1609108.49149  -1238221.77945  24274575.967    24274575.810    24274591.663
       216.000         155.000
    856244.52649    676366.03247  21741310.555    21741309.893    21741319.540
       239.000         193.000
  -6402438.91449  -4962857.94045  24005927.273    24005926.217    24005940.009
       215.000         155.000
 00  5  8 17 44 59.9970000  0  9G30G10G 4G 5G24G 7G 6G 9G16
 -12844356.57649  -9987895.41946  22499281.324    22499281.722    22499292.128
       227.000         179.000
  -7922354.23249  -6161060.85345  22914496.593    22914496.111    22914511.383
       216.000         159.000
  -1391845.05849  -1073618.46347  20657540.090    20657539.919    20657547.649
       241.000         204.000
 -23407592.10849 -18217439.76147  20005786.286    20005785.567    20005793.648
       240.000         205.000
 -19992221.75949 -15561758.97447  19439034.169    19439033.878    19439042.233
       233.000         200.000
  13638168.99249  10621532.81145  23391604.311    23391603.068    23391615.743
       218.000         160.000
  -1688580.12949  -1300147.58845  24259452.849    24259452.771    24259468.618
       211.000         154.000
    927322.53349    731751.38647  21754836.313    21754835.650    21754845.319
       236.000         193.000
  -6357985.35149  -4928218.91245  24014386.744    24014385.559    24014399.534
       218.000         154.000
 00  5  8 17 45 29.9970000  0  9G30G10G 4G 5G24G 7G 6G 9G16
 -12946638.59849 -10067595.59846  22479817.598    22479818.007    22479828.463
       229.000         178.000
  -8027378.80049  -6242898.06445  22894511.123    22894510.528    22894525.750
       220.000         160.000
  -1323964.47949  -1020724.58747  20670457.392    20670457.205    20670464.956
       242.000         204.000
 -23462254.63849 -18260033.93847  19995384.412    19995383.651    19995391.705
       241.000         205.000
 -19997035.83149 -15565510.19547  19438118.115    19438117.799    19438126.173
       234.000         200.000
  13700445.89349  10670060.13045  23403455.294    23403454.029    23403466.726
       217.000         160.000
  -1767966.62349  -1362007.05945  24244345.951    24244345.919    24244361.869
       214.000         155.000
    998749.95249    787409.00547  21768428.476    21768427.873    21768437.581
       237.000         193.000
  -6312985.06949  -4893153.63945  24022950.289    24022949.057    24022962.606
       210.000         149.000
 00  5  8 17 45 59.9970000  0  9G30G10G 4G 5G24G 7G 6G 9G16
 -13048773.28849 -10147180.96046  22460381.860    22460382.304    22460392.806
       228.000         177.000
  -8132309.10049  -6324661.82645  22874543.705    22874542.940    22874558.130
       217.000         161.000
  -1255727.62149   -967553.08147  20683442.563    20683442.321    20683450.051
       243.000         204.000
 -23516517.79049 -18302316.90847  19985058.518    19985057.740    19985065.745
       240.000         206.000
 -20001319.30449 -15568847.96847  19437302.994    19437302.663    19437311.093
       234.000         200.000
  13762782.27049  10718633.76745  23415317.719    23415316.348    23415329.087
       218.000         159.000
  -1847301.61649  -1423826.42745  24229249.065    24229248.873    24229264.894
       215.000         155.000
   1070490.21549    843310.38747  21782080.350    21782079.678    21782089.370
       238.000         193.000
  -6267473.19349  -4857690.05645  24031610.634    24031609.586    24031623.759
       212.000         159.000
 00  5  8 17 46 29.9970000  0  9G30G10G 4G 5G24G 7G 6G 9G16
 -13150754.31649 -10226646.59546  22440975.420    22440975.825    22440986.400
       228.000         176.000
  -8237137.89949  -6406346.49346  22854595.451    22854594.671    22854609.793
       217.000         163.000
  -1187133.39449   -914103.11247  20696495.747    20696495.454    20696503.146
       244.000         204.000
 -23570375.80749 -18344284.18747  19974809.715    19974808.915    19974816.912
       241.000         206.000
 -20005069.43549 -15571770.14847  19436589.409    19436589.040    19436597.498
       235.000         201.000
  13825182.12849  10767256.89645  23427192.107    23427190.755    23427203.461
       216.000         158.000
  -1926581.63049  -1485602.93545  24214162.500    24214162.317    24214178.241
       214.000         148.000
   1142544.08649    899456.14147  21795791.931    21795791.188    21795800.831
       237.000         193.000
  -6221447.76849  -4821826.11245  24040369.442    24040368.171    24040382.191
       213.000         147.000
 00  5  8 17 46 59.9970000  0  9G30G10G 4G 5G24G 7G 6G 9G16
 -13252630.83649 -10306030.80346  22421588.927    22421589.247    22421599.804
       230.000         175.000
  -8341913.30349  -6487989.55446  22834657.349    22834656.502    22834671.600
       218.000         164.000
  -1118235.64849   -860416.64147  20709606.609    20709606.314    20709614.020
       243.000         203.000
 -23623877.79249 -18385974.03747  19964628.666    19964627.845    19964635.827
       241.000         207.000
 -20008338.31649 -15574317.32347  19435967.389    19435967.014    19435975.440
       235.000         200.000
  13887594.22649  10815889.54245  23439068.879    23439067.517    23439080.210
       219.000         159.000
  -2005857.91949  -1547376.61945  24199076.523    24199076.435    24199092.309
       211.000         148.000
   1214858.02749    955804.54547  21809552.900    21809552.168    21809561.819
       237.000         192.000
  -6174960.98049  -4785602.64045  24049215.287    24049214.290    24049228.316
       210.000         149.000
 00  5  8 17 47 29.9970000  0  9G30G10G 4G 5G24G 7G 6G 9G16
 -13354363.77049 -10385303.12746  22402229.740    22402230.068    22402240.547
       230.000         176.000
  -8446595.12849  -6569559.67446  22814736.983    22814736.081    22814751.193
       220.000         165.000
  -1049000.06649   -806466.91747  20722781.751    20722781.455    20722789.163
       242.000         203.000
 -23676985.02449 -18427356.28347  19954522.683    19954521.878    19954529.859
       240.000         206.000
 -20011090.09349 -15576461.55547  19435443.768    19435443.386    19435451.799
       234.000         201.000
  13950055.65749  10864560.63345  23450955.150    23450953.719    23450966.321
       215.000         159.000
  -2085093.73549  -1609118.64545  24183998.307    24183998.180    24184014.172
       211.000         149.000
   1287465.81149   1012381.92247  21823369.757    21823369.041    21823378.748
       236.000         193.000
  -6127977.81149  -4748992.49945  24058156.109    24058155.009    24058169.280
       210.000         155.000
 00  5  8 17 47 59.9970000  0  9G30G10G 4G 5G24G 7G 6G 9G16
 -13455949.40249 -10464460.68446  22382898.608    22382898.880    22382909.331
       230.000         177.000
  -8551178.78049  -6651053.28446  22794835.370    22794834.434    22794849.473
       221.000         165.000
   -979427.76649   -752254.80947  20736020.999    20736020.695    20736028.393
       243.000         203.000
 -23729693.90249 -18468428.12547  19944492.509    19944491.707    19944499.707
       241.000         207.000
 -20013324.16049 -15578202.37747  19435018.618    19435018.253    19435026.668
       234.000         201.000
  14012568.02349  10913271.42645  23462850.977    23462849.596    23462862.060
       216.000         154.000
  -2164287.63949  -1670828.10545  24168928.172    24168928.042    24168943.949
       212.000         150.000
   1360366.18349   1069187.28847  21837242.298    21837241.598    21837251.339
       236.000         193.000
  -6080498.23649  -4711995.52945  24067191.480    24067190.173    24067204.410
       199.000         139.000
 00  5  8 17 48 29.9970000  0  9G30G10G 4G 5G24G 7G 6G 9G16
 -13557379.03949 -10543496.66946  22363597.087    22363597.350    22363607.790
       229.000         176.000
  -8655654.29649  -6732462.63046  22774954.292    22774953.348    22774968.283
       219.000         165.000
   -909514.55049   -697777.06147  20749325.114    20749324.797    20749332.512
       242.000         203.000
 -23781995.82249 -18509182.86247  19934539.792    19934538.989    19934547.003
       240.000         207.000
 -20015035.05849 -15579535.53647  19434693.054    19434692.685    19434701.098
       234.000         201.000
  14075138.14149  10962027.19645  23474757.805    23474756.412    23474768.876
       216.000         158.000
  -2243433.40149  -1732499.99345  24153867.032    24153867.021    24153882.910
       207.000         149.000
   1433562.80949   1126223.49547  21851171.328    21851170.547    21851180.326
       236.000         192.000
  -6032517.13949  -4674607.72945  24076321.696    24076320.610    24076334.769
       209.000         154.000
 00  5  8 17 48 59.9970000  0  9G30G10G 4G 5G24G 7G 6G 9G16
 -13658653.27649 -10622411.56546  22344325.145    22344325.429    22344335.848
       229.000         177.000
  -8760021.47949  -6813787.54946  22755093.745    22755092.847    22755107.783
       219.000         165.000
   -839266.01249   -643038.02447  20762692.991    20762692.704    20762700.436
       242.000         203.000
 -23833891.47849 -18549621.02547  19924664.349    19924663.578    19924671.601
       241.000         207.000
 -20016226.67249 -15580464.05647  19434466.337    19434465.944    19434474.360
       235.000         202.000
  14137763.19449  11010825.79945  23486675.105    23486673.706    23486686.078
       215.000         157.000
  -2322533.80449  -1794136.53245  24138814.530    24138814.599    24138830.475
       209.000         145.000
   1507049.99749   1183486.11147  21865155.582    21865154.805    21865164.596
       236.000         192.000
  -5984038.98449  -4636832.64945  24085546.743    24085545.736    24085560.133
       199.000         145.000
 00  5  8 17 49 29.9970000  0  9G30G10G 4G 5G24G 7G 6G 9G16
 -13759762.23749 -10701197.67946  22325084.670    22325084.933    22325095.354
       230.000         177.000
  -8864269.48049  -6895019.59446  22735255.807    22735255.014    22735269.872
       218.000         164.000
   -768677.22049   -588033.84847  20776125.645    20776125.350    20776133.099
       243.000         202.000
 -23885371.56249 -18589735.36947  19914867.990    19914867.238    19914875.273
       241.000         207.000
 -20016892.47549 -15580982.84947  19434339.656    19434339.271    19434347.658
       235.000         201.000
  14200450.75249  11059673.08845  23498604.093    23498602.792    23498615.286
       216.000         156.000
  -2401581.59549  -1855732.12745  24123772.192    24123772.299    24123788.008
       213.000         154.000
   1580832.03849   1240978.48147  21879195.893    21879195.154    21879204.948
       236.000         192.000
  -5935057.80049  -4598665.63845  24094867.349    24094866.398    24094881.051
       205.000         148.000
 00  5  8 17 49 59.9970000  0  9G30G10G 4G 5G24G 7G 6G 9G16
 -13860679.32649 -10779834.25746  22305880.657    22305880.954    22305891.396
       230.000         178.000
  -8968370.64849  -6976137.19946  22715445.768    22715445.069    22715459.925
       220.000         164.000
   -697726.51149   -532747.65747  20789627.136    20789626.864    20789634.640
       243.000         202.000
 -23936409.64849 -18629505.29747  19905155.791    19905155.013    19905163.072
       242.000         208.000
 -20017009.10549 -15581073.72147  19434317.474    19434317.084    19434325.483
       236.000         202.000
  14263225.32949  11108588.17545  23510549.787    23510548.507    23510561.098
       217.000         159.000
  -2480552.45449  -1917267.72445  24108744.374    24108744.530    24108760.307
       217.000         154.000
   1654930.87149   1298717.70847  21893296.340    21893295.734    21893305.587
       236.000         190.000
  -5885551.10849  -4560088.98045  24104288.351    24104287.315    24104301.966
       205.000         153.000
 00  5  8 17 50 29.9970000  0  9G30G10G 4G 5G24G 7G 6G 9G16
 -13961460.45649 -10858364.90146  22286702.543    22286702.815    22286713.317
       229.000         178.000
  -9072379.88149  -7057183.16646  22695653.341    22695652.653    22695667.473
       218.000         165.000
   -626474.60349   -477226.76347  20803185.962    20803185.708    20803193.495
       242.000         202.000
 -23987061.92349 -18668974.59047  19895516.956    19895516.195    19895524.279
       240.000         207.000
 -20016636.02649 -15580783.00247  19434388.513    19434388.083    19434396.510
       234.000         202.000
  14326028.93649  11157525.88745  23522501.064    23522499.801    23522512.459
       216.000         161.000
  -2559504.59049  -1978788.77945  24093720.318    24093720.383    24093736.097
       215.000         157.000
   1729285.43049   1356656.18947  21907445.611    21907444.988    21907454.885
       235.000         190.000
  -5835578.34449  -4521149.35845  24113797.489    24113796.711    24113811.687
       209.000         157.000
 00  5  8 17 50 59.9970000  0  9G30G10G 4G 5G24G 7G 6G 9G16
 -14062115.80349 -10936797.53446  22267548.378    22267548.663    22267559.143
       231.000         178.000
  -9176306.29249  -7138164.57746  22675876.622    22675875.993    22675890.724
       218.000         164.000
   -554936.30149   -421482.70347  20816799.272    20816799.042    20816806.897
       242.000         203.000
 -24037338.76149 -18708151.33547  19885949.544    19885948.814    19885956.922
       240.000         207.000
 -20015786.59149 -15580121.09547  19434550.154    19434549.755    19434558.191
       235.000         203.000
  14388849.35149  11206476.68745  23534455.399    23534454.198    23534466.941
       215.000         159.000
  -2638450.61449  -2040305.01745  24078697.325    24078697.379    24078713.022
       217.000         152.000
   1803880.52049   1414782.09747  21921640.623    21921640.027    21921649.959
       234.000         190.000
  -5785153.85949  -4481857.52845  24123393.314    24123392.393    24123407.156
       212.000         146.000
 00  5  8 17 51 29.9970000  0  9G30G10G 4G 5G24G 7G 6G 9G16
 -14162831.97649 -11015277.56146  22248382.710    22248382.943    22248393.427
       230.000         179.000
  -9280335.61049  -7219226.15446  22656080.403    22656079.795    22656094.429
       220.000         163.000
   -483303.24949   -365664.82247  20830430.680    20830430.433    20830438.337
       242.000         203.000
 -24087427.24349 -18747181.32647  19876418.065    19876417.313    19876425.391
       240.000         207.000
 -20014650.63349 -15579235.93047  19434766.397    19434765.958    19434774.391
       236.000         202.000
  14451497.85949  11255293.54345  23546377.199    23546375.957    23546388.746
       215.000         160.000
  -2717579.37149  -2101963.69345  24063639.583    24063639.604    24063655.001
       216.000         153.000
   1878524.23949   1472945.89247  21935845.004    21935844.343    21935854.263
       235.000         190.000
  -5734468.01449  -4442362.18745  24133038.435    24133037.426    24133052.293
       206.000         152.000
 00  5  8 17 51 59.9970000  0  9G30G10G 4G 5G24G 7G 6G 9G16
 -14263398.27049 -11093640.79546  22229245.460    22229245.715    22229256.223
       230.000         179.000
  -9384256.38149  -7300203.13146  22636304.794    22636304.208    22636318.761
       220.000         166.000
   -411369.80149   -309612.86047  20844119.254    20844118.993    20844126.918
       242.000         203.000
 -24137117.19649 -18785900.76047  19866962.306    19866961.592    19866969.720
       240.000         206.000
 -20013021.24249 -15577966.26947  19435076.460    19435076.027    19435084.449
       235.000         202.000
  14514182.73749  11304138.69845  23558305.780    23558304.600    23558317.507
       215.000         156.000
  -2796682.77549  -2163602.57145  24048586.556    24048586.643    24048602.018
       214.000         152.000
   1953421.95349   1531307.61047  21950097.709    21950097.035    21950106.929
       235.000         189.000
  -5683314.08849  -4402502.14245  24142772.871    24142771.814    24142786.857
       209.000         156.000
 00  5  8 17 52 29.9970000  0  9G30G10G 4G 5G24G 7G 6G 9G16
 -14363800.58349 -11171876.26646  22210139.505    22210139.713    22210150.198
       231.000         179.000
  -9488053.84549  -7381084.02446  22616552.694    22616552.081    22616566.587
       220.000         166.000
   -339126.51149   -253319.45947  20857866.802    20857866.525    20857874.445
       241.000         202.000
 -24186394.62349 -18824298.75247  19857585.098    19857584.400    19857592.511
       240.000         207.000
 -20010887.52949 -15576303.63847  19435482.509    19435482.056    19435490.501
       235.000         202.000
  14576916.13649  11353021.71345  23570243.619    23570242.466    23570255.398
       214.000         159.000
  -2875749.03549  -2225212.52245  24033540.607    24033540.696    24033556.082
       218.000         160.000
   2028582.45949   1589874.09347  21964400.395    21964399.708    21964409.625
       234.000         189.000
  -5631682.26249  -4362269.57145  24152597.918    24152596.956    24152611.836
       206.000         140.000
 00  5  8 17 52 59.9970000  0  9G30G10G 4G 5G24G 7G 6G 9G16
 -14464021.04449 -11249970.02546  22191068.093    22191068.319    22191078.767
       231.000         179.000
  -9591708.86949  -7461853.92746  22596827.582    22596827.010    22596841.519
       219.000         165.000
   -266560.58149   -196774.64747  20871675.681    20871675.407    20871683.357
       241.000         201.000
 -24235242.12749 -18862361.73247  19848289.714    19848289.018    19848297.139
       239.000         207.000
 -20008235.20849 -15574236.88747  19435987.186    19435986.792    19435995.244
       235.000         202.000
  14639713.62849  11401954.63145  23582193.751    23582192.568    23582205.550
       215.000         156.000
  -2954762.81749  -2286781.57445  24018504.732    24018504.757    24018520.211
       219.000         160.000
   2104018.64649   1648655.41147  21978755.489    21978754.848    21978764.803
       234.000         189.000
  -5579558.60249  -4321653.82745  24162516.991    24162515.901    24162530.624
       214.000         157.000
 00  5  8 17 53 29.9970000  0  9G30G10G 4G 5G24G 7G 6G 9G16
 -14564026.40449 -11327896.18246  22172037.566    22172037.849    22172048.241
       231.000         179.000
  -9695186.92849  -7542485.90846  22577136.121    22577135.563    22577150.125
       221.000         164.000
   -193643.39749   -139956.13247  20885551.381    20885551.136    20885559.098
       242.000         201.000
 -24283626.67049 -18900063.96647  19839082.448    19839081.747    19839089.867
       241.000         207.000
 -20005034.31449 -15571742.68647  19436596.311    19436595.916    19436604.376
       236.000         203.000
  14702606.64249  11450961.99145  23594162.067    23594160.858    23594173.940
       213.000         158.000
  -3033692.92149  -2348285.38046  24003484.743    24003484.785    24003500.284
       222.000         163.000
   2179758.84849   1707673.61647  21993168.439    21993167.816    21993177.806
       235.000         189.000
  -5526913.41349  -4280631.73745  24172535.022    24172534.019    24172548.885
       202.000         147.000
 00  5  8 17 53 59.9970000  0  9G30G10G 4G 5G24G 7G 6G 9G16
 -14663783.64549 -11405629.00346  22153054.321    22153054.601    22153064.935
       231.000         182.000
  -9798454.38849  -7622953.80546  22557484.743    22557484.248    22557498.788
       219.000         165.000
   -120346.89949    -82842.04447  20899499.269    20899499.042    20899507.050
       241.000         201.000
 -24331515.76149 -18937380.13847  19829969.472    19829968.766    19829976.861
       240.000         207.000
 -20001255.49149 -15568798.15547  19437315.436    19437315.013    19437323.477
       235.000         202.000
  14765625.76449  11500067.60345  23606154.394    23606153.139    23606166.259
       215.000         154.000
  -3112509.09249  -2409700.46545  23988486.484    23988486.513    23988501.982
       220.000         160.000
   2255830.74449   1766950.27947  22007644.571    22007643.912    22007653.934
       235.000         189.000
  -5473718.21449  -4239180.97645  24182657.912    24182656.749    24182671.519
       211.000         143.000
 00  5  8 17 54 29.9970000  0  9G30G10G 4G 5G24G 7G 6G 9G16
 -14763191.71549 -11483089.73746  22134137.523    22134137.805    22134148.091
       231.000         182.000
  -9901409.23749  -7703178.10646  22537892.929    22537892.403    22537906.886
       220.000         165.000
    -46574.88049    -25357.42047  20913537.652    20913537.442    20913545.483
       241.000         201.000
 -24378808.70549 -18974231.77447  19820969.918    19820969.222    19820977.306
       240.000         206.000
 -19996800.95349 -15565327.09247  19438163.052    19438162.651    19438171.130
       235.000         201.000
  14828870.06149  11549348.70345  23618189.468    23618188.232    23618201.352
       216.000         155.000
  -3191112.47749  -2470949.74045  23973528.738    23973528.746    23973544.183
       223.000         162.000
   2332330.33049   1826560.20947  22022202.078    22022201.408    22022211.417
       234.000         189.000
  -5419875.72749  -4197225.94145  24192903.631    24192902.708    24192917.573
       201.000         147.000
 00  5  8 17 54 59.9970000  0  9G30G10G 4G 5G24G 7G 6G 9G16
 -14862418.36549 -11560409.10146  22115255.249    22115255.549    22115265.799
       231.000         182.000
 -10004217.97149  -7783288.54846  22518328.905    22518328.365    22518342.811
       220.000         166.000
     27499.91949     32363.13947  20927633.641    20927633.443    20927641.546
       240.000         202.000
 -24425673.57249 -19010749.83847  19812051.862    19812051.129    19812059.206
       239.000         206.000
 -19991842.24149 -15561463.16547  19439106.659    19439106.261    19439114.718
       235.000         202.000
  14892169.69149  11598672.88345  23630235.241    23630233.942    23630247.015
       213.000         156.000
  -3269673.40149  -2532165.91045  23958579.070    23958579.059    23958594.369
       224.000         160.000
   2409084.35449   1886368.39947  22036807.919    22036807.306    22036817.344
       234.000         189.000
  -5365557.76749  -4154900.39745  24203240.115    24203239.094    24203253.932
       208.000         139.000
 00  5  8 17 55 29.9970000  0  9G30G10G 4G 5G24G 7G 6G 9G16
 -14961428.53249 -11637559.79246  22096414.178    22096414.460    22096424.720
       231.000         182.000
 -10106844.81349  -7863257.26946  22498799.460    22498798.946    22498813.342
       221.000         167.000
    101907.75049     90343.19147  20941792.984    20941792.826    20941800.989
       240.000         202.000
 -24472075.79749 -19046907.41647  19803221.850    19803221.088    19803229.130
       240.000         206.000
 -19986347.70849 -15557181.72247  19440152.269    19440151.844    19440160.289
       236.000         202.000
  14955557.45249  11648065.75345  23642297.859    23642296.460    23642309.503
       213.000         152.000
  -3348159.15749  -2593323.49245  23943643.544    23943643.584    23943658.910
       221.000         162.000
   2486122.67049   1946398.10747  22051468.020    22051467.320    22051477.363
       235.000         189.000
  -5310733.67949  -4112180.38745  24213673.047    24213671.849    24213686.621
       208.000         145.000
 00  5  8 17 55 59.9970000  0  9G30G10G 4G 5G24G 7G 6G 9G16
 -15060219.84649 -11714539.93646  22077614.614    22077614.997    22077625.270
       229.000         182.000
 -10209286.55249  -7943081.75246  22479305.175    22479304.710    22479319.158
       218.000         166.000
    176645.85349    148580.60947  20956015.200    20956015.052    20956023.267
       240.000         201.000
 -24518013.30249 -19082702.86447  19794480.197    19794479.459    19794487.465
       239.000         205.000
 -19980318.77249 -15552483.85447  19441299.544    19441299.122    19441307.541
       235.000         202.000
  15019033.43449  11697527.37145  23654376.910    23654375.606    23654388.701
       214.000         156.000
  -3426569.82449  -2654422.58646  23928722.416    23928722.459    23928737.739
       222.000         163.000
   2563442.54449   2006647.21047  22066181.640    22066180.919    22066191.002
       234.000         189.000
  -5255405.25049  -4069067.44145  24224201.813    24224200.671    24224215.289
       205.000         146.000
 00  5  8 17 56 29.9970000  0  9G30G10G 4G 5G24G 7G 6G 9G16
 -15158807.08949 -11791361.07946  22058853.938    22058854.349    22058864.623
       230.000         182.000
 -10311556.75049  -8022772.56646  22459843.419    22459843.064    22459857.603
       221.000         167.000
    251694.72349    207060.18847  20970296.565    20970296.412    20970304.674
       240.000         200.000
 -24563501.48949 -19118148.20147  19785824.040    19785823.333    19785831.273
       239.000         205.000
 -19973773.58149 -15547383.71347  19442544.974    19442544.624    19442553.023
       234.000         201.000
  15082580.97349  11747044.72845  23666469.691    23666468.414    23666481.602
       212.000         149.000
  -3504922.64949  -2715476.53846  23913812.244    23913812.314    23913827.689
       221.000         165.000
   2641024.03849   2067100.17847  22080945.046    22080944.310    22080954.425
       234.000         189.000
  -5199591.09149  -4025576.02045  24234822.663    24234821.773    24234836.314
       202.000         136.000
 00  5  8 17 56 59.9970000  0  9G30G10G 4G 5G24G 7G 6G 9G16
 -15257213.18949 -11868041.06446  22040127.906    22040128.219    22040138.451
       231.000         184.000
 -10413677.82949  -8102347.19546  22440410.199    22440409.859    22440424.404
       218.000         167.000
    327026.58549    265760.27647  20984631.785    20984631.644    20984639.898
       240.000         200.000
 -24608563.72049 -19153261.62147  19777248.964    19777248.264    19777256.181
       239.000         206.000
 -19966738.76349 -15541902.05047  19443883.530    19443883.259    19443891.694
       234.000         201.000
  15146174.67349  11796598.07745  23678571.212    23678569.966    23678583.253
       210.000         153.000
  -3583242.75149  -2776505.11045  23898908.422    23898908.464    23898923.599
       221.000         159.000
   2718838.81549   2127734.91847  22095752.696    22095752.056    22095762.216
       232.000         188.000
  -5143318.65249  -3981727.41045  24245531.385    24245530.166    24245544.479
       208.000         144.000
 00  5  8 17 57 29.9970000  0  9G30G10G 4G 5G24G 7G 6G 9G16
 -15355422.88649 -11944568.01046  22021439.227    22021439.496    22021449.688
       233.000         185.000
 -10515633.14349  -8181792.66546  22421008.522    22421008.181    22421022.680
       220.000         165.000
    402651.61749    324688.81247  20999022.830    20999022.666    20999030.924
       239.000         200.000
 -24653185.07749 -19188031.50347  19768757.817    19768757.121    19768765.007
       239.000         206.000
 -19959202.73549 -15536029.82947  19445317.570    19445317.305    19445325.766
       235.000         202.000
  15209827.80349  11846197.73245  23690684.190    23690682.893    23690696.141
       212.000         148.000
  -3661517.27149  -2837498.05445  23884013.140    23884013.173    23884028.327
       220.000         160.000
   2796897.19649   2188559.48147  22110606.725    22110606.146    22110616.364
       233.000         189.000
  -5086576.59849  -3937512.93145  24256328.989    24256327.877    24256342.378
       207.000         142.000
 00  5  8 17 57 59.9970000  0  9G30G10G 4G 5G24G 7G 6G 9G16
 -15453415.29049 -12020925.63746  22002791.842    22002792.093    22002802.274
       232.000         185.000
 -10617401.13049  -8261092.17946  22401642.628    22401642.198    22401656.580
       221.000         167.000
    478585.65349    383858.13047  21013472.613    21013472.479    21013480.759
       239.000         200.000
 -24697345.36449 -19222442.10347  19760354.370    19760353.683    19760361.579
       239.000         206.000
 -19951148.63249 -15529753.91047  19446850.248    19446849.960    19446858.378
       235.000         202.000
  15273558.83049  11895858.04545  23702812.067    23702810.679    23702823.846
       218.000         155.000
  -3739728.34949  -2898441.61145  23869129.954    23869129.940    23869145.047
       220.000         160.000
   2875214.39449   2249585.71747  22125510.113    22125509.532    22125519.769
       234.000         188.000
  -5029348.77449  -3892919.85645  24267218.946    24267217.972    24267232.600
       210.000         144.000
 00  5  8 17 58 29.9970000  0  9G30G10G 4G 5G24G 7G 6G 9G16
 -15551222.42849 -12097138.89946  21984179.731    21984179.965    21984190.108
       231.000         185.000
 -10719012.75749  -8340269.86946  22382306.368    22382305.985    22382320.269
       221.000         168.000
    554791.92449    443239.58547  21027974.254    21027974.100    21027982.396
       238.000         200.000
 -24741076.95149 -19256518.65947  19752032.503    19752031.845    19752039.709
       239.000         206.000
 -19942611.75949 -15523101.81047  19448474.804    19448474.491    19448482.862
       235.000         202.000
  15337333.65049  11945552.46645  23714948.088    23714946.796    23714959.860
       214.000         146.000
  -3817910.14149  -2959362.32045  23854252.467    23854252.378    23854267.427
       214.000         159.000
   2953753.25349   2310784.67747  22140455.794    22140455.126    22140465.394
       233.000         189.000
  -4971671.07749  -3847976.30145  24278195.017    24278193.856    24278208.463
       208.000         147.000
 00  5  8 17 58 59.9970000  0  9G30G10G 4G 5G24G 7G 6G 9G16
 -15648810.81249 -12173181.70546  21965609.212    21965609.449    21965619.542
       231.000         185.000
 -10820433.67349  -8419298.95246  22363006.427    22363006.080    22363020.269
       222.000         168.000
    631299.05549    502855.47247  21042533.098    21042532.974    21042541.291
       239.000         200.000
 -24784346.81849 -19290235.43347  19743798.559    19743797.884    19743805.727
       240.000         206.000
 -19933562.40749 -15516050.38047  19450196.868    19450196.525    19450204.861
       235.000         201.000
  15401183.61549  11995305.48345  23727098.751    23727097.263    23727110.326
       211.000         151.000
  -3896031.67549  -3020236.08945  23839386.280    23839386.174    23839401.182
       218.000         162.000
   3032541.97449   2372178.32847  22155448.919    22155448.225    22155458.579
       233.000         189.000
  -4913514.16249  -3802659.28445  24289261.886    24289260.785    24289275.232
       205.000         139.000
 00  5  8 17 59 29.9970000  0  9G30G10G 4G 5G24G 7G 6G 9G16
 -15746179.43249 -12249053.27246  21947080.494    21947080.737    21947090.811
       232.000         185.000
 -10921662.05049  -8498178.02346  22343743.285    22343742.816    22343756.871
       221.000         169.000
    708102.94849    562702.59447  21057148.414    21057148.300    21057156.668
       238.000         200.000
 -24827154.61049 -19323592.14747  19735652.524    19735651.840    19735659.689
       239.000         206.000
 -19924003.43749 -15508601.84547  19452015.948    19452015.565    19452023.857
       236.000         202.000
  15465107.45049  12045116.07045  23739263.077    23739261.663    23739274.676
       211.000         150.000
  -3974094.50049  -3081064.11345  23824531.283    23824531.245    23824546.192
       221.000         160.000
   3111576.35349   2433763.41047  22170488.839    22170488.092    22170498.510
       233.000         188.000
  -4854881.62749  -3756971.64045  24300419.410    24300418.336    24300432.713
       208.000         151.000
 00  5  8 17 59 59.9970000  0  9G30G10G 4G 5G24G 7G 6G 9G16
 -15843365.81049 -12324782.82846  21928586.453    21928586.703    21928596.738
       233.000         186.000
 -11022734.62549  -8576935.70146  22324509.614    22324509.207    22324523.148
       221.000         169.000
    785160.98649    622747.75147  21071812.072    21071811.971    21071820.433
       238.000         200.000
 -24869538.70449 -19356618.70547  19727587.102    19727586.416    19727594.257
       239.000         206.000
 -19913976.34249 -15500788.53847  19453924.084    19453923.685    19453931.960
       237.000         203.000
  15529065.27749  12094953.07945  23751433.903    23751432.550    23751445.761
       215.000         152.000
  -4052138.66949  -3141877.51346  23809679.759    23809679.757    23809694.956
       219.000         164.000
   3190813.44549   2495506.43846  22185567.263    22185566.519    22185576.995
       233.000         187.000
  -4795815.25649  -3710946.07245  24311659.412    24311658.406    24311673.027
       204.000         150.000
 00  5  8 18  0 29.9970000  0  9G30G10G 4G 5G24G 7G 6G 9G16
 -15940319.71749 -12400331.24646  21910136.728    21910136.956    21910146.903
       234.000         187.000
 -11123599.96649  -8655531.91446  22305315.473    22305315.044    22305328.892
       224.000         170.000
    862518.67049    683026.41147  21086532.794    21086532.681    21086541.224
       237.000         200.000
 -24911449.14249 -19389276.18247  19719611.775    19719611.118    19719618.967
       239.000         206.000
 -19903434.34449 -15492574.00047  19455930.158    19455929.771    19455938.042
       236.000         203.000
  15593105.33349  12144854.25245  23763620.562    23763619.158    23763632.295
       213.000         151.000
  -4130116.17149  -3202639.12145  23794840.953    23794841.013    23794856.064
       213.000         157.000
   3270298.06949   2557442.37146  22200692.760    22200692.068    22200702.565
       234.000         187.000
  -4736269.31649  -3664546.71845  24322991.043    24322989.812    24323004.325
       205.000         141.000
 00  5  8 18  0 59.9970000  0  9G30G10G 4G 5G24G 7G 6G 9G16
 -16037054.52149 -12475708.93646  21891728.682    21891728.919    21891738.768
       235.000         186.000
 -11224270.76949  -8733976.54946  22286158.298    22286157.892    22286171.705
       223.000         171.000
    940157.71449    743524.30247  21101307.061    21101306.954    21101315.552
       238.000         200.000
 -24952899.85349 -19421575.42947  19711723.949    19711723.298    19711731.141
       239.000         205.000
 -19892394.79249 -15483971.76147  19458030.886    19458030.527    19458038.818
       236.000         202.000
  15657212.06549  12194807.26445  23775819.816    23775818.422    23775831.775
       217.000         158.000
  -4208042.97749  -3263361.09045  23780011.751    23780011.930    23780027.107
       209.000         157.000
   3350011.83749   2619556.84246  22215861.912    22215861.214    22215871.735
       235.000         187.000
  -4676261.26248  -3617787.22245  24334410.462    24334409.169    24334423.389
       193.000         147.000
 00  5  8 18  1 29.9970000  0  8G30G10G 4G 5G24G 7G 6G 9
 -16133544.26249 -12550895.66046  21873367.215    21873367.470    21873377.256
       233.000         185.000
 -11324720.02849  -8812248.56846  22267043.347    22267042.914    22267056.697
       224.000         171.000
   1018099.18749    804257.85947  21116138.889    21116138.766    21116147.415
       237.000         199.000
 -24993865.39449 -19453496.62447  19703928.405    19703927.773    19703935.666
       239.000         205.000
 -19880835.28849 -15474964.36547  19460230.591    19460230.239    19460238.544
       235.000         202.000
  15721409.33549  12244830.92245  23788036.242    23788034.920    23788048.176
       216.000         151.000
  -4285895.46049  -3324025.22446  23765196.603    23765196.824    23765212.033
       218.000         167.000
   3429975.54549   2681866.07546  22231078.647    22231077.928    22231088.449
       234.000         186.000
 00  5  8 18  1 59.9970000  0  8G30G10G 4G 5G24G 7G 6G 9
 -16229822.75749 -12625917.78646  21855045.931    21855046.202    21855055.958
       232.000         186.000
 -11424980.76849  -8890373.70746  22247964.280    22247963.807    22247977.537
       225.000         173.000
   1096304.22949    865196.78847  21131020.828    21131020.731    21131029.403
       236.000         199.000
 -25034380.59849 -19485066.92247  19696218.662    19696218.002    19696225.866
       239.000         205.000
 -19868793.67949 -15465581.30347  19462522.049    19462521.687    19462529.998
       235.000         203.000
  15785660.77349  12294896.74445  23800263.270    23800261.816    23800275.202
       218.000         162.000
  -4363710.01049  -3384659.75645  23750388.862    23750389.052    23750404.288
       217.000         158.000
   3510149.66349   2744339.26046  22246335.392    22246334.669    22246345.252
       233.000         186.000
 00  5  8 18  2 29.9970000  0  8G30G10G 4G 5G24G 7G 6G 9
 -16325920.20249 -12700798.82547  21836759.134    21836759.401    21836769.157
       234.000         188.000
 -11525082.13249  -8968374.66946  22228915.498    22228915.020    22228928.750
       224.000         173.000
   1174737.66849    926313.69047  21145946.288    21145946.161    21145954.840
       237.000         198.000
 -25074476.12949 -19516310.19347  19688588.766    19688588.076    19688595.929
       239.000         205.000
 -19856304.12249 -15455849.18147  19464898.747    19464898.371    19464906.707
       236.000         203.000
  15849934.12949  12344979.62445  23812494.006    23812492.680    23812506.208
       214.000         150.000
  -4441519.36449  -3445290.24445  23735582.183    23735582.316    23735597.562
       214.000         160.000
   3590498.77449   2806948.81146  22261625.359    22261624.692    22261635.335
       233.000         185.000
 00  5  8 18  2 59.9970000  0  8G30G10G 4G 5G24G 7G 6G 9
 -16421801.21949 -12775511.22547  21818513.563    21818513.808    21818523.553
       234.000         188.000
 -11624987.80949  -9046223.14846  22209903.950    22209903.461    22209917.215
       224.000         174.000
   1253429.92949    987632.25947  21160921.007    21160920.870    21160929.536
       238.000         198.000
 -25114117.05749 -19547199.22747  19681045.312    19681044.639    19681052.535
       238.000         205.000
 -19843334.91449 -15445743.31547  19467366.699    19467366.337    19467374.693
       236.000         203.000
  15914262.40449  12395105.32645  23824735.528    23824734.156    23824747.790
       213.000         157.000
  -4519290.75749  -3505891.18645  23720782.761    23720782.812    23720797.976
       217.000         156.000
   3671052.89649   2869718.11246  22276954.485    22276953.750    22276964.427
       234.000         185.000
 00  5  8 18  3 29.9970000  0  8G30G10G 4G 5G24G 7G 6G 9
 -16517447.71449 -12850040.88246  21800312.563    21800312.813    21800322.541
       234.000         187.000
 -11724679.13349  -9123904.60946  22190933.259    22190932.693    22190946.476
       224.000         173.000
   1332394.00049   1049162.63547  21175947.455    21175947.295    21175955.951
       237.000         197.000
 -25153285.96449 -19577720.44547  19673591.706    19673591.043    19673598.956
       238.000         205.000
 -19829872.17649 -15435252.87547  19469928.570    19469928.218    19469936.594
       236.000         203.000
  15978661.57649  12445286.31445  23836990.482    23836989.078    23837002.776
       216.000         152.000
  -4597008.68749  -3566450.43045  23705993.360    23705993.464    23706008.608
       219.000         159.000
   3751824.63749   2932656.98146  22292324.984    22292324.237    22292334.931
       233.000         184.000
 00  5  8 18  3 59.9970000  0  8G30G10G 4G 5G24G 7G 6G 9
 -16612870.47349 -12924396.20546  21782154.195    21782154.415    21782164.080
       234.000         187.000
 -11824165.72849  -9201426.54846  22172001.498    22172000.900    22172014.654
       225.000         173.000
   1411614.54749   1110892.85147  21191022.683    21191022.509    21191031.170
       237.000         197.000
 -25191994.48149 -19607882.92347  19666225.674    19666225.051    19666232.974
       238.000         205.000
 -19815930.28049 -15424389.06047  19472581.637    19472581.287    19472589.658
       236.000         203.000
  16043118.84449  12495512.46345  23849256.411    23849255.015    23849268.943
       214.000         157.000
  -4674686.08449  -3626978.10045  23691211.642    23691211.803    23691226.975
       219.000         155.000
   3832798.13549   2995753.07046  22307733.849    22307733.107    22307743.831
       234.000         184.000
 00  5  8 18  4 29.9970000  0  8G30G10G 4G 5G24G 7G 6G 9
 -16708051.12449 -12998562.86646  21764041.831    21764042.078    21764051.709
       234.000         187.000
 -11923428.54849  -9278774.11246  22153112.335    22153111.713    22153125.384
       223.000         175.000
   1491104.86649   1172833.29547  21206149.220    21206149.047    21206157.756
       237.000         197.000
 -25230224.97449 -19637672.91647  19658950.638    19658950.035    19658957.942
       238.000         205.000
 -19801494.70849 -15413140.56347  19475328.571    19475328.253    19475336.637
       236.000         202.000
  16107650.05949  12545796.35445  23861536.705    23861535.204    23861548.980
       213.000         148.000
  -4752307.20149  -3687461.92145  23676440.722    23676440.869    23676456.107
       213.000         155.000
   3913986.43249   3059016.52546  22323183.642    22323182.846    22323193.584
       233.000         182.000
 00  5  8 18  4 59.9970000  0  8G30G10G 4G 5G24G 7G 6G 9
 -16803059.53249 -13072595.31946  21745962.240    21745962.516    21745972.126
       234.000         187.000
 -12022536.61349  -9356001.08446  22134252.617    22134251.973    22134265.599
       223.000         175.000
   1570789.78049   1234925.35847  21221312.751    21221312.593    21221321.348
       236.000         196.000
 -25268048.13049 -19667145.51147  19651753.108    19651752.506    19651760.438
       238.000         205.000
 -19786639.73049 -15401565.25847  19478155.268    19478155.007    19478163.441
       236.000         202.000
  16172183.07749  12596081.56845  23873816.852    23873815.429    23873829.568
       212.000         157.000
  -4829944.61949  -3747958.48445  23661666.704    23661666.826    23661682.004
       217.000         160.000
   3995314.09449   3122388.58546  22338659.872    22338659.101    22338669.844
       232.000         183.000
 00  5  8 18  5 29.9970000  0  8G30G10G 4G 5G24G 7G 6G 9
 -16897839.88049 -13146450.05647  21727926.030    21727926.343    21727935.968
       235.000         188.000
 -12121433.11349  -9433063.20146  22115433.146    22115432.469    22115446.088
       226.000         175.000
   1650720.52649   1297208.99747  21236523.092    21236522.958    21236531.736
       237.000         197.000
 -25305408.57249 -19696257.55147  19644643.674    19644643.051    19644650.991
       239.000         205.000
 -19771313.21449 -15389622.51247  19481071.849    19481071.559    19481079.969
       238.000         203.000
  16236771.62349  12646410.06445  23886107.940    23886106.392    23886120.688
       209.000         146.000
  -4907544.78449  -3808425.97045  23646899.792    23646899.898    23646915.045
       220.000         157.000
   4076831.86149   3185908.77246  22354172.289    22354171.513    22354182.322
       233.000         183.000
 00  5  8 18  5 59.9970000  0  8G30G10G 4G 5G24G 7G 6G 9
 -16992387.58949 -13220123.51147  21709934.047    21709934.414    21709944.052
       234.000         188.000
 -12220112.92849  -9509956.47346  22096654.975    22096654.260    22096667.792
       225.000         177.000
   1730896.32449   1359683.59847  21251780.133    21251779.979    21251788.750
       237.000         196.000
 -25342302.73749 -19725006.24947  19637622.901    19637622.307    19637630.299
       237.000         205.000
 -19755514.88249 -15377312.12247  19484078.217    19484077.910    19484086.304
       237.000         203.000
  16301417.78249  12696783.53645  23898409.830    23898408.269    23898422.472
       211.000         151.000
  -4985105.91949  -3868863.02745  23632140.269    23632140.362    23632155.468
       221.000         161.000
   4158538.49249   3249576.12546  22369720.596    22369719.873    22369730.758
       232.000         182.000
 00  5  8 18  6 29.9970000  0  8G30G10G 4G 5G24G 7G 6G 9
 -17086646.20749 -13293571.70847  21691997.149    21691997.518    21692007.152
       234.000         189.000
 -12318518.69849  -9586636.20346  22077928.961    22077928.192    22077941.640
       225.000         176.000
   1811368.66149   1422389.23347  21267093.588    21267093.421    21267102.167
       236.000         196.000
 -25378674.73249 -19753348.06047  19630701.552    19630700.945    19630708.948
       238.000         206.000
 -19739192.11349 -15364593.08047  19487184.351    19487184.025    19487192.432
       237.000         203.000
  16366175.85949  12747244.06645  23910732.810    23910731.441    23910745.907
       210.000         151.000
  -5062574.11849  -3929227.74146  23617398.494    23617398.595    23617413.436
       222.000         164.000
   4240485.16649   3313430.52446  22385314.575    22385313.910    22385324.851
       233.000         183.000
 00  5  8 18  6 59.9970000  0  8G30G10G 4G 5G24G 7G 6G 9
 -17180601.29449 -13366783.38247  21674118.054    21674118.416    21674128.052
       235.000         189.000
 -12416634.89449  -9663090.28346  22059257.946    22059257.227    22059270.600
       225.000         177.000
   1892147.39049   1485333.63547  21282465.326    21282465.141    21282473.889
       236.000         195.000
 -25414510.84049 -19781272.30347  19623882.241    19623881.603    19623889.581
       239.000         206.000
 -19722334.39849 -15351457.20147  19490392.204    19490391.934    19490400.368
       236.000         203.000
  16431058.12349  12797801.53745  23923079.754    23923078.363    23923092.628
       211.000         146.000
  -5139937.08249  -3989510.39045  23602676.689    23602676.789    23602691.615
       222.000         157.000
   4322680.95549   3377479.02846  22400956.011    22400955.365    22400966.376
       233.000         183.000
 00  5  8 18  7 29.9970000  0  8G30G10G 4G 5G24G 7G 6G 9
 -17274336.53249 -13439823.75347  21656280.780    21656281.139    21656290.775
       235.000         189.000
 -12514543.98949  -9739382.97046  22040626.289    22040625.618    22040638.965
       224.000         176.000
   1973144.15249   1548447.92747  21297878.486    21297878.340    21297887.080
       235.000         194.000
 -25449895.66649 -19808844.89447  19617148.729    19617148.109    19617156.085
       238.000         205.000
 -19705029.27349 -15337972.69047  19493685.281    19493684.999    19493693.398
       235.000         203.000
  16495978.99049  12848388.90645  23935433.710    23935432.422    23935446.959
       212.000         146.000
  -5217281.06749  -4049778.26245  23587958.584    23587958.635    23587973.356
       219.000         158.000
   4405037.21749   3441652.58246  22416628.002    22416627.340    22416638.418
       231.000         183.000
 00  5  8 18  7 59.9970000  0  8G30G10G 4G 5G24G 7G 6G 9
 -17367830.69349 -13512676.27047  21638489.425    21638489.745    21638499.352
       235.000         189.000
 -12612224.59349  -9815497.61146  22022038.067    22022037.500    22022050.841
       224.000         177.000
   2054374.49349   1611744.21847  21313336.134    21313336.003    21313344.719
       236.000         193.000
 -25484809.06849 -19836050.14447  19610504.959    19610504.323    19610512.277
       238.000         205.000
 -19687260.17549 -15324126.63747  19497066.624    19497066.343    19497074.710
       235.000         203.000
  16560956.71749  12899020.78745  23947798.886    23947797.525    23947811.847
       215.000         148.000
  -5294587.64949  -4110017.02446  23573247.643    23573247.605    23573262.233
       218.000         165.000
   4487569.65149   3505963.41746  22432333.429    22432332.818    22432343.988
       232.000         182.000
 00  5  8 18  8 29.9970000  0  8G30G10G 4G 5G24G 7G 6G 9
 -17461078.81149 -13585337.06147  21620744.761    21620745.142    21620754.742
       234.000         190.000
 -12709670.73049  -9891429.53646  22003494.604    22003494.026    22003507.360
       224.000         177.000
   2135838.76149   1675222.80147  21328838.336    21328838.206    21328846.877
       236.000         194.000
 -25519246.69149 -19862884.65747  19603951.694    19603951.052    19603959.027
       238.000         205.000
 -19669025.76749 -15309918.01047  19500536.548    19500536.248    19500544.581
       236.000         203.000
  16625994.38849  12949699.23445  23960175.067    23960173.923    23960188.421
       206.000         144.000
  -5371854.19149  -4170224.57745  23558544.223    23558544.153    23558558.678
       221.000         160.000
   4570277.63049   3570411.04146  22448072.287    22448071.689    22448082.959
       231.000         181.000
 00  5  8 18  8 59.9970000  0  8G30G10G 4G 5G24G 7G 6G 9
 -17554126.46049 -13657841.65447  21603038.272    21603038.683    21603048.280
       235.000         191.000
 -12806927.01349  -9967213.52446  21984987.222    21984986.631    21984999.983
       224.000         177.000
   2217486.21649   1738844.12747  21344375.434    21344375.256    21344383.915
       236.000         193.000
 -25553254.83749 -19889384.51547  19597480.189    19597479.512    19597487.456
       238.000         205.000
 -19650375.87549 -15295385.63847  19504085.407    19504085.182    19504093.547
       235.000         203.000
  16691043.79849  13000386.89545  23972553.808    23972552.532    23972567.036
       216.000         147.000
  -5449128.68449  -4230438.20846  23543839.184    23543839.210    23543853.766
       224.000         165.000
   4653110.00249   3634955.58146  22463834.851    22463834.246    22463845.585
       231.000         182.000
 00  5  8 18  9 29.9970000  0  8G30G10G 4G 5G24G 7G 6G 9
 -17646943.86249 -13730166.82147  21585375.608    21585376.041    21585385.634
       235.000         190.000
 -12903962.73349 -10042825.63046  21966521.764    21966521.260    21966534.555
       225.000         177.000
   2299341.80849   1802627.62747  21359952.084    21359951.910    21359960.586
       236.000         194.000
 -25586804.73649 -19915527.28747  19591095.785    19591095.172    19591103.101
       238.000         205.000
 -19631284.91249 -15280509.56447  19507718.261    19507718.055    19507726.441
       236.000         203.000
  16756132.67549  13051105.35945  23984940.028    23984938.732    23984953.212
       204.000         146.000
  -5526384.01649  -4290636.96346  23529137.808    23529137.868    23529152.426
       223.000         168.000
   4736091.28049   3699616.15146  22479625.779    22479625.181    22479636.542
       231.000         182.000
 00  5  8 18  9 59.9970000  0  8G30G10G 4G 5G24G 7G 6G 9
 -17739506.73949 -13802293.65747  21567761.439    21567761.850    21567771.423
       235.000         190.000
 -13000753.00549 -10118246.46946  21948103.201    21948102.636    21948115.844
       225.000         177.000
   2381424.85049   1866588.34447  21375572.021    21375571.856    21375580.544
       236.000         193.000
 -25619873.06349 -19941294.81147  19584803.108    19584802.481    19584810.401
       238.000         205.000
 -19611732.64549 -15265274.03547  19511438.939    19511438.703    19511447.092
       235.000         203.000
  16821283.07849  13101871.64345  23997337.855    23997336.557    23997351.411
       212.000         153.000
  -5603598.41549  -4350803.84445  23514444.288    23514444.345    23514458.780
       222.000         161.000
   4819240.41049   3764407.52446  22495448.674    22495448.061    22495459.404
       230.000         182.000
